Time,TemperatureF,DewpointF,PressureIn,WindDirection,WindDirectionDegrees,WindSpeedMPH,WindSpeedGustMPH,Humidity,HourlyPrecipIn,Conditions,Clouds,dailyrainin,SoftwareType,DateUTC
2013-11-15 00:00:00,42.8,22.4,30.40,SW,233,0.0,3.0,44,0.00,,---,0.00,VWS V14.01,2013-11-15 05:00:00,
2013-11-15 00:01:00,42.8,22.4,30.40,SW,233,0.0,3.0,44,0.00,,---,0.00,VWS V14.01,2013-11-15 05:01:00,
2013-11-15 00:02:00,42.8,23.0,30.41,SW,233,1.0,1.0,45,0.00,,---,0.00,VWS V14.01,2013-11-15 05:02:00,
2013-11-15 00:03:00,42.8,23.0,30.41,WSW,247,2.0,2.0,45,0.00,,---,0.00,VWS V14.01,2013-11-15 05:03:00,
2013-11-15 00:04:00,42.8,23.0,30.41,WSW,252,1.0,2.0,45,0.00,,---,0.00,VWS V14.01,2013-11-15 05:04:00,
2013-11-15 00:05:00,42.8,23.0,30.41,West,280,1.0,5.0,45,0.00,,---,0.00,VWS V14.01,2013-11-15 05:05:00,
2013-11-15 00:06:00,42.8,23.0,30.41,SSW,204,4.0,4.0,45,0.00,,---,0.00,VWS V14.01,2013-11-15 05:06:00,
2013-11-15 00:07:00,42.9,23.0,30.41,West,268,0.0,4.0,45,0.00,,---,0.00,VWS V14.01,2013-11-15 05:07:00,
2013-11-15 00:08:00,42.9,23.0,30.40,West,269,1.0,2.0,45,0.00,,---,0.00,VWS V14.01,2013-11-15 05:08:00,
2013-11-15 00:09:00,42.9,22.5,30.40,WSW,247,2.0,4.0,44,0.00,,---,0.00,VWS V14.01,2013-11-15 05:09:00,
2013-11-15 00:10:00,43.0,22.6,30.40,WSW,244,1.0,3.0,44,0.00,,---,0.00,VWS V14.01,2013-11-15 05:10:00,
2013-11-15 00:11:00,43.0,22.6,30.40,West,279,1.0,2.0,44,0.00,,---,0.00,VWS V14.01,2013-11-15 05:11:00,
2013-11-15 00:12:00,43.1,22.7,30.40,SW,215,2.0,2.0,44,0.00,,---,0.00,VWS V14.01,2013-11-15 05:12:00,
2013-11-15 00:13:00,43.1,22.7,30.40,WSW,238,0.0,2.0,44,0.00,,---,0.00,VWS V14.01,2013-11-15 05:13:00,
2013-11-15 00:14:00,43.1,22.7,30.40,WSW,249,3.0,3.0,44,0.00,,---,0.00,VWS V14.01,2013-11-15 05:14:00,
2013-11-15 00:15:00,43.1,22.7,30.40,West,259,2.0,3.0,44,0.00,,---,0.00,VWS V14.01,2013-11-15 05:15:00,
2013-11-15 00:16:00,43.1,22.7,30.40,WSW,257,2.0,2.0,44,0.00,,---,0.00,VWS V14.01,2013-11-15 05:16:00,
2013-11-15 00:17:00,43.2,22.8,30.40,SW,227,3.0,3.0,44,0.00,,---,0.00,VWS V14.01,2013-11-15 05:17:00,
2013-11-15 00:18:00,43.2,22.8,30.40,WSW,257,1.0,3.0,44,0.00,,---,0.00,VWS V14.01,2013-11-15 05:18:00,
2013-11-15 00:19:00,43.2,22.8,30.40,WSW,253,2.0,2.0,44,0.00,,---,0.00,VWS V14.01,2013-11-15 05:19:00,
2013-11-15 00:20:00,43.2,22.8,30.40,WSW,246,1.0,2.0,44,0.00,,---,0.00,VWS V14.01,2013-11-15 05:20:00,
2013-11-15 00:21:00,43.2,22.8,30.40,West,263,1.0,1.0,44,0.00,,---,0.00,VWS V14.01,2013-11-15 05:21:00,
2013-11-15 00:22:00,43.2,23.3,30.40,SW,230,2.0,2.0,45,0.00,,---,0.00,VWS V14.01,2013-11-15 05:22:00,
2013-11-15 00:23:00,43.2,22.8,30.40,WSW,237,0.0,2.0,44,0.00,,---,0.00,VWS V14.01,2013-11-15 05:23:00,
2013-11-15 00:24:00,43.2,23.3,30.40,WSW,257,1.0,2.0,45,0.00,,---,0.00,VWS V14.01,2013-11-15 05:24:00,
2013-11-15 00:25:00,43.2,22.8,30.40,WSW,249,2.0,4.0,44,0.00,,---,0.00,VWS V14.01,2013-11-15 05:25:00,
2013-11-15 00:26:00,43.2,23.3,30.40,West,267,1.0,1.0,45,0.00,,---,0.00,VWS V14.01,2013-11-15 05:26:00,
2013-11-15 00:27:00,43.2,23.3,30.40,WSW,250,1.0,2.0,45,0.00,,---,0.00,VWS V14.01,2013-11-15 05:27:00,
2013-11-15 00:28:00,43.2,22.8,30.40,WSW,250,1.0,3.0,44,0.00,,---,0.00,VWS V14.01,2013-11-15 05:28:00,
2013-11-15 00:29:00,43.2,23.3,30.40,WSW,250,0.0,1.0,45,0.00,,---,0.00,VWS V14.01,2013-11-15 05:29:00,
2013-11-15 00:30:00,43.1,23.2,30.40,WSW,250,1.0,1.0,45,0.00,,---,0.00,VWS V14.01,2013-11-15 05:30:00,
2013-11-15 00:31:00,43.1,23.2,30.40,WSW,240,1.0,2.0,45,0.00,,---,0.00,VWS V14.01,2013-11-15 05:31:00,
2013-11-15 00:32:00,43.0,23.1,30.40,WSW,240,2.0,2.0,45,0.00,,---,0.00,VWS V14.01,2013-11-15 05:32:00,
2013-11-15 00:33:00,43.0,23.1,30.40,WSW,252,1.0,2.0,45,0.00,,---,0.00,VWS V14.01,2013-11-15 05:33:00,
2013-11-15 00:34:00,42.9,23.0,30.40,WSW,238,1.0,2.0,45,0.00,,---,0.00,VWS V14.01,2013-11-15 05:34:00,
2013-11-15 00:35:00,42.9,23.0,30.40,WSW,238,1.0,1.0,45,0.00,,---,0.00,VWS V14.01,2013-11-15 05:35:00,
2013-11-15 00:36:00,42.9,23.0,30.39,West,267,1.0,1.0,45,0.00,,---,0.00,VWS V14.01,2013-11-15 05:36:00,
2013-11-15 00:37:00,42.8,23.0,30.39,West,267,1.0,1.0,45,0.00,,---,0.00,VWS V14.01,2013-11-15 05:37:00,
2013-11-15 00:38:00,42.8,23.0,30.40,SW,215,1.0,2.0,45,0.00,,---,0.00,VWS V14.01,2013-11-15 05:38:00,
2013-11-15 00:39:00,42.8,23.0,30.39,WSW,238,2.0,2.0,45,0.00,,---,0.00,VWS V14.01,2013-11-15 05:39:00,
2013-11-15 00:40:00,42.8,23.0,30.40,WSW,250,2.0,2.0,45,0.00,,---,0.00,VWS V14.01,2013-11-15 05:40:00,
2013-11-15 00:41:00,42.9,23.0,30.40,WSW,250,1.0,1.0,45,0.00,,---,0.00,VWS V14.01,2013-11-15 05:41:00,
2013-11-15 00:42:00,42.9,23.6,30.40,SW,233,1.0,1.0,46,0.00,,---,0.00,VWS V14.01,2013-11-15 05:42:00,
2013-11-15 00:43:00,42.9,23.6,30.39,West,267,1.0,3.0,46,0.00,,---,0.00,VWS V14.01,2013-11-15 05:43:00,
2013-11-15 00:44:00,42.9,23.6,30.39,WSW,245,1.0,2.0,46,0.00,,---,0.00,VWS V14.01,2013-11-15 05:44:00,
2013-11-15 00:45:00,43.0,23.6,30.39,WSW,242,2.0,2.0,46,0.00,,---,0.00,VWS V14.01,2013-11-15 05:45:00,
2013-11-15 00:46:00,43.0,23.6,30.39,West,261,1.0,1.0,46,0.00,,---,0.00,VWS V14.01,2013-11-15 05:46:00,
2013-11-15 00:47:00,43.0,23.6,30.39,WSW,244,2.0,2.0,46,0.00,,---,0.00,VWS V14.01,2013-11-15 05:47:00,
2013-11-15 00:48:00,43.0,23.6,30.39,West,275,1.0,4.0,46,0.00,,---,0.00,VWS V14.01,2013-11-15 05:48:00,
2013-11-15 00:49:00,43.0,23.6,30.39,SW,230,2.0,2.0,46,0.00,,---,0.00,VWS V14.01,2013-11-15 05:49:00,
2013-11-15 00:50:00,43.1,23.7,30.39,WSW,254,1.0,3.0,46,0.00,,---,0.00,VWS V14.01,2013-11-15 05:50:00,
2013-11-15 00:51:00,43.1,23.7,30.39,WSW,254,1.0,1.0,46,0.00,,---,0.00,VWS V14.01,2013-11-15 05:51:00,
2013-11-15 00:52:00,43.1,23.7,30.39,West,270,0.0,2.0,46,0.00,,---,0.00,VWS V14.01,2013-11-15 05:52:00,
2013-11-15 00:53:00,43.0,23.6,30.39,West,260,2.0,2.0,46,0.00,,---,0.00,VWS V14.01,2013-11-15 05:53:00,
2013-11-15 00:54:00,43.0,23.6,30.39,WSW,242,0.0,2.0,46,0.00,,---,0.00,VWS V14.01,2013-11-15 05:54:00,
2013-11-15 00:55:00,43.0,23.6,30.39,West,262,1.0,2.0,46,0.00,,---,0.00,VWS V14.01,2013-11-15 05:55:00,
2013-11-15 00:56:00,42.9,23.6,30.39,WSW,244,2.0,2.0,46,0.00,,---,0.00,VWS V14.01,2013-11-15 05:56:00,
2013-11-15 00:57:00,42.9,23.6,30.39,WSW,250,2.0,2.0,46,0.00,,---,0.00,VWS V14.01,2013-11-15 05:57:00,
2013-11-15 00:58:00,42.9,23.6,30.39,WSW,247,2.0,3.0,46,0.00,,---,0.00,VWS V14.01,2013-11-15 05:58:00,
2013-11-15 00:59:00,43.0,23.6,30.39,WSW,248,1.0,2.0,46,0.00,,---,0.00,VWS V14.01,2013-11-15 05:59:00,
2013-11-15 01:00:00,42.9,23.6,30.39,WSW,256,1.0,2.0,46,0.00,,---,0.00,VWS V14.01,2013-11-15 06:00:00,
2013-11-15 01:01:00,42.9,24.1,30.39,SW,233,2.0,2.0,47,0.00,,---,0.00,VWS V14.01,2013-11-15 06:01:00,
2013-11-15 01:02:00,42.9,24.1,30.39,WSW,250,1.0,2.0,47,0.00,,---,0.00,VWS V14.01,2013-11-15 06:02:00,
2013-11-15 01:03:00,42.9,24.1,30.39,SW,229,2.0,2.0,47,0.00,,---,0.00,VWS V14.01,2013-11-15 06:03:00,
2013-11-15 01:04:00,42.9,24.1,30.39,SW,222,1.0,2.0,47,0.00,,---,0.00,VWS V14.01,2013-11-15 06:04:00,
2013-11-15 01:05:00,43.0,24.2,30.39,SW,233,1.0,1.0,47,0.00,,---,0.00,VWS V14.01,2013-11-15 06:05:00,
2013-11-15 01:06:00,42.9,24.1,30.39,SW,233,2.0,2.0,47,0.00,,---,0.00,VWS V14.01,2013-11-15 06:06:00,
2013-11-15 01:07:00,42.9,24.1,30.39,SW,230,0.0,2.0,47,0.00,,---,0.00,VWS V14.01,2013-11-15 06:07:00,
2013-11-15 01:08:00,42.9,24.1,30.39,WSW,242,2.0,3.0,47,0.00,,---,0.00,VWS V14.01,2013-11-15 06:08:00,
2013-11-15 01:09:00,42.9,24.1,30.39,WSW,238,0.0,2.0,47,0.00,,---,0.00,VWS V14.01,2013-11-15 06:09:00,
2013-11-15 01:10:00,42.9,24.1,30.39,WSW,238,0.0,1.0,47,0.00,,---,0.00,VWS V14.01,2013-11-15 06:10:00,
2013-11-15 01:11:00,42.8,24.0,30.39,WSW,247,1.0,1.0,47,0.00,,---,0.00,VWS V14.01,2013-11-15 06:11:00,
2013-11-15 01:12:00,42.8,24.5,30.39,SW,214,0.0,1.0,48,0.00,,---,0.00,VWS V14.01,2013-11-15 06:12:00,
2013-11-15 01:13:00,42.8,24.5,30.39,SW,214,0.0,0.0,48,0.00,,---,0.00,VWS V14.01,2013-11-15 06:13:00,
2013-11-15 01:14:00,42.7,24.4,30.39,SW,214,0.0,0.0,48,0.00,,---,0.00,VWS V14.01,2013-11-15 06:14:00,
2013-11-15 01:15:00,42.7,24.4,30.39,SW,214,0.0,0.0,48,0.00,,---,0.00,VWS V14.01,2013-11-15 06:15:00,
2013-11-15 01:16:00,42.6,24.3,30.39,West,260,3.0,3.0,48,0.00,,---,0.00,VWS V14.01,2013-11-15 06:16:00,
2013-11-15 01:17:00,42.5,24.2,30.39,West,260,0.0,3.0,48,0.00,,---,0.00,VWS V14.01,2013-11-15 06:17:00,
2013-11-15 01:18:00,42.5,24.2,30.39,West,260,0.0,0.0,48,0.00,,---,0.00,VWS V14.01,2013-11-15 06:18:00,
2013-11-15 01:19:00,42.5,24.2,30.39,West,260,0.0,1.0,48,0.00,,---,0.00,VWS V14.01,2013-11-15 06:19:00,
2013-11-15 01:20:00,42.4,24.1,30.39,West,260,0.0,0.0,48,0.00,,---,0.00,VWS V14.01,2013-11-15 06:20:00,
2013-11-15 01:21:00,42.4,24.1,30.39,West,260,0.0,0.0,48,0.00,,---,0.00,VWS V14.01,2013-11-15 06:21:00,
2013-11-15 01:22:00,42.3,24.0,30.39,West,260,0.0,0.0,48,0.00,,---,0.00,VWS V14.01,2013-11-15 06:22:00,
2013-11-15 01:23:00,42.3,24.0,30.39,WSW,256,0.0,1.0,48,0.00,,---,0.00,VWS V14.01,2013-11-15 06:23:00,
2013-11-15 01:24:00,42.2,24.4,30.39,WSW,256,0.0,0.0,49,0.00,,---,0.00,VWS V14.01,2013-11-15 06:24:00,
2013-11-15 01:25:00,42.2,24.4,30.39,WSW,256,0.0,0.0,49,0.00,,---,0.00,VWS V14.01,2013-11-15 06:25:00,
2013-11-15 01:26:00,42.1,24.3,30.38,WSW,248,0.0,0.0,49,0.00,,---,0.00,VWS V14.01,2013-11-15 06:26:00,
2013-11-15 01:27:00,42.0,24.2,30.38,WSW,247,0.0,0.0,49,0.00,,---,0.00,VWS V14.01,2013-11-15 06:27:00,
2013-11-15 01:28:00,41.9,24.1,30.38,WSW,248,0.0,0.0,49,0.00,,---,0.00,VWS V14.01,2013-11-15 06:28:00,
2013-11-15 01:29:00,41.8,24.1,30.38,WSW,247,0.0,0.0,49,0.00,,---,0.00,VWS V14.01,2013-11-15 06:29:00,
2013-11-15 01:31:00,41.7,24.5,30.38,WSW,247,0.0,0.0,50,0.00,,---,0.00,VWS V14.01,2013-11-15 06:31:00,
2013-11-15 01:32:00,41.6,24.4,30.38,WSW,248,0.0,1.0,50,0.00,,---,0.00,VWS V14.01,2013-11-15 06:32:00,
2013-11-15 01:34:00,41.5,24.3,30.38,WSW,240,0.0,1.0,50,0.00,,---,0.00,VWS V14.01,2013-11-15 06:34:00,
2013-11-15 01:35:00,41.5,24.3,30.38,WSW,240,0.0,1.0,50,0.00,,---,0.00,VWS V14.01,2013-11-15 06:35:00,
2013-11-15 01:36:00,41.5,24.3,30.38,WSW,240,1.0,1.0,50,0.00,,---,0.00,VWS V14.01,2013-11-15 06:36:00,
2013-11-15 01:37:00,41.4,24.2,30.38,SW,232,0.0,1.0,50,0.00,,---,0.00,VWS V14.01,2013-11-15 06:37:00,
2013-11-15 01:38:00,41.4,24.2,30.38,SW,232,0.0,1.0,50,0.00,,---,0.00,VWS V14.01,2013-11-15 06:38:00,
2013-11-15 01:39:00,41.3,24.1,30.38,SW,232,1.0,1.0,50,0.00,,---,0.00,VWS V14.01,2013-11-15 06:39:00,
2013-11-15 01:40:00,41.3,24.1,30.38,SW,230,1.0,1.0,50,0.00,,---,0.00,VWS V14.01,2013-11-15 06:40:00,
2013-11-15 01:41:00,41.2,24.0,30.38,SW,232,1.0,1.0,50,0.00,,---,0.00,VWS V14.01,2013-11-15 06:41:00,
2013-11-15 01:42:00,41.2,24.0,30.38,SW,232,0.0,1.0,50,0.00,,---,0.00,VWS V14.01,2013-11-15 06:42:00,
2013-11-15 01:44:00,41.1,24.4,30.38,SW,232,0.0,1.0,51,0.00,,---,0.00,VWS V14.01,2013-11-15 06:44:00,
2013-11-15 01:45:00,41.1,23.9,30.38,SW,230,1.0,1.0,50,0.00,,---,0.00,VWS V14.01,2013-11-15 06:45:00,
2013-11-15 01:46:00,41.0,24.3,30.38,SW,231,1.0,1.0,51,0.00,,---,0.00,VWS V14.01,2013-11-15 06:46:00,
2013-11-15 01:47:00,40.9,24.2,30.38,SW,230,0.0,1.0,51,0.00,,---,0.00,VWS V14.01,2013-11-15 06:47:00,
2013-11-15 01:48:00,40.9,24.2,30.38,SW,230,0.0,1.0,51,0.00,,---,0.00,VWS V14.01,2013-11-15 06:48:00,
2013-11-15 01:49:00,40.8,24.1,30.38,SW,230,0.0,0.0,51,0.00,,---,0.00,VWS V14.01,2013-11-15 06:49:00,
2013-11-15 01:50:00,40.8,24.1,30.38,SW,232,0.0,0.0,51,0.00,,---,0.00,VWS V14.01,2013-11-15 06:50:00,
2013-11-15 01:51:00,40.7,24.0,30.38,SW,230,0.0,0.0,51,0.00,,---,0.00,VWS V14.01,2013-11-15 06:51:00,
2013-11-15 01:52:00,40.6,23.9,30.38,SW,231,0.0,0.0,51,0.00,,---,0.00,VWS V14.01,2013-11-15 06:52:00,
2013-11-15 01:53:00,40.5,23.8,30.39,SW,232,0.0,0.0,51,0.00,,---,0.00,VWS V14.01,2013-11-15 06:53:00,
2013-11-15 01:54:00,40.4,23.7,30.39,SW,231,0.0,0.0,51,0.00,,---,0.00,VWS V14.01,2013-11-15 06:54:00,
2013-11-15 01:55:00,40.4,24.2,30.39,SW,232,0.0,0.0,52,0.00,,---,0.00,VWS V14.01,2013-11-15 06:55:00,
2013-11-15 01:56:00,40.3,24.1,30.39,SW,232,0.0,0.0,52,0.00,,---,0.00,VWS V14.01,2013-11-15 06:56:00,
2013-11-15 01:57:00,40.2,24.0,30.39,SW,232,0.0,0.0,52,0.00,,---,0.00,VWS V14.01,2013-11-15 06:57:00,
2013-11-15 01:58:00,40.2,24.0,30.39,SW,230,0.0,0.0,52,0.00,,---,0.00,VWS V14.01,2013-11-15 06:58:00,
2013-11-15 01:59:00,40.1,23.9,30.39,SW,232,0.0,0.0,52,0.00,,---,0.00,VWS V14.01,2013-11-15 06:59:00,
2013-11-15 02:00:00,40.1,23.9,30.39,SW,231,0.0,0.0,52,0.00,,---,0.00,VWS V14.01,2013-11-15 07:00:00,
2013-11-15 02:01:00,40.0,24.3,30.39,SW,231,0.0,0.0,53,0.00,,---,0.00,VWS V14.01,2013-11-15 07:01:00,
2013-11-15 02:02:00,40.0,24.3,30.39,SW,231,0.0,0.0,53,0.00,,---,0.00,VWS V14.01,2013-11-15 07:02:00,
2013-11-15 02:03:00,39.9,24.2,30.39,SW,221,0.0,1.0,53,0.00,,---,0.00,VWS V14.01,2013-11-15 07:03:00,
2013-11-15 02:04:00,39.8,24.1,30.39,SW,221,0.0,0.0,53,0.00,,---,0.00,VWS V14.01,2013-11-15 07:04:00,
2013-11-15 02:05:00,39.7,24.0,30.39,SW,221,0.0,1.0,53,0.00,,---,0.00,VWS V14.01,2013-11-15 07:05:00,
2013-11-15 02:06:00,39.7,24.0,30.39,SW,221,1.0,1.0,53,0.00,,---,0.00,VWS V14.01,2013-11-15 07:06:00,
2013-11-15 02:07:00,39.7,24.0,30.38,SSE,168,1.0,1.0,53,0.00,,---,0.00,VWS V14.01,2013-11-15 07:07:00,
2013-11-15 02:08:00,39.7,24.0,30.38,SSE,168,2.0,2.0,53,0.00,,---,0.00,VWS V14.01,2013-11-15 07:08:00,
2013-11-15 02:09:00,39.8,24.1,30.38,South,169,1.0,2.0,53,0.00,,---,0.00,VWS V14.01,2013-11-15 07:09:00,
2013-11-15 02:10:00,39.8,24.1,30.38,South,169,1.0,1.0,53,0.00,,---,0.00,VWS V14.01,2013-11-15 07:10:00,
2013-11-15 02:11:00,39.9,24.2,30.38,South,170,0.0,1.0,53,0.00,,---,0.00,VWS V14.01,2013-11-15 07:11:00,
2013-11-15 02:12:00,39.9,24.2,30.38,South,169,0.0,1.0,53,0.00,,---,0.00,VWS V14.01,2013-11-15 07:12:00,
2013-11-15 02:13:00,39.8,24.1,30.38,South,169,0.0,0.0,53,0.00,,---,0.00,VWS V14.01,2013-11-15 07:13:00,
2013-11-15 02:14:00,39.8,24.1,30.38,SSE,168,0.0,0.0,53,0.00,,---,0.00,VWS V14.01,2013-11-15 07:14:00,
2013-11-15 02:15:00,39.7,24.0,30.38,South,169,0.0,0.0,53,0.00,,---,0.00,VWS V14.01,2013-11-15 07:15:00,
2013-11-15 02:16:00,39.7,24.0,30.38,South,169,0.0,0.0,53,0.00,,---,0.00,VWS V14.01,2013-11-15 07:16:00,
2013-11-15 02:17:00,39.6,23.9,30.38,South,169,0.0,0.0,53,0.00,,---,0.00,VWS V14.01,2013-11-15 07:17:00,
2013-11-15 02:18:00,39.5,24.2,30.38,South,169,0.0,0.0,54,0.00,,---,0.00,VWS V14.01,2013-11-15 07:18:00,
2013-11-15 02:19:00,39.5,23.8,30.38,South,169,0.0,0.0,53,0.00,,---,0.00,VWS V14.01,2013-11-15 07:19:00,
2013-11-15 02:20:00,39.3,24.1,30.39,South,169,0.0,0.0,54,0.00,,---,0.00,VWS V14.01,2013-11-15 07:20:00,
2013-11-15 02:21:00,39.3,24.1,30.39,South,169,0.0,0.0,54,0.00,,---,0.00,VWS V14.01,2013-11-15 07:21:00,
2013-11-15 02:22:00,39.1,23.9,30.39,South,169,0.0,0.0,54,0.00,,---,0.00,VWS V14.01,2013-11-15 07:22:00,
2013-11-15 02:23:00,39.1,23.9,30.39,South,169,0.0,0.0,54,0.00,,---,0.00,VWS V14.01,2013-11-15 07:23:00,
2013-11-15 02:24:00,38.9,23.7,30.39,South,169,0.0,0.0,54,0.00,,---,0.00,VWS V14.01,2013-11-15 07:24:00,
2013-11-15 02:25:00,38.7,23.9,30.39,SSE,168,0.0,0.0,55,0.00,,---,0.00,VWS V14.01,2013-11-15 07:25:00,
2013-11-15 02:26:00,38.7,23.9,30.39,SSE,168,0.0,0.0,55,0.00,,---,0.00,VWS V14.01,2013-11-15 07:26:00,
2013-11-15 02:27:00,38.6,23.8,30.39,South,170,0.0,0.0,55,0.00,,---,0.00,VWS V14.01,2013-11-15 07:27:00,
2013-11-15 02:28:00,38.6,23.8,30.38,South,169,0.0,0.0,55,0.00,,---,0.00,VWS V14.01,2013-11-15 07:28:00,
2013-11-15 02:29:00,38.6,24.3,30.39,South,169,0.0,0.0,56,0.00,,---,0.00,VWS V14.01,2013-11-15 07:29:00,
2013-11-15 02:30:00,38.7,24.4,30.38,South,169,0.0,0.0,56,0.00,,---,0.00,VWS V14.01,2013-11-15 07:30:00,
2013-11-15 02:31:00,38.7,24.4,30.38,South,170,0.0,0.0,56,0.00,,---,0.00,VWS V14.01,2013-11-15 07:31:00,
2013-11-15 02:32:00,38.7,24.4,30.38,South,169,0.0,0.0,56,0.00,,---,0.00,VWS V14.01,2013-11-15 07:32:00,
2013-11-15 02:33:00,38.7,24.4,30.38,South,170,0.0,0.0,56,0.00,,---,0.00,VWS V14.01,2013-11-15 07:33:00,
2013-11-15 02:34:00,38.7,24.4,30.38,South,169,0.0,0.0,56,0.00,,---,0.00,VWS V14.01,2013-11-15 07:34:00,
2013-11-15 02:35:00,38.7,23.9,30.38,South,169,0.0,0.0,55,0.00,,---,0.00,VWS V14.01,2013-11-15 07:35:00,
2013-11-15 02:36:00,38.7,23.9,30.38,South,169,0.0,0.0,55,0.00,,---,0.00,VWS V14.01,2013-11-15 07:36:00,
2013-11-15 02:37:00,38.7,23.9,30.38,South,169,0.0,0.0,55,0.00,,---,0.00,VWS V14.01,2013-11-15 07:37:00,
2013-11-15 02:38:00,38.6,23.8,30.38,South,169,0.0,0.0,55,0.00,,---,0.00,VWS V14.01,2013-11-15 07:38:00,
2013-11-15 02:39:00,38.6,24.3,30.38,South,169,0.0,0.0,56,0.00,,---,0.00,VWS V14.01,2013-11-15 07:39:00,
2013-11-15 02:40:00,38.7,24.4,30.38,South,170,1.0,1.0,56,0.00,,---,0.00,VWS V14.01,2013-11-15 07:40:00,
2013-11-15 02:41:00,38.7,24.4,30.38,South,169,1.0,1.0,56,0.00,,---,0.00,VWS V14.01,2013-11-15 07:41:00,
2013-11-15 02:42:00,38.7,24.4,30.38,South,169,0.0,1.0,56,0.00,,---,0.00,VWS V14.01,2013-11-15 07:42:00,
2013-11-15 02:43:00,38.8,24.5,30.38,South,169,0.0,1.0,56,0.00,,---,0.00,VWS V14.01,2013-11-15 07:43:00,
2013-11-15 02:44:00,38.8,24.5,30.38,South,169,0.0,0.0,56,0.00,,---,0.00,VWS V14.01,2013-11-15 07:44:00,
2013-11-15 02:45:00,38.9,24.6,30.38,South,169,0.0,0.0,56,0.00,,---,0.00,VWS V14.01,2013-11-15 07:45:00,
2013-11-15 02:46:00,38.9,24.6,30.38,South,169,0.0,0.0,56,0.00,,---,0.00,VWS V14.01,2013-11-15 07:46:00,
2013-11-15 02:47:00,38.9,24.1,30.38,South,170,1.0,1.0,55,0.00,,---,0.00,VWS V14.01,2013-11-15 07:47:00,
2013-11-15 02:48:00,38.9,24.1,30.38,South,169,1.0,1.0,55,0.00,,---,0.00,VWS V14.01,2013-11-15 07:48:00,
2013-11-15 02:49:00,38.8,24.5,30.38,South,186,1.0,1.0,56,0.00,,---,0.00,VWS V14.01,2013-11-15 07:49:00,
2013-11-15 02:50:00,38.8,24.5,30.38,South,187,1.0,1.0,56,0.00,,---,0.00,VWS V14.01,2013-11-15 07:50:00,
2013-11-15 02:51:00,38.8,24.5,30.38,South,187,1.0,1.0,56,0.00,,---,0.00,VWS V14.01,2013-11-15 07:51:00,
2013-11-15 02:52:00,38.8,24.5,30.38,South,187,1.0,1.0,56,0.00,,---,0.00,VWS V14.01,2013-11-15 07:52:00,
2013-11-15 02:53:00,38.8,24.5,30.38,South,186,0.0,1.0,56,0.00,,---,0.00,VWS V14.01,2013-11-15 07:53:00,
2013-11-15 02:54:00,38.7,24.4,30.38,South,188,0.0,1.0,56,0.00,,---,0.00,VWS V14.01,2013-11-15 07:54:00,
2013-11-15 02:55:00,38.7,24.4,30.38,South,187,0.0,0.0,56,0.00,,---,0.00,VWS V14.01,2013-11-15 07:55:00,
2013-11-15 02:56:00,38.7,24.4,30.38,South,187,0.0,0.0,56,0.00,,---,0.00,VWS V14.01,2013-11-15 07:56:00,
2013-11-15 02:57:00,38.6,24.3,30.38,South,187,0.0,0.0,56,0.00,,---,0.00,VWS V14.01,2013-11-15 07:57:00,
2013-11-15 02:58:00,38.6,24.3,30.38,South,187,0.0,0.0,56,0.00,,---,0.00,VWS V14.01,2013-11-15 07:58:00,
2013-11-15 02:59:00,38.6,24.3,30.38,South,187,0.0,0.0,56,0.00,,---,0.00,VWS V14.01,2013-11-15 07:59:00,
2013-11-15 03:00:00,38.5,24.2,30.38,South,187,0.0,0.0,56,0.00,,---,0.00,VWS V14.01,2013-11-15 08:00:00,
2013-11-15 03:01:00,38.5,24.2,30.38,South,186,0.0,0.0,56,0.00,,---,0.00,VWS V14.01,2013-11-15 08:01:00,
2013-11-15 03:02:00,38.4,24.1,30.38,South,187,0.0,0.0,56,0.00,,---,0.00,VWS V14.01,2013-11-15 08:02:00,
2013-11-15 03:03:00,38.4,24.1,30.38,South,187,0.0,0.0,56,0.00,,---,0.00,VWS V14.01,2013-11-15 08:03:00,
2013-11-15 03:04:00,38.4,24.5,30.38,South,187,0.0,0.0,57,0.00,,---,0.00,VWS V14.01,2013-11-15 08:04:00,
2013-11-15 03:05:00,38.3,24.8,30.38,South,187,0.0,0.0,58,0.00,,---,0.00,VWS V14.01,2013-11-15 08:05:00,
2013-11-15 03:06:00,38.2,24.7,30.38,South,187,0.0,0.0,58,0.00,,---,0.00,VWS V14.01,2013-11-15 08:06:00,
2013-11-15 03:07:00,38.1,24.6,30.38,South,187,0.0,0.0,58,0.00,,---,0.00,VWS V14.01,2013-11-15 08:07:00,
2013-11-15 03:08:00,38.0,24.5,30.38,South,187,0.0,0.0,58,0.00,,---,0.00,VWS V14.01,2013-11-15 08:08:00,
2013-11-15 03:09:00,37.9,24.0,30.38,South,187,0.0,0.0,57,0.00,,---,0.00,VWS V14.01,2013-11-15 08:09:00,
2013-11-15 03:10:00,37.8,24.4,30.37,South,187,0.0,0.0,58,0.00,,---,0.00,VWS V14.01,2013-11-15 08:10:00,
2013-11-15 03:11:00,37.8,24.4,30.37,South,187,0.0,0.0,58,0.00,,---,0.00,VWS V14.01,2013-11-15 08:11:00,
2013-11-15 03:12:00,37.9,24.5,30.37,South,187,0.0,0.0,58,0.00,,---,0.00,VWS V14.01,2013-11-15 08:12:00,
2013-11-15 03:13:00,37.9,24.5,30.37,South,187,0.0,0.0,58,0.00,,---,0.00,VWS V14.01,2013-11-15 08:13:00,
2013-11-15 03:14:00,38.0,24.5,30.36,South,187,0.0,0.0,58,0.00,,---,0.00,VWS V14.01,2013-11-15 08:14:00,
2013-11-15 03:15:00,38.3,24.4,30.36,South,186,1.0,1.0,57,0.00,,---,0.00,VWS V14.01,2013-11-15 08:15:00,
2013-11-15 03:16:00,38.3,24.4,30.36,South,186,1.0,1.0,57,0.00,,---,0.00,VWS V14.01,2013-11-15 08:16:00,
2013-11-15 03:17:00,38.4,24.5,30.36,South,186,1.0,1.0,57,0.00,,---,0.00,VWS V14.01,2013-11-15 08:17:00,
2013-11-15 03:18:00,38.5,24.6,30.36,South,186,1.0,1.0,57,0.00,,---,0.00,VWS V14.01,2013-11-15 08:18:00,
2013-11-15 03:19:00,38.6,24.3,30.36,South,186,0.0,1.0,56,0.00,,---,0.00,VWS V14.01,2013-11-15 08:19:00,
2013-11-15 03:20:00,38.7,24.4,30.36,South,186,1.0,1.0,56,0.00,,---,0.00,VWS V14.01,2013-11-15 08:20:00,
2013-11-15 03:21:00,38.6,24.3,30.36,South,186,0.0,1.0,56,0.00,,---,0.00,VWS V14.01,2013-11-15 08:21:00,
2013-11-15 03:22:00,38.6,24.3,30.36,South,186,0.0,1.0,56,0.00,,---,0.00,VWS V14.01,2013-11-15 08:22:00,
2013-11-15 03:23:00,38.6,24.3,30.37,South,186,0.0,1.0,56,0.00,,---,0.00,VWS V14.01,2013-11-15 08:23:00,
2013-11-15 03:24:00,38.6,24.7,30.36,South,186,1.0,1.0,57,0.00,,---,0.00,VWS V14.01,2013-11-15 08:24:00,
2013-11-15 03:25:00,38.5,24.6,30.36,South,186,1.0,1.0,57,0.00,,---,0.00,VWS V14.01,2013-11-15 08:25:00,
2013-11-15 03:26:00,38.5,24.6,30.36,South,186,1.0,1.0,57,0.00,,---,0.00,VWS V14.01,2013-11-15 08:26:00,
2013-11-15 03:27:00,38.4,24.5,30.36,South,186,0.0,1.0,57,0.00,,---,0.00,VWS V14.01,2013-11-15 08:27:00,
2013-11-15 03:28:00,38.4,24.5,30.36,South,186,1.0,1.0,57,0.00,,---,0.00,VWS V14.01,2013-11-15 08:28:00,
2013-11-15 03:29:00,38.4,24.5,30.36,South,186,0.0,1.0,57,0.00,,---,0.00,VWS V14.01,2013-11-15 08:29:00,
2013-11-15 03:30:00,38.3,24.4,30.36,South,186,0.0,0.0,57,0.00,,---,0.00,VWS V14.01,2013-11-15 08:30:00,
2013-11-15 03:31:00,38.3,24.4,30.36,South,186,0.0,0.0,57,0.00,,---,0.00,VWS V14.01,2013-11-15 08:31:00,
2013-11-15 03:32:00,38.2,24.3,30.36,South,186,0.0,0.0,57,0.00,,---,0.00,VWS V14.01,2013-11-15 08:32:00,
2013-11-15 03:33:00,38.1,24.6,30.36,South,186,0.0,0.0,58,0.00,,---,0.00,VWS V14.01,2013-11-15 08:33:00,
2013-11-15 03:34:00,38.1,24.6,30.36,South,186,0.0,1.0,58,0.00,,---,0.00,VWS V14.01,2013-11-15 08:34:00,
2013-11-15 03:35:00,38.1,24.6,30.37,South,186,0.0,1.0,58,0.00,,---,0.00,VWS V14.01,2013-11-15 08:35:00,
2013-11-15 03:36:00,38.1,24.6,30.37,South,186,0.0,1.0,58,0.00,,---,0.00,VWS V14.01,2013-11-15 08:36:00,
2013-11-15 03:37:00,38.0,24.5,30.37,South,186,0.0,1.0,58,0.00,,---,0.00,VWS V14.01,2013-11-15 08:37:00,
2013-11-15 03:38:00,38.0,25.0,30.37,South,186,0.0,1.0,59,0.00,,---,0.00,VWS V14.01,2013-11-15 08:38:00,
2013-11-15 03:39:00,37.9,24.9,30.37,South,186,1.0,1.0,59,0.00,,---,0.00,VWS V14.01,2013-11-15 08:39:00,
2013-11-15 03:40:00,37.7,25.1,30.37,SSW,202,0.0,1.0,60,0.00,,---,0.00,VWS V14.01,2013-11-15 08:40:00,
2013-11-15 03:41:00,37.6,25.0,30.37,SSW,201,0.0,1.0,60,0.00,,---,0.00,VWS V14.01,2013-11-15 08:41:00,
2013-11-15 03:42:00,37.5,25.3,30.37,SSW,202,0.0,0.0,61,0.00,,---,0.00,VWS V14.01,2013-11-15 08:42:00,
2013-11-15 03:43:00,37.4,25.2,30.37,SSW,202,0.0,1.0,61,0.00,,---,0.00,VWS V14.01,2013-11-15 08:43:00,
2013-11-15 03:44:00,37.3,25.1,30.38,SSW,202,0.0,1.0,61,0.00,,---,0.00,VWS V14.01,2013-11-15 08:44:00,
2013-11-15 03:45:00,37.2,25.0,30.38,SW,223,0.0,1.0,61,0.00,,---,0.00,VWS V14.01,2013-11-15 08:45:00,
2013-11-15 03:46:00,37.2,25.0,30.38,SW,223,1.0,1.0,61,0.00,,---,0.00,VWS V14.01,2013-11-15 08:46:00,
2013-11-15 03:47:00,37.1,24.9,30.38,SW,223,0.0,1.0,61,0.00,,---,0.00,VWS V14.01,2013-11-15 08:47:00,
2013-11-15 03:48:00,37.1,24.9,30.38,SW,230,0.0,2.0,61,0.00,,---,0.00,VWS V14.01,2013-11-15 08:48:00,
2013-11-15 03:49:00,37.1,24.9,30.38,WSW,245,1.0,2.0,61,0.00,,---,0.00,VWS V14.01,2013-11-15 08:49:00,
2013-11-15 03:50:00,37.1,24.5,30.38,WSW,245,1.0,1.0,60,0.00,,---,0.00,VWS V14.01,2013-11-15 08:50:00,
2013-11-15 03:51:00,37.1,24.5,30.38,SW,232,2.0,2.0,60,0.00,,---,0.00,VWS V14.01,2013-11-15 08:51:00,
2013-11-15 03:52:00,37.1,24.5,30.38,SW,233,1.0,2.0,60,0.00,,---,0.00,VWS V14.01,2013-11-15 08:52:00,
2013-11-15 03:53:00,37.2,24.6,30.38,SW,233,1.0,1.0,60,0.00,,---,0.00,VWS V14.01,2013-11-15 08:53:00,
2013-11-15 03:54:00,37.2,25.0,30.38,SW,232,1.0,1.0,61,0.00,,---,0.00,VWS V14.01,2013-11-15 08:54:00,
2013-11-15 03:55:00,37.2,24.6,30.38,SW,233,1.0,1.0,60,0.00,,---,0.00,VWS V14.01,2013-11-15 08:55:00,
2013-11-15 03:56:00,37.3,24.7,30.38,SW,233,1.0,1.0,60,0.00,,---,0.00,VWS V14.01,2013-11-15 08:56:00,
2013-11-15 03:57:00,37.3,25.1,30.38,SW,233,0.0,1.0,61,0.00,,---,0.00,VWS V14.01,2013-11-15 08:57:00,
2013-11-15 03:58:00,37.3,25.1,30.39,WSW,238,1.0,2.0,61,0.00,,---,0.00,VWS V14.01,2013-11-15 08:58:00,
2013-11-15 03:59:00,37.4,25.2,30.39,SW,232,3.0,3.0,61,0.00,,---,0.00,VWS V14.01,2013-11-15 08:59:00,
2013-11-15 04:00:00,37.5,25.3,30.39,WSW,237,1.0,3.0,61,0.00,,---,0.00,VWS V14.01,2013-11-15 09:00:00,
2013-11-15 04:01:00,37.5,25.3,30.39,SW,232,1.0,3.0,61,0.00,,---,0.00,VWS V14.01,2013-11-15 09:01:00,
2013-11-15 04:02:00,37.6,25.4,30.39,SW,230,1.0,1.0,61,0.00,,---,0.00,VWS V14.01,2013-11-15 09:02:00,
2013-11-15 04:03:00,37.7,25.1,30.39,WSW,238,0.0,2.0,60,0.00,,---,0.00,VWS V14.01,2013-11-15 09:03:00,
2013-11-15 04:04:00,37.7,25.1,30.39,SW,223,0.0,2.0,60,0.00,,---,0.00,VWS V14.01,2013-11-15 09:04:00,
2013-11-15 04:05:00,37.8,25.2,30.39,SW,236,0.0,2.0,60,0.00,,---,0.00,VWS V14.01,2013-11-15 09:05:00,
2013-11-15 04:06:00,37.8,25.2,30.39,SW,236,0.0,2.0,60,0.00,,---,0.00,VWS V14.01,2013-11-15 09:06:00,
2013-11-15 04:07:00,37.8,25.2,30.39,SW,236,0.0,0.0,60,0.00,,---,0.00,VWS V14.01,2013-11-15 09:07:00,
2013-11-15 04:08:00,37.8,25.2,30.39,WSW,237,0.0,0.0,60,0.00,,---,0.00,VWS V14.01,2013-11-15 09:08:00,
2013-11-15 04:09:00,37.8,25.2,30.39,SW,233,1.0,3.0,60,0.00,,---,0.00,VWS V14.01,2013-11-15 09:09:00,
2013-11-15 04:10:00,37.8,25.2,30.39,SW,233,0.0,1.0,60,0.00,,---,0.00,VWS V14.01,2013-11-15 09:10:00,
2013-11-15 04:11:00,37.9,25.3,30.39,SSW,211,2.0,2.0,60,0.00,,---,0.00,VWS V14.01,2013-11-15 09:11:00,
2013-11-15 04:12:00,37.9,25.3,30.39,SW,223,0.0,3.0,60,0.00,,---,0.00,VWS V14.01,2013-11-15 09:12:00,
2013-11-15 04:13:00,37.9,25.3,30.39,SW,223,1.0,1.0,60,0.00,,---,0.00,VWS V14.01,2013-11-15 09:13:00,
2013-11-15 04:14:00,38.0,25.4,30.39,SW,223,0.0,1.0,60,0.00,,---,0.00,VWS V14.01,2013-11-15 09:14:00,
2013-11-15 04:15:00,38.0,25.4,30.38,SSW,209,2.0,2.0,60,0.00,,---,0.00,VWS V14.01,2013-11-15 09:15:00,
2013-11-15 04:16:00,38.0,25.4,30.38,SSW,205,2.0,3.0,60,0.00,,---,0.00,VWS V14.01,2013-11-15 09:16:00,
2013-11-15 04:17:00,38.1,25.5,30.39,SSW,205,0.0,2.0,60,0.00,,---,0.00,VWS V14.01,2013-11-15 09:17:00,
2013-11-15 04:18:00,38.1,25.5,30.39,SSW,205,0.0,0.0,60,0.00,,---,0.00,VWS V14.01,2013-11-15 09:18:00,
2013-11-15 04:19:00,38.2,25.5,30.39,SSW,205,0.0,0.0,60,0.00,,---,0.00,VWS V14.01,2013-11-15 09:19:00,
2013-11-15 04:20:00,38.2,25.5,30.39,SW,231,0.0,1.0,60,0.00,,---,0.00,VWS V14.01,2013-11-15 09:20:00,
2013-11-15 04:21:00,38.2,25.5,30.39,SW,230,0.0,1.0,60,0.00,,---,0.00,VWS V14.01,2013-11-15 09:21:00,
2013-11-15 04:22:00,38.2,25.5,30.39,SW,230,0.0,0.0,60,0.00,,---,0.00,VWS V14.01,2013-11-15 09:22:00,
2013-11-15 04:23:00,38.2,25.5,30.39,SW,230,0.0,0.0,60,0.00,,---,0.00,VWS V14.01,2013-11-15 09:23:00,
2013-11-15 04:24:00,38.2,25.5,30.39,SW,230,0.0,0.0,60,0.00,,---,0.00,VWS V14.01,2013-11-15 09:24:00,
2013-11-15 04:25:00,38.2,26.0,30.39,SW,233,1.0,1.0,61,0.00,,---,0.00,VWS V14.01,2013-11-15 09:25:00,
2013-11-15 04:26:00,38.2,26.0,30.39,SW,233,0.0,1.0,61,0.00,,---,0.00,VWS V14.01,2013-11-15 09:26:00,
2013-11-15 04:27:00,38.3,26.0,30.39,WSW,237,0.0,1.0,61,0.00,,---,0.00,VWS V14.01,2013-11-15 09:27:00,
2013-11-15 04:28:00,38.3,26.0,30.39,WSW,237,0.0,0.0,61,0.00,,---,0.00,VWS V14.01,2013-11-15 09:28:00,
2013-11-15 04:29:00,38.4,26.1,30.39,WSW,237,1.0,1.0,61,0.00,,---,0.00,VWS V14.01,2013-11-15 09:29:00,
2013-11-15 04:30:00,38.6,26.3,30.39,West,273,0.0,1.0,61,0.00,,---,0.00,VWS V14.01,2013-11-15 09:30:00,
2013-11-15 04:31:00,38.6,26.3,30.39,West,273,0.0,1.0,61,0.00,,---,0.00,VWS V14.01,2013-11-15 09:31:00,
2013-11-15 04:32:00,38.7,26.4,30.39,West,259,0.0,1.0,61,0.00,,---,0.00,VWS V14.01,2013-11-15 09:32:00,
2013-11-15 04:33:00,38.7,26.4,30.39,SW,230,2.0,2.0,61,0.00,,---,0.00,VWS V14.01,2013-11-15 09:33:00,
2013-11-15 04:34:00,38.8,26.5,30.39,SW,231,0.0,2.0,61,0.00,,---,0.00,VWS V14.01,2013-11-15 09:34:00,
2013-11-15 04:35:00,38.8,26.1,30.39,SW,230,0.0,0.0,60,0.00,,---,0.00,VWS V14.01,2013-11-15 09:35:00,
2013-11-15 04:36:00,38.9,26.2,30.39,SW,230,0.0,0.0,60,0.00,,---,0.00,VWS V14.01,2013-11-15 09:36:00,
2013-11-15 04:37:00,38.8,26.1,30.38,SW,231,0.0,0.0,60,0.00,,---,0.00,VWS V14.01,2013-11-15 09:37:00,
2013-11-15 04:38:00,38.9,26.2,30.38,SW,230,0.0,0.0,60,0.00,,---,0.00,VWS V14.01,2013-11-15 09:38:00,
2013-11-15 04:39:00,38.9,26.2,30.38,SW,230,0.0,0.0,60,0.00,,---,0.00,VWS V14.01,2013-11-15 09:39:00,
2013-11-15 04:40:00,38.8,26.1,30.38,SW,230,0.0,0.0,60,0.00,,---,0.00,VWS V14.01,2013-11-15 09:40:00,
2013-11-15 04:41:00,38.8,26.1,30.38,SW,231,0.0,0.0,60,0.00,,---,0.00,VWS V14.01,2013-11-15 09:41:00,
2013-11-15 04:42:00,38.7,26.0,30.38,SW,230,0.0,0.0,60,0.00,,---,0.00,VWS V14.01,2013-11-15 09:42:00,
2013-11-15 04:43:00,38.7,26.4,30.38,SW,230,0.0,0.0,61,0.00,,---,0.00,VWS V14.01,2013-11-15 09:43:00,
2013-11-15 04:44:00,38.7,26.4,30.38,SW,231,0.0,0.0,61,0.00,,---,0.00,VWS V14.01,2013-11-15 09:44:00,
2013-11-15 04:45:00,38.7,26.4,30.38,SW,230,0.0,0.0,61,0.00,,---,0.00,VWS V14.01,2013-11-15 09:45:00,
2013-11-15 04:46:00,38.7,26.4,30.38,SW,230,0.0,0.0,61,0.00,,---,0.00,VWS V14.01,2013-11-15 09:46:00,
2013-11-15 04:47:00,38.7,26.4,30.38,SW,230,0.0,0.0,61,0.00,,---,0.00,VWS V14.01,2013-11-15 09:47:00,
2013-11-15 04:48:00,38.7,26.4,30.38,SW,230,0.0,0.0,61,0.00,,---,0.00,VWS V14.01,2013-11-15 09:48:00,
2013-11-15 04:49:00,38.7,27.2,30.38,SW,230,0.0,1.0,63,0.00,,---,0.00,VWS V14.01,2013-11-15 09:49:00,
2013-11-15 04:50:00,38.7,26.8,30.38,SW,230,0.0,0.0,62,0.00,,---,0.00,VWS V14.01,2013-11-15 09:50:00,
2013-11-15 04:51:00,38.7,26.4,30.38,SW,230,0.0,0.0,61,0.00,,---,0.00,VWS V14.01,2013-11-15 09:51:00,
2013-11-15 04:52:00,38.7,26.4,30.37,SW,230,1.0,1.0,61,0.00,,---,0.00,VWS V14.01,2013-11-15 09:52:00,
2013-11-15 04:53:00,38.7,26.4,30.37,SW,230,1.0,1.0,61,0.00,,---,0.00,VWS V14.01,2013-11-15 09:53:00,
2013-11-15 04:54:00,38.7,26.4,30.37,SW,230,1.0,1.0,61,0.00,,---,0.00,VWS V14.01,2013-11-15 09:54:00,
2013-11-15 04:55:00,38.7,26.0,30.37,SW,230,0.0,0.0,60,0.00,,---,0.00,VWS V14.01,2013-11-15 09:55:00,
2013-11-15 04:56:00,38.7,26.0,30.37,SW,230,1.0,1.0,60,0.00,,---,0.00,VWS V14.01,2013-11-15 09:56:00,
2013-11-15 04:57:00,38.7,26.0,30.37,SW,230,0.0,1.0,60,0.00,,---,0.00,VWS V14.01,2013-11-15 09:57:00,
2013-11-15 04:58:00,38.6,25.9,30.37,SW,231,0.0,0.0,60,0.00,,---,0.00,VWS V14.01,2013-11-15 09:58:00,
2013-11-15 04:59:00,38.6,25.9,30.37,SW,230,0.0,1.0,60,0.00,,---,0.00,VWS V14.01,2013-11-15 09:59:00,
2013-11-15 05:00:00,38.5,25.8,30.37,SW,230,0.0,0.0,60,0.00,,---,0.00,VWS V14.01,2013-11-15 10:00:00,
2013-11-15 05:01:00,38.5,25.8,30.37,SW,231,0.0,0.0,60,0.00,,---,0.00,VWS V14.01,2013-11-15 10:01:00,
2013-11-15 05:02:00,38.5,25.8,30.37,SW,231,0.0,0.0,60,0.00,,---,0.00,VWS V14.01,2013-11-15 10:02:00,
2013-11-15 05:03:00,38.5,26.2,30.37,SW,231,0.0,0.0,61,0.00,,---,0.00,VWS V14.01,2013-11-15 10:03:00,
2013-11-15 05:04:00,38.4,26.1,30.37,SW,230,0.0,0.0,61,0.00,,---,0.00,VWS V14.01,2013-11-15 10:04:00,
2013-11-15 05:05:00,38.4,26.1,30.37,SW,230,0.0,1.0,61,0.00,,---,0.00,VWS V14.01,2013-11-15 10:05:00,
2013-11-15 05:06:00,38.3,26.0,30.37,SW,230,0.0,1.0,61,0.00,,---,0.00,VWS V14.01,2013-11-15 10:06:00,
2013-11-15 05:07:00,38.3,26.0,30.37,SW,231,0.0,0.0,61,0.00,,---,0.00,VWS V14.01,2013-11-15 10:07:00,
2013-11-15 05:08:00,38.2,26.0,30.37,SW,230,0.0,0.0,61,0.00,,---,0.00,VWS V14.01,2013-11-15 10:08:00,
2013-11-15 05:09:00,38.2,26.0,30.37,SW,230,0.0,0.0,61,0.00,,---,0.00,VWS V14.01,2013-11-15 10:09:00,
2013-11-15 05:10:00,38.1,25.9,30.37,SW,230,0.0,0.0,61,0.00,,---,0.00,VWS V14.01,2013-11-15 10:10:00,
2013-11-15 05:11:00,38.0,26.1,30.37,SW,231,0.0,0.0,62,0.00,,---,0.00,VWS V14.01,2013-11-15 10:11:00,
2013-11-15 05:12:00,38.0,26.1,30.37,SW,231,0.0,0.0,62,0.00,,---,0.00,VWS V14.01,2013-11-15 10:12:00,
2013-11-15 05:13:00,38.0,26.1,30.37,SW,230,0.0,0.0,62,0.00,,---,0.00,VWS V14.01,2013-11-15 10:13:00,
2013-11-15 05:14:00,38.0,26.1,30.37,SW,231,0.0,0.0,62,0.00,,---,0.00,VWS V14.01,2013-11-15 10:14:00,
2013-11-15 05:15:00,37.9,26.1,30.37,SW,231,1.0,1.0,62,0.00,,---,0.00,VWS V14.01,2013-11-15 10:15:00,
2013-11-15 05:16:00,37.9,26.1,30.37,SSW,194,1.0,2.0,62,0.00,,---,0.00,VWS V14.01,2013-11-15 10:16:00,
2013-11-15 05:17:00,37.9,26.1,30.37,SSW,194,1.0,1.0,62,0.00,,---,0.00,VWS V14.01,2013-11-15 10:17:00,
2013-11-15 05:18:00,37.9,26.1,30.37,SSW,194,2.0,2.0,62,0.00,,---,0.00,VWS V14.01,2013-11-15 10:18:00,
2013-11-15 05:19:00,37.9,26.1,30.37,SSW,194,2.0,2.0,62,0.00,,---,0.00,VWS V14.01,2013-11-15 10:19:00,
2013-11-15 05:20:00,38.0,26.1,30.37,SSW,194,2.0,2.0,62,0.00,,---,0.00,VWS V14.01,2013-11-15 10:20:00,
2013-11-15 05:21:00,38.0,26.1,30.37,SSW,194,1.0,2.0,62,0.00,,---,0.00,VWS V14.01,2013-11-15 10:21:00,
2013-11-15 05:22:00,38.1,26.2,30.37,SSW,194,2.0,2.0,62,0.00,,---,0.00,VWS V14.01,2013-11-15 10:22:00,
2013-11-15 05:23:00,38.1,26.2,30.37,SSW,194,1.0,2.0,62,0.00,,---,0.00,VWS V14.01,2013-11-15 10:23:00,
2013-11-15 05:24:00,38.1,26.2,30.37,SSW,194,1.0,1.0,62,0.00,,---,0.00,VWS V14.01,2013-11-15 10:24:00,
2013-11-15 05:25:00,38.1,26.2,30.37,SSW,194,0.0,1.0,62,0.00,,---,0.00,VWS V14.01,2013-11-15 10:25:00,
2013-11-15 05:26:00,38.1,26.6,30.37,SSW,194,0.0,1.0,63,0.00,,---,0.00,VWS V14.01,2013-11-15 10:26:00,
2013-11-15 05:27:00,38.1,26.6,30.37,SSW,194,0.0,1.0,63,0.00,,---,0.00,VWS V14.01,2013-11-15 10:27:00,
2013-11-15 05:28:00,38.1,26.6,30.37,SSW,194,1.0,1.0,63,0.00,,---,0.00,VWS V14.01,2013-11-15 10:28:00,
2013-11-15 05:29:00,38.0,26.5,30.37,SSW,194,1.0,1.0,63,0.00,,---,0.00,VWS V14.01,2013-11-15 10:29:00,
2013-11-15 05:30:00,38.0,26.5,30.37,SSW,192,1.0,1.0,63,0.00,,---,0.00,VWS V14.01,2013-11-15 10:30:00,
2013-11-15 05:31:00,38.0,26.5,30.37,SSW,192,0.0,1.0,63,0.00,,---,0.00,VWS V14.01,2013-11-15 10:31:00,
2013-11-15 05:32:00,38.0,26.5,30.37,SSW,192,1.0,1.0,63,0.00,,---,0.00,VWS V14.01,2013-11-15 10:32:00,
2013-11-15 05:33:00,38.0,26.5,30.37,SSW,192,1.0,1.0,63,0.00,,---,0.00,VWS V14.01,2013-11-15 10:33:00,
2013-11-15 05:34:00,38.0,26.5,30.37,SSW,192,1.0,1.0,63,0.00,,---,0.00,VWS V14.01,2013-11-15 10:34:00,
2013-11-15 05:35:00,38.0,26.5,30.37,SSW,200,1.0,1.0,63,0.00,,---,0.00,VWS V14.01,2013-11-15 10:35:00,
2013-11-15 05:36:00,38.0,26.5,30.37,SSW,201,1.0,1.0,63,0.00,,---,0.00,VWS V14.01,2013-11-15 10:36:00,
2013-11-15 05:37:00,38.0,26.5,30.38,SSW,201,1.0,1.0,63,0.00,,---,0.00,VWS V14.01,2013-11-15 10:37:00,
2013-11-15 05:38:00,38.0,26.5,30.38,SSW,200,0.0,1.0,63,0.00,,---,0.00,VWS V14.01,2013-11-15 10:38:00,
2013-11-15 05:39:00,38.0,26.5,30.38,SSW,201,0.0,1.0,63,0.00,,---,0.00,VWS V14.01,2013-11-15 10:39:00,
2013-11-15 05:40:00,38.0,26.5,30.37,SSW,200,0.0,0.0,63,0.00,,---,0.00,VWS V14.01,2013-11-15 10:40:00,
2013-11-15 05:41:00,37.9,26.4,30.37,SSW,200,0.0,1.0,63,0.00,,---,0.00,VWS V14.01,2013-11-15 10:41:00,
2013-11-15 05:42:00,37.9,26.4,30.38,SSW,200,1.0,1.0,63,0.00,,---,0.00,VWS V14.01,2013-11-15 10:42:00,
2013-11-15 05:43:00,37.9,26.4,30.37,SSW,200,0.0,1.0,63,0.00,,---,0.00,VWS V14.01,2013-11-15 10:43:00,
2013-11-15 05:44:00,37.9,26.4,30.38,SSW,200,1.0,1.0,63,0.00,,---,0.00,VWS V14.01,2013-11-15 10:44:00,
2013-11-15 05:45:00,37.9,26.5,30.38,SSW,200,1.0,1.0,63,0.00,,---,0.00,VWS V14.01,2013-11-15 10:45:00,
2013-11-15 05:46:00,38.0,26.5,30.38,SSW,201,1.0,1.0,63,0.00,,---,0.00,VWS V14.01,2013-11-15 10:46:00,
2013-11-15 05:47:00,38.0,26.5,30.38,SSW,201,1.0,1.0,63,0.00,,---,0.00,VWS V14.01,2013-11-15 10:47:00,
2013-11-15 05:48:00,38.0,26.5,30.38,SSW,201,1.0,1.0,63,0.00,,---,0.00,VWS V14.01,2013-11-15 10:48:00,
2013-11-15 05:49:00,38.0,26.5,30.38,SSW,200,1.0,1.0,63,0.00,,---,0.00,VWS V14.01,2013-11-15 10:49:00,
2013-11-15 05:50:00,38.0,26.5,30.38,SSW,200,1.0,1.0,63,0.00,,---,0.00,VWS V14.01,2013-11-15 10:50:00,
2013-11-15 05:51:00,38.0,26.1,30.38,SSW,200,0.0,1.0,62,0.00,,---,0.00,VWS V14.01,2013-11-15 10:51:00,
2013-11-15 05:52:00,38.1,26.2,30.38,SSW,200,1.0,1.0,62,0.00,,---,0.00,VWS V14.01,2013-11-15 10:52:00,
2013-11-15 05:53:00,38.1,26.2,30.38,SSW,200,1.0,1.0,62,0.00,,---,0.00,VWS V14.01,2013-11-15 10:53:00,
2013-11-15 05:54:00,38.0,26.5,30.38,SSW,200,1.0,1.0,63,0.00,,---,0.00,VWS V14.01,2013-11-15 10:54:00,
2013-11-15 05:55:00,38.0,26.5,30.38,SSW,200,0.0,0.0,63,0.00,,---,0.00,VWS V14.01,2013-11-15 10:55:00,
2013-11-15 05:56:00,38.0,26.5,30.38,SSW,200,0.0,0.0,63,0.00,,---,0.00,VWS V14.01,2013-11-15 10:56:00,
2013-11-15 05:57:00,38.0,26.5,30.38,SSW,200,0.0,1.0,63,0.00,,---,0.00,VWS V14.01,2013-11-15 10:57:00,
2013-11-15 05:58:00,38.0,26.5,30.38,SSW,200,0.0,0.0,63,0.00,,---,0.00,VWS V14.01,2013-11-15 10:58:00,
2013-11-15 05:59:00,37.9,26.4,30.38,SSW,201,0.0,0.0,63,0.00,,---,0.00,VWS V14.01,2013-11-15 10:59:00,
2013-11-15 06:00:00,37.9,26.5,30.38,SSW,200,0.0,0.0,63,0.00,,---,0.00,VWS V14.01,2013-11-15 11:00:00,
2013-11-15 06:01:00,37.9,26.1,30.38,SSW,200,0.0,0.0,62,0.00,,---,0.00,VWS V14.01,2013-11-15 11:01:00,
2013-11-15 06:02:00,37.9,26.1,30.38,SSW,201,0.0,0.0,62,0.00,,---,0.00,VWS V14.01,2013-11-15 11:02:00,
2013-11-15 06:03:00,37.9,26.1,30.38,SSW,201,0.0,0.0,62,0.00,,---,0.00,VWS V14.01,2013-11-15 11:03:00,
2013-11-15 06:04:00,37.9,26.1,30.38,SSW,200,0.0,0.0,62,0.00,,---,0.00,VWS V14.01,2013-11-15 11:04:00,
2013-11-15 06:05:00,37.8,26.0,30.38,SSW,201,0.0,0.0,62,0.00,,---,0.00,VWS V14.01,2013-11-15 11:05:00,
2013-11-15 06:06:00,37.8,26.0,30.38,SSW,200,0.0,0.0,62,0.00,,---,0.00,VWS V14.01,2013-11-15 11:06:00,
2013-11-15 06:07:00,37.8,26.4,30.38,SSW,200,0.0,0.0,63,0.00,,---,0.00,VWS V14.01,2013-11-15 11:07:00,
2013-11-15 06:08:00,37.7,26.2,30.38,SSW,200,0.0,0.0,63,0.00,,---,0.00,VWS V14.01,2013-11-15 11:08:00,
2013-11-15 06:09:00,37.7,26.2,30.38,SSW,200,0.0,0.0,63,0.00,,---,0.00,VWS V14.01,2013-11-15 11:09:00,
2013-11-15 06:10:00,37.7,26.3,30.38,SSW,200,0.0,0.0,63,0.00,,---,0.00,VWS V14.01,2013-11-15 11:10:00,
2013-11-15 06:11:00,37.7,26.2,30.38,SSW,200,0.0,0.0,63,0.00,,---,0.00,VWS V14.01,2013-11-15 11:11:00,
2013-11-15 06:12:00,37.7,26.2,30.38,SSW,201,0.0,0.0,63,0.00,,---,0.00,VWS V14.01,2013-11-15 11:12:00,
2013-11-15 06:13:00,37.6,26.2,30.38,SSW,200,0.0,0.0,63,0.00,,---,0.00,VWS V14.01,2013-11-15 11:13:00,
2013-11-15 06:14:00,37.6,26.2,30.38,SSW,200,0.0,0.0,63,0.00,,---,0.00,VWS V14.01,2013-11-15 11:14:00,
2013-11-15 06:15:00,37.5,26.1,30.38,SSW,201,0.0,0.0,63,0.00,,---,0.00,VWS V14.01,2013-11-15 11:15:00,
2013-11-15 06:16:00,37.5,26.1,30.38,SSW,200,0.0,0.0,63,0.00,,---,0.00,VWS V14.01,2013-11-15 11:16:00,
2013-11-15 06:17:00,37.5,26.1,30.38,SSW,201,0.0,0.0,63,0.00,,---,0.00,VWS V14.01,2013-11-15 11:17:00,
2013-11-15 06:18:00,37.4,26.4,30.38,SSW,200,0.0,0.0,64,0.00,,---,0.00,VWS V14.01,2013-11-15 11:18:00,
2013-11-15 06:19:00,37.4,26.4,30.38,SSW,201,0.0,0.0,64,0.00,,---,0.00,VWS V14.01,2013-11-15 11:19:00,
2013-11-15 06:20:00,37.4,26.4,30.38,SSW,200,0.0,0.0,64,0.00,,---,0.00,VWS V14.01,2013-11-15 11:20:00,
2013-11-15 06:21:00,37.5,26.5,30.38,SSW,201,0.0,0.0,64,0.00,,---,0.00,VWS V14.01,2013-11-15 11:21:00,
2013-11-15 06:22:00,37.5,26.5,30.38,SSW,201,0.0,0.0,64,0.00,,---,0.00,VWS V14.01,2013-11-15 11:22:00,
2013-11-15 06:23:00,37.5,26.5,30.38,SSW,200,0.0,0.0,64,0.00,,---,0.00,VWS V14.01,2013-11-15 11:23:00,
2013-11-15 06:24:00,37.6,26.5,30.39,SSW,200,0.0,0.0,64,0.00,,---,0.00,VWS V14.01,2013-11-15 11:24:00,
2013-11-15 06:25:00,37.6,26.5,30.39,SSW,201,0.0,0.0,64,0.00,,---,0.00,VWS V14.01,2013-11-15 11:25:00,
2013-11-15 06:26:00,37.6,26.5,30.39,SSW,200,0.0,0.0,64,0.00,,---,0.00,VWS V14.01,2013-11-15 11:26:00,
2013-11-15 06:27:00,37.6,26.5,30.39,SSW,200,0.0,0.0,64,0.00,,---,0.00,VWS V14.01,2013-11-15 11:27:00,
2013-11-15 06:28:00,37.6,26.5,30.39,SSW,200,0.0,0.0,64,0.00,,---,0.00,VWS V14.01,2013-11-15 11:28:00,
2013-11-15 06:29:00,37.5,26.5,30.38,SSW,200,0.0,0.0,64,0.00,,---,0.00,VWS V14.01,2013-11-15 11:29:00,
2013-11-15 06:30:00,37.5,26.5,30.39,SSW,201,0.0,0.0,64,0.00,,---,0.00,VWS V14.01,2013-11-15 11:30:00,
2013-11-15 06:31:00,37.5,26.5,30.39,SSW,201,0.0,0.0,64,0.00,,---,0.00,VWS V14.01,2013-11-15 11:31:00,
2013-11-15 06:32:00,37.5,26.5,30.39,SSW,200,0.0,0.0,64,0.00,,---,0.00,VWS V14.01,2013-11-15 11:32:00,
2013-11-15 06:33:00,37.4,26.4,30.39,SSW,200,0.0,0.0,64,0.00,,---,0.00,VWS V14.01,2013-11-15 11:33:00,
2013-11-15 06:34:00,37.4,26.4,30.39,SSW,201,0.0,0.0,64,0.00,,---,0.00,VWS V14.01,2013-11-15 11:34:00,
2013-11-15 06:35:00,37.4,26.7,30.39,SSW,200,0.0,0.0,65,0.00,,---,0.00,VWS V14.01,2013-11-15 11:35:00,
2013-11-15 06:36:00,37.4,26.7,30.39,SSW,200,0.0,0.0,65,0.00,,---,0.00,VWS V14.01,2013-11-15 11:36:00,
2013-11-15 06:37:00,37.4,27.1,30.39,SSW,201,0.0,0.0,66,0.00,,---,0.00,VWS V14.01,2013-11-15 11:37:00,
2013-11-15 06:38:00,37.4,27.1,30.39,SSW,200,0.0,0.0,66,0.00,,---,0.00,VWS V14.01,2013-11-15 11:38:00,
2013-11-15 06:39:00,37.4,27.1,30.39,SSW,200,0.0,0.0,66,0.00,,---,0.00,VWS V14.01,2013-11-15 11:39:00,
2013-11-15 06:40:00,37.3,27.0,30.39,SSW,200,0.0,0.0,66,0.00,,---,0.00,VWS V14.01,2013-11-15 11:40:00,
2013-11-15 06:41:00,37.3,27.0,30.39,SSW,200,0.0,0.0,66,0.00,,---,0.00,VWS V14.01,2013-11-15 11:41:00,
2013-11-15 06:42:00,37.3,27.0,30.39,SSW,200,0.0,0.0,66,0.00,,---,0.00,VWS V14.01,2013-11-15 11:42:00,
2013-11-15 06:43:00,37.3,27.0,30.39,SSW,200,0.0,0.0,66,0.00,,---,0.00,VWS V14.01,2013-11-15 11:43:00,
2013-11-15 06:44:00,37.3,27.0,30.39,SSW,200,0.0,0.0,66,0.00,,---,0.00,VWS V14.01,2013-11-15 11:44:00,
2013-11-15 06:45:00,37.3,27.4,30.39,SSW,201,0.0,0.0,67,0.00,,---,0.00,VWS V14.01,2013-11-15 11:45:00,
2013-11-15 06:46:00,37.3,27.4,30.39,SSW,201,0.0,0.0,67,0.00,,---,0.00,VWS V14.01,2013-11-15 11:46:00,
2013-11-15 06:47:00,37.3,27.4,30.39,SSW,201,0.0,0.0,67,0.00,,---,0.00,VWS V14.01,2013-11-15 11:47:00,
2013-11-15 06:48:00,37.4,27.5,30.39,SSW,200,0.0,0.0,67,0.00,,---,0.00,VWS V14.01,2013-11-15 11:48:00,
2013-11-15 06:49:00,37.4,27.5,30.39,SSW,200,0.0,0.0,67,0.00,,---,0.00,VWS V14.01,2013-11-15 11:49:00,
2013-11-15 06:50:00,37.4,27.5,30.39,SSW,201,0.0,0.0,67,0.00,,---,0.00,VWS V14.01,2013-11-15 11:50:00,
2013-11-15 06:51:00,37.4,27.5,30.39,SSW,201,0.0,0.0,67,0.00,,---,0.00,VWS V14.01,2013-11-15 11:51:00,
2013-11-15 06:52:00,37.4,27.5,30.39,SSW,200,0.0,0.0,67,0.00,,---,0.00,VWS V14.01,2013-11-15 11:52:00,
2013-11-15 06:53:00,37.4,27.5,30.39,SSW,200,0.0,0.0,67,0.00,,---,0.00,VWS V14.01,2013-11-15 11:53:00,
2013-11-15 06:54:00,37.5,27.6,30.39,SSW,201,0.0,0.0,67,0.00,,---,0.00,VWS V14.01,2013-11-15 11:54:00,
2013-11-15 06:55:00,37.5,27.5,30.39,SSW,200,0.0,0.0,67,0.00,,---,0.00,VWS V14.01,2013-11-15 11:55:00,
2013-11-15 06:56:00,37.5,27.6,30.39,SSW,201,0.0,0.0,67,0.00,,---,0.00,VWS V14.01,2013-11-15 11:56:00,
2013-11-15 06:57:00,37.5,27.6,30.39,SSW,200,0.0,0.0,67,0.00,,---,0.00,VWS V14.01,2013-11-15 11:57:00,
2013-11-15 06:58:00,37.5,27.6,30.39,SSW,201,0.0,0.0,67,0.00,,---,0.00,VWS V14.01,2013-11-15 11:58:00,
2013-11-15 06:59:00,37.4,27.5,30.40,SSW,200,0.0,0.0,67,0.00,,---,0.00,VWS V14.01,2013-11-15 11:59:00,
2013-11-15 07:00:00,37.4,27.5,30.40,SSW,200,0.0,0.0,67,0.00,,---,0.00,VWS V14.01,2013-11-15 12:00:00,
2013-11-15 07:01:00,37.4,27.5,30.40,SSW,200,0.0,0.0,67,0.00,,---,0.00,VWS V14.01,2013-11-15 12:01:00,
2013-11-15 07:02:00,37.4,27.8,30.39,SSW,200,0.0,0.0,68,0.00,,---,0.00,VWS V14.01,2013-11-15 12:02:00,
2013-11-15 07:03:00,37.3,27.7,30.39,SSW,200,0.0,0.0,68,0.00,,---,0.00,VWS V14.01,2013-11-15 12:03:00,
2013-11-15 07:04:00,37.3,27.7,30.40,SSW,201,0.0,0.0,68,0.00,,---,0.00,VWS V14.01,2013-11-15 12:04:00,
2013-11-15 07:05:00,37.3,27.7,30.40,SSW,200,0.0,0.0,68,0.00,,---,0.00,VWS V14.01,2013-11-15 12:05:00,
2013-11-15 07:06:00,37.3,27.7,30.40,SSW,201,0.0,0.0,68,0.00,,---,0.00,VWS V14.01,2013-11-15 12:06:00,
2013-11-15 07:07:00,37.3,28.1,30.40,SSW,201,0.0,0.0,69,0.00,,---,0.00,VWS V14.01,2013-11-15 12:07:00,
2013-11-15 07:08:00,37.3,28.1,30.40,SSW,200,0.0,0.0,69,0.00,,---,0.00,VWS V14.01,2013-11-15 12:08:00,
2013-11-15 07:09:00,37.3,27.7,30.40,SSW,200,0.0,0.0,68,0.00,,---,0.00,VWS V14.01,2013-11-15 12:09:00,
2013-11-15 07:10:00,37.3,28.1,30.40,SSW,201,0.0,0.0,69,0.00,,---,0.00,VWS V14.01,2013-11-15 12:10:00,
2013-11-15 07:11:00,37.3,28.1,30.40,SSW,200,0.0,0.0,69,0.00,,---,0.00,VWS V14.01,2013-11-15 12:11:00,
2013-11-15 07:12:00,37.3,28.1,30.40,SSW,201,0.0,0.0,69,0.00,,---,0.00,VWS V14.01,2013-11-15 12:12:00,
2013-11-15 07:13:00,37.4,28.2,30.40,SSW,200,0.0,0.0,69,0.00,,---,0.00,VWS V14.01,2013-11-15 12:13:00,
2013-11-15 07:14:00,37.4,28.2,30.40,SSW,201,0.0,0.0,69,0.00,,---,0.00,VWS V14.01,2013-11-15 12:14:00,
2013-11-15 07:15:00,37.5,28.3,30.40,SSW,200,0.0,0.0,69,0.00,,---,0.00,VWS V14.01,2013-11-15 12:15:00,
2013-11-15 07:16:00,37.5,28.3,30.40,SSW,200,0.0,0.0,69,0.00,,---,0.00,VWS V14.01,2013-11-15 12:16:00,
2013-11-15 07:17:00,37.6,28.4,30.40,SSW,200,0.0,1.0,69,0.00,,---,0.00,VWS V14.01,2013-11-15 12:17:00,
2013-11-15 07:18:00,37.7,28.5,30.40,SSW,200,0.0,0.0,69,0.00,,---,0.00,VWS V14.01,2013-11-15 12:18:00,
2013-11-15 07:19:00,37.9,28.6,30.40,SSW,200,0.0,0.0,69,0.00,,---,0.00,VWS V14.01,2013-11-15 12:19:00,
2013-11-15 07:20:00,38.0,28.8,30.40,SSW,200,1.0,1.0,69,0.00,,---,0.00,VWS V14.01,2013-11-15 12:20:00,
2013-11-15 07:21:00,38.1,28.8,30.40,SSW,201,1.0,1.0,69,0.00,,---,0.00,VWS V14.01,2013-11-15 12:21:00,
2013-11-15 07:22:00,38.1,28.5,30.40,SSW,200,1.0,1.0,68,0.00,,---,0.00,VWS V14.01,2013-11-15 12:22:00,
2013-11-15 07:23:00,38.3,28.7,30.40,SSW,200,1.0,1.0,68,0.00,,---,0.00,VWS V14.01,2013-11-15 12:23:00,
2013-11-15 07:24:00,38.3,28.7,30.40,SSW,200,0.0,1.0,68,0.00,,---,0.00,VWS V14.01,2013-11-15 12:24:00,
2013-11-15 07:25:00,38.3,28.7,30.40,SSW,200,0.0,0.0,68,0.00,,---,0.00,VWS V14.01,2013-11-15 12:25:00,
2013-11-15 07:26:00,38.4,28.8,30.40,SSW,200,0.0,0.0,68,0.00,,---,0.00,VWS V14.01,2013-11-15 12:26:00,
2013-11-15 07:27:00,38.4,28.8,30.40,SSW,200,0.0,0.0,68,0.00,,---,0.00,VWS V14.01,2013-11-15 12:27:00,
2013-11-15 07:28:00,38.5,28.9,30.40,SSW,201,0.0,0.0,68,0.00,,---,0.00,VWS V14.01,2013-11-15 12:28:00,
2013-11-15 07:29:00,38.5,28.9,30.40,SSW,200,0.0,0.0,68,0.00,,---,0.00,VWS V14.01,2013-11-15 12:29:00,
2013-11-15 07:30:00,38.5,28.9,30.40,SSW,200,0.0,0.0,68,0.00,,---,0.00,VWS V14.01,2013-11-15 12:30:00,
2013-11-15 07:31:00,38.5,28.9,30.40,SSW,201,0.0,0.0,68,0.00,,---,0.00,VWS V14.01,2013-11-15 12:31:00,
2013-11-15 07:32:00,38.5,28.9,30.40,SSW,200,0.0,0.0,68,0.00,,---,0.00,VWS V14.01,2013-11-15 12:32:00,
2013-11-15 07:33:00,38.6,29.0,30.40,SSW,200,0.0,0.0,68,0.00,,---,0.00,VWS V14.01,2013-11-15 12:33:00,
2013-11-15 07:34:00,38.6,29.0,30.40,SSW,200,0.0,0.0,68,0.00,,---,0.00,VWS V14.01,2013-11-15 12:34:00,
2013-11-15 07:35:00,38.6,29.0,30.40,SSW,200,0.0,0.0,68,0.00,,---,0.00,VWS V14.01,2013-11-15 12:35:00,
2013-11-15 07:36:00,38.7,29.1,30.40,SSW,200,0.0,0.0,68,0.00,,---,0.00,VWS V14.01,2013-11-15 12:36:00,
2013-11-15 07:37:00,38.7,29.1,30.40,SSW,200,0.0,0.0,68,0.00,,---,0.00,VWS V14.01,2013-11-15 12:37:00,
2013-11-15 07:38:00,38.7,29.1,30.40,SSW,200,0.0,0.0,68,0.00,,---,0.00,VWS V14.01,2013-11-15 12:38:00,
2013-11-15 07:39:00,38.7,29.1,30.40,SSW,200,0.0,0.0,68,0.00,,---,0.00,VWS V14.01,2013-11-15 12:39:00,
2013-11-15 07:40:00,38.8,29.2,30.40,SSW,200,0.0,0.0,68,0.00,,---,0.00,VWS V14.01,2013-11-15 12:40:00,
2013-11-15 07:41:00,38.8,29.2,30.40,SSW,200,0.0,0.0,68,0.00,,---,0.00,VWS V14.01,2013-11-15 12:41:00,
2013-11-15 07:42:00,38.8,29.2,30.40,SSW,201,0.0,0.0,68,0.00,,---,0.00,VWS V14.01,2013-11-15 12:42:00,
2013-11-15 07:43:00,38.9,29.2,30.40,SSW,200,0.0,0.0,68,0.00,,---,0.00,VWS V14.01,2013-11-15 12:43:00,
2013-11-15 07:44:00,38.9,29.6,30.40,SSW,200,0.0,0.0,69,0.00,,---,0.00,VWS V14.01,2013-11-15 12:44:00,
2013-11-15 07:45:00,39.0,29.7,30.40,SSW,200,0.0,0.0,69,0.00,,---,0.00,VWS V14.01,2013-11-15 12:45:00,
2013-11-15 07:46:00,39.0,29.7,30.40,SSW,200,0.0,0.0,69,0.00,,---,0.00,VWS V14.01,2013-11-15 12:46:00,
2013-11-15 07:47:00,39.1,29.8,30.40,SSW,201,0.0,0.0,69,0.00,,---,0.00,VWS V14.01,2013-11-15 12:47:00,
2013-11-15 07:48:00,39.1,29.8,30.40,SSW,200,0.0,0.0,69,0.00,,---,0.00,VWS V14.01,2013-11-15 12:48:00,
2013-11-15 07:49:00,39.2,29.9,30.40,SSW,200,0.0,0.0,69,0.00,,---,0.00,VWS V14.01,2013-11-15 12:49:00,
2013-11-15 07:50:00,39.3,30.0,30.40,SSW,201,0.0,0.0,69,0.00,,---,0.00,VWS V14.01,2013-11-15 12:50:00,
2013-11-15 07:51:00,39.4,30.4,30.40,SSW,200,0.0,0.0,70,0.00,,---,0.00,VWS V14.01,2013-11-15 12:51:00,
2013-11-15 07:52:00,39.5,30.2,30.40,SSW,200,0.0,0.0,69,0.00,,---,0.00,VWS V14.01,2013-11-15 12:52:00,
2013-11-15 07:53:00,39.5,30.2,30.40,SSW,200,0.0,0.0,69,0.00,,---,0.00,VWS V14.01,2013-11-15 12:53:00,
2013-11-15 07:54:00,39.6,30.3,30.40,SSW,201,0.0,0.0,69,0.00,,---,0.00,VWS V14.01,2013-11-15 12:54:00,
2013-11-15 07:55:00,39.8,30.5,30.40,SSW,201,0.0,1.0,69,0.00,,---,0.00,VWS V14.01,2013-11-15 12:55:00,
2013-11-15 07:56:00,39.9,30.6,30.40,SSW,200,1.0,1.0,69,0.00,,---,0.00,VWS V14.01,2013-11-15 12:56:00,
2013-11-15 07:57:00,40.1,30.8,30.40,SSW,201,1.0,1.0,69,0.00,,---,0.00,VWS V14.01,2013-11-15 12:57:00,
2013-11-15 07:58:00,40.3,31.0,30.40,SSW,200,0.0,1.0,69,0.00,,---,0.00,VWS V14.01,2013-11-15 12:58:00,
2013-11-15 07:59:00,40.4,31.0,30.40,SSW,200,0.0,0.0,69,0.00,,---,0.00,VWS V14.01,2013-11-15 12:59:00,
2013-11-15 08:00:00,40.6,31.2,30.40,SSW,201,0.0,0.0,69,0.00,,---,0.00,VWS V14.01,2013-11-15 13:00:00,
2013-11-15 08:01:00,40.7,31.3,30.40,SSW,200,0.0,0.0,69,0.00,,---,0.00,VWS V14.01,2013-11-15 13:01:00,
2013-11-15 08:02:00,40.9,31.5,30.40,SSW,200,0.0,0.0,69,0.00,,---,0.00,VWS V14.01,2013-11-15 13:02:00,
2013-11-15 08:03:00,41.1,31.7,30.40,SSW,201,0.0,0.0,69,0.00,,---,0.00,VWS V14.01,2013-11-15 13:03:00,
2013-11-15 08:04:00,41.2,31.5,30.40,SSW,200,0.0,1.0,68,0.00,,---,0.00,VWS V14.01,2013-11-15 13:04:00,
2013-11-15 08:05:00,41.3,31.5,30.40,SSW,201,0.0,0.0,68,0.00,,---,0.00,VWS V14.01,2013-11-15 13:05:00,
2013-11-15 08:06:00,41.5,31.7,30.40,SSW,200,0.0,0.0,68,0.00,,---,0.00,VWS V14.01,2013-11-15 13:06:00,
2013-11-15 08:07:00,41.7,31.9,30.40,SSW,201,0.0,0.0,68,0.00,,---,0.00,VWS V14.01,2013-11-15 13:07:00,
2013-11-15 08:08:00,41.8,32.0,30.40,SSW,206,0.0,1.0,68,0.00,,---,0.00,VWS V14.01,2013-11-15 13:08:00,
2013-11-15 08:09:00,42.0,32.2,30.40,SSW,205,0.0,0.0,68,0.00,,---,0.00,VWS V14.01,2013-11-15 13:09:00,
2013-11-15 08:10:00,42.1,32.3,30.40,SSW,202,1.0,1.0,68,0.00,,---,0.00,VWS V14.01,2013-11-15 13:10:00,
2013-11-15 08:11:00,42.3,32.5,30.40,SSE,167,1.0,1.0,68,0.00,,---,0.00,VWS V14.01,2013-11-15 13:11:00,
2013-11-15 08:12:00,42.4,32.2,30.40,SSE,167,0.0,1.0,67,0.00,,---,0.00,VWS V14.01,2013-11-15 13:12:00,
2013-11-15 08:13:00,42.5,32.3,30.40,SSE,167,0.0,0.0,67,0.00,,---,0.00,VWS V14.01,2013-11-15 13:13:00,
2013-11-15 08:14:00,42.7,32.2,30.40,SSE,167,0.0,0.0,66,0.00,,---,0.00,VWS V14.01,2013-11-15 13:14:00,
2013-11-15 08:15:00,42.8,32.2,30.40,SSE,167,0.0,0.0,66,0.00,,---,0.00,VWS V14.01,2013-11-15 13:15:00,
2013-11-15 08:16:00,42.9,32.3,30.40,SW,230,1.0,2.0,66,0.00,,---,0.00,VWS V14.01,2013-11-15 13:16:00,
2013-11-15 08:17:00,43.0,32.1,30.40,West,259,3.0,3.0,65,0.00,,---,0.00,VWS V14.01,2013-11-15 13:17:00,
2013-11-15 08:18:00,43.2,31.9,30.40,WSW,250,1.0,3.0,64,0.00,,---,0.00,VWS V14.01,2013-11-15 13:18:00,
2013-11-15 08:19:00,43.3,32.0,30.40,West,264,0.0,1.0,64,0.00,,---,0.00,VWS V14.01,2013-11-15 13:19:00,
2013-11-15 08:20:00,43.3,32.0,30.40,West,264,0.0,1.0,64,0.00,,---,0.00,VWS V14.01,2013-11-15 13:20:00,
2013-11-15 08:21:00,43.5,32.2,30.40,West,264,0.0,0.0,64,0.00,,---,0.00,VWS V14.01,2013-11-15 13:21:00,
2013-11-15 08:22:00,43.6,32.2,30.40,West,263,0.0,0.0,64,0.00,,---,0.00,VWS V14.01,2013-11-15 13:22:00,
2013-11-15 08:23:00,43.7,32.3,30.40,WSW,246,1.0,1.0,64,0.00,,---,0.00,VWS V14.01,2013-11-15 13:23:00,
2013-11-15 08:24:00,43.9,32.1,30.40,WSW,252,1.0,2.0,63,0.00,,---,0.00,VWS V14.01,2013-11-15 13:24:00,
2013-11-15 08:25:00,43.9,32.1,30.40,WSW,252,1.0,2.0,63,0.00,,---,0.00,VWS V14.01,2013-11-15 13:25:00,
2013-11-15 08:26:00,44.0,32.2,30.41,SW,223,2.0,4.0,63,0.00,,---,0.00,VWS V14.01,2013-11-15 13:26:00,
2013-11-15 08:27:00,44.1,32.3,30.40,SW,233,2.0,2.0,63,0.00,,---,0.00,VWS V14.01,2013-11-15 13:27:00,
2013-11-15 08:28:00,44.1,32.3,30.40,SW,230,1.0,2.0,63,0.00,,---,0.00,VWS V14.01,2013-11-15 13:28:00,
2013-11-15 08:29:00,44.3,32.5,30.40,WSW,237,1.0,2.0,63,0.00,,---,0.00,VWS V14.01,2013-11-15 13:29:00,
2013-11-15 08:30:00,44.3,32.5,30.40,WSW,237,1.0,2.0,63,0.00,,---,0.00,VWS V14.01,2013-11-15 13:30:00,
2013-11-15 08:31:00,44.3,32.5,30.40,WSW,237,0.0,1.0,63,0.00,,---,0.00,VWS V14.01,2013-11-15 13:31:00,
2013-11-15 08:32:00,44.4,32.6,30.40,WSW,250,2.0,2.0,63,0.00,,---,0.00,VWS V14.01,2013-11-15 13:32:00,
2013-11-15 08:33:00,44.5,32.7,30.40,WSW,249,1.0,2.0,63,0.00,,---,0.00,VWS V14.01,2013-11-15 13:33:00,
2013-11-15 08:34:00,44.6,32.8,30.40,SW,225,3.0,3.0,63,0.00,,---,0.00,VWS V14.01,2013-11-15 13:34:00,
2013-11-15 08:35:00,44.6,32.8,30.40,SW,230,3.0,3.0,63,0.00,,---,0.00,VWS V14.01,2013-11-15 13:35:00,
2013-11-15 08:36:00,44.6,32.8,30.40,West,260,2.0,3.0,63,0.00,,---,0.00,VWS V14.01,2013-11-15 13:36:00,
2013-11-15 08:37:00,44.7,32.9,30.40,WSW,256,1.0,2.0,63,0.00,,---,0.00,VWS V14.01,2013-11-15 13:37:00,
2013-11-15 08:38:00,44.7,32.9,30.41,WSW,241,2.0,4.0,63,0.00,,---,0.00,VWS V14.01,2013-11-15 13:38:00,
2013-11-15 08:39:00,44.8,33.0,30.41,South,190,2.0,2.0,63,0.00,,---,0.00,VWS V14.01,2013-11-15 13:39:00,
2013-11-15 08:40:00,44.9,33.1,30.41,SSE,164,2.0,2.0,63,0.00,,---,0.00,VWS V14.01,2013-11-15 13:40:00,
2013-11-15 08:41:00,44.9,33.1,30.41,WSW,252,2.0,2.0,63,0.00,,---,0.00,VWS V14.01,2013-11-15 13:41:00,
2013-11-15 08:42:00,45.0,33.2,30.41,SW,215,2.0,2.0,63,0.00,,---,0.00,VWS V14.01,2013-11-15 13:42:00,
2013-11-15 08:43:00,45.1,33.3,30.41,WSW,242,0.0,3.0,63,0.00,,---,0.00,VWS V14.01,2013-11-15 13:43:00,
2013-11-15 08:44:00,45.2,33.4,30.41,SW,219,3.0,3.0,63,0.00,,---,0.00,VWS V14.01,2013-11-15 13:44:00,
2013-11-15 08:45:00,45.3,33.5,30.41,WSW,246,3.0,3.0,63,0.00,,---,0.00,VWS V14.01,2013-11-15 13:45:00,
2013-11-15 08:46:00,45.3,33.5,30.41,WSW,245,1.0,3.0,63,0.00,,---,0.00,VWS V14.01,2013-11-15 13:46:00,
2013-11-15 08:47:00,45.4,33.6,30.41,SW,225,1.0,3.0,63,0.00,,---,0.00,VWS V14.01,2013-11-15 13:47:00,
2013-11-15 08:48:00,45.5,33.7,30.41,SW,230,2.0,4.0,63,0.00,,---,0.00,VWS V14.01,2013-11-15 13:48:00,
2013-11-15 08:49:00,45.6,33.8,30.41,WSW,240,2.0,2.0,63,0.00,,---,0.00,VWS V14.01,2013-11-15 13:49:00,
2013-11-15 08:50:00,45.7,34.2,30.41,West,262,2.0,2.0,64,0.00,,---,0.00,VWS V14.01,2013-11-15 13:50:00,
2013-11-15 08:51:00,45.8,33.9,30.41,WSW,240,2.0,2.0,63,0.00,,---,0.00,VWS V14.01,2013-11-15 13:51:00,
2013-11-15 08:52:00,45.9,34.0,30.40,SSW,198,2.0,3.0,63,0.00,,---,0.00,VWS V14.01,2013-11-15 13:52:00,
2013-11-15 08:53:00,46.0,34.1,30.40,West,276,2.0,2.0,63,0.00,,---,0.00,VWS V14.01,2013-11-15 13:53:00,
2013-11-15 08:54:00,46.1,33.8,30.40,WSW,246,1.0,4.0,62,0.00,,---,0.00,VWS V14.01,2013-11-15 13:54:00,
2013-11-15 08:55:00,46.2,33.9,30.40,WSW,246,1.0,4.0,62,0.00,,---,0.00,VWS V14.01,2013-11-15 13:55:00,
2013-11-15 08:56:00,46.3,34.0,30.40,SW,221,1.0,3.0,62,0.00,,---,0.00,VWS V14.01,2013-11-15 13:56:00,
2013-11-15 08:57:00,46.4,34.1,30.41,West,261,2.0,2.0,62,0.00,,---,0.00,VWS V14.01,2013-11-15 13:57:00,
2013-11-15 08:58:00,46.5,34.2,30.40,SSW,210,1.0,3.0,62,0.00,,---,0.00,VWS V14.01,2013-11-15 13:58:00,
2013-11-15 08:59:00,46.7,34.4,30.40,West,271,1.0,2.0,62,0.00,,---,0.00,VWS V14.01,2013-11-15 13:59:00,
2013-11-15 09:00:00,46.7,34.4,30.40,West,275,2.0,2.0,62,0.00,,---,0.00,VWS V14.01,2013-11-15 14:00:00,
2013-11-15 09:01:00,46.8,34.9,30.40,WSW,249,0.0,2.0,63,0.00,,---,0.00,VWS V14.01,2013-11-15 14:01:00,
2013-11-15 09:02:00,47.0,35.1,30.40,South,169,2.0,2.0,63,0.00,,---,0.00,VWS V14.01,2013-11-15 14:02:00,
2013-11-15 09:03:00,47.1,35.2,30.40,WSW,249,1.0,4.0,63,0.00,,---,0.00,VWS V14.01,2013-11-15 14:03:00,
2013-11-15 09:04:00,47.4,35.5,30.40,WSW,237,2.0,3.0,63,0.00,,---,0.00,VWS V14.01,2013-11-15 14:04:00,
2013-11-15 09:05:00,47.4,35.5,30.40,SW,236,2.0,3.0,63,0.00,,---,0.00,VWS V14.01,2013-11-15 14:05:00,
2013-11-15 09:06:00,47.6,35.6,30.40,SW,222,3.0,3.0,63,0.00,,---,0.00,VWS V14.01,2013-11-15 14:06:00,
2013-11-15 09:07:00,47.7,35.7,30.40,WNW,291,2.0,3.0,63,0.00,,---,0.00,VWS V14.01,2013-11-15 14:07:00,
2013-11-15 09:08:00,47.9,35.5,30.40,West,280,3.0,4.0,62,0.00,,---,0.00,VWS V14.01,2013-11-15 14:08:00,
2013-11-15 09:09:00,48.1,35.7,30.40,SSW,202,3.0,4.0,62,0.00,,---,0.00,VWS V14.01,2013-11-15 14:09:00,
2013-11-15 09:10:00,48.1,35.7,30.40,SW,233,3.0,4.0,62,0.00,,---,0.00,VWS V14.01,2013-11-15 14:10:00,
2013-11-15 09:11:00,48.2,35.8,30.40,SW,220,4.0,4.0,62,0.00,,---,0.00,VWS V14.01,2013-11-15 14:11:00,
2013-11-15 09:12:00,48.3,35.9,30.40,SSW,212,1.0,4.0,62,0.00,,---,0.00,VWS V14.01,2013-11-15 14:12:00,
2013-11-15 09:13:00,48.4,36.0,30.40,SW,223,5.0,5.0,62,0.00,,---,0.00,VWS V14.01,2013-11-15 14:13:00,
2013-11-15 09:14:00,48.6,36.2,30.41,West,265,5.0,6.0,62,0.00,,---,0.00,VWS V14.01,2013-11-15 14:14:00,
2013-11-15 09:15:00,48.6,36.2,30.41,SW,230,3.0,6.0,62,0.00,,---,0.00,VWS V14.01,2013-11-15 14:15:00,
2013-11-15 09:16:00,48.7,36.3,30.40,SSW,205,4.0,4.0,62,0.00,,---,0.00,VWS V14.01,2013-11-15 14:16:00,
2013-11-15 09:17:00,48.8,36.4,30.40,SW,231,2.0,6.0,62,0.00,,---,0.00,VWS V14.01,2013-11-15 14:17:00,
2013-11-15 09:18:00,48.9,36.5,30.40,SSW,205,3.0,4.0,62,0.00,,---,0.00,VWS V14.01,2013-11-15 14:18:00,
2013-11-15 09:19:00,49.1,36.7,30.40,WSW,246,3.0,4.0,62,0.00,,---,0.00,VWS V14.01,2013-11-15 14:19:00,
2013-11-15 09:20:00,49.2,36.8,30.40,WNW,294,3.0,4.0,62,0.00,,---,0.00,VWS V14.01,2013-11-15 14:20:00,
2013-11-15 09:21:00,49.3,36.8,30.40,South,187,2.0,5.0,62,0.00,,---,0.00,VWS V14.01,2013-11-15 14:21:00,
2013-11-15 09:22:00,49.5,37.0,30.40,WSW,249,2.0,3.0,62,0.00,,---,0.00,VWS V14.01,2013-11-15 14:22:00,
2013-11-15 09:23:00,49.6,37.1,30.40,WSW,252,3.0,3.0,62,0.00,,---,0.00,VWS V14.01,2013-11-15 14:23:00,
2013-11-15 09:24:00,49.9,37.0,30.40,WSW,256,2.0,3.0,61,0.00,,---,0.00,VWS V14.01,2013-11-15 14:24:00,
2013-11-15 09:25:00,49.9,37.0,30.40,West,269,2.0,3.0,61,0.00,,---,0.00,VWS V14.01,2013-11-15 14:25:00,
2013-11-15 09:26:00,50.0,37.5,30.40,WSW,244,1.0,2.0,62,0.00,,---,0.00,VWS V14.01,2013-11-15 14:26:00,
2013-11-15 09:27:00,50.3,37.8,30.40,WSW,242,0.0,1.0,62,0.00,,---,0.00,VWS V14.01,2013-11-15 14:27:00,
2013-11-15 09:28:00,50.4,37.9,30.40,SW,215,5.0,5.0,62,0.00,,---,0.00,VWS V14.01,2013-11-15 14:28:00,
2013-11-15 09:29:00,50.7,37.8,30.40,SW,221,5.0,5.0,61,0.00,,---,0.00,VWS V14.01,2013-11-15 14:29:00,
2013-11-15 09:30:00,50.7,37.8,30.40,SW,232,5.0,5.0,61,0.00,,---,0.00,VWS V14.01,2013-11-15 14:30:00,
2013-11-15 09:31:00,50.9,37.9,30.40,West,263,3.0,7.0,61,0.00,,---,0.00,VWS V14.01,2013-11-15 14:31:00,
2013-11-15 09:32:00,51.0,37.6,30.40,SW,215,3.0,3.0,60,0.00,,---,0.00,VWS V14.01,2013-11-15 14:32:00,
2013-11-15 09:33:00,51.2,37.8,30.40,WSW,248,2.0,3.0,60,0.00,,---,0.00,VWS V14.01,2013-11-15 14:33:00,
2013-11-15 09:34:00,51.4,38.0,30.40,West,265,4.0,5.0,60,0.00,,---,0.00,VWS V14.01,2013-11-15 14:34:00,
2013-11-15 09:35:00,51.5,38.1,30.40,WSW,254,3.0,5.0,60,0.00,,---,0.00,VWS V14.01,2013-11-15 14:35:00,
2013-11-15 09:36:00,51.6,37.8,30.41,West,261,3.0,4.0,59,0.00,,---,0.00,VWS V14.01,2013-11-15 14:36:00,
2013-11-15 09:37:00,51.7,38.3,30.41,WSW,250,2.0,4.0,60,0.00,,---,0.00,VWS V14.01,2013-11-15 14:37:00,
2013-11-15 09:38:00,51.9,38.0,30.41,SW,222,4.0,5.0,59,0.00,,---,0.00,VWS V14.01,2013-11-15 14:38:00,
2013-11-15 09:39:00,52.1,38.2,30.40,SSW,206,1.0,2.0,59,0.00,,---,0.00,VWS V14.01,2013-11-15 14:39:00,
2013-11-15 09:40:00,52.1,38.2,30.40,SW,230,2.0,3.0,59,0.00,,---,0.00,VWS V14.01,2013-11-15 14:40:00,
2013-11-15 09:41:00,52.3,38.4,30.40,SW,227,1.0,4.0,59,0.00,,---,0.00,VWS V14.01,2013-11-15 14:41:00,
2013-11-15 09:42:00,52.4,38.5,30.41,SSW,197,2.0,2.0,59,0.00,,---,0.00,VWS V14.01,2013-11-15 14:42:00,
2013-11-15 09:43:00,52.6,38.7,30.41,WSW,248,2.0,3.0,59,0.00,,---,0.00,VWS V14.01,2013-11-15 14:43:00,
2013-11-15 09:44:00,53.0,38.6,30.41,SW,214,3.0,4.0,58,0.00,,---,0.00,VWS V14.01,2013-11-15 14:44:00,
2013-11-15 09:45:00,53.0,38.6,30.41,South,188,2.0,4.0,58,0.00,,---,0.00,VWS V14.01,2013-11-15 14:45:00,
2013-11-15 09:46:00,53.2,38.8,30.40,SSE,164,2.0,3.0,58,0.00,,---,0.00,VWS V14.01,2013-11-15 14:46:00,
2013-11-15 09:47:00,53.4,39.0,30.41,West,276,1.0,4.0,58,0.00,,---,0.00,VWS V14.01,2013-11-15 14:47:00,
2013-11-15 09:48:00,53.6,38.8,30.41,WSW,257,4.0,4.0,57,0.00,,---,0.00,VWS V14.01,2013-11-15 14:48:00,
2013-11-15 09:49:00,53.7,38.4,30.41,WSW,257,2.0,3.0,56,0.00,,---,0.00,VWS V14.01,2013-11-15 14:49:00,
2013-11-15 09:50:00,53.7,38.4,30.41,SW,223,1.0,3.0,56,0.00,,---,0.00,VWS V14.01,2013-11-15 14:50:00,
2013-11-15 09:51:00,53.9,39.0,30.41,South,182,0.0,1.0,57,0.00,,---,0.00,VWS V14.01,2013-11-15 14:51:00,
2013-11-15 09:52:00,54.0,39.1,30.41,South,190,3.0,4.0,57,0.00,,---,0.00,VWS V14.01,2013-11-15 14:52:00,
2013-11-15 09:53:00,54.2,38.9,30.41,WSW,252,2.0,3.0,56,0.00,,---,0.00,VWS V14.01,2013-11-15 14:53:00,
2013-11-15 09:54:00,54.6,39.2,30.41,SW,229,2.0,2.0,56,0.00,,---,0.00,VWS V14.01,2013-11-15 14:54:00,
2013-11-15 09:55:00,54.6,39.2,30.41,WSW,250,1.0,2.0,56,0.00,,---,0.00,VWS V14.01,2013-11-15 14:55:00,
2013-11-15 09:56:00,54.8,39.0,30.41,SW,222,2.0,2.0,55,0.00,,---,0.00,VWS V14.01,2013-11-15 14:56:00,
2013-11-15 09:57:00,54.9,39.0,30.41,West,269,3.0,4.0,55,0.00,,---,0.00,VWS V14.01,2013-11-15 14:57:00,
2013-11-15 09:58:00,55.0,38.7,30.41,WSW,246,3.0,4.0,54,0.00,,---,0.00,VWS V14.01,2013-11-15 14:58:00,
2013-11-15 09:59:00,55.0,38.7,30.41,WSW,246,3.0,4.0,54,0.00,,---,0.00,VWS V14.01,2013-11-15 14:59:00,
2013-11-15 10:01:00,55.1,38.8,30.41,WSW,249,4.0,4.0,54,0.00,,---,0.00,VWS V14.01,2013-11-15 15:01:00,
2013-11-15 10:02:00,55.2,38.4,30.41,SSW,210,1.0,5.0,53,0.00,,---,0.00,VWS V14.01,2013-11-15 15:02:00,
2013-11-15 10:03:00,55.3,38.5,30.41,WSW,249,4.0,4.0,53,0.00,,---,0.00,VWS V14.01,2013-11-15 15:03:00,
2013-11-15 10:04:00,55.3,38.5,30.41,West,259,6.0,6.0,53,0.00,,---,0.00,VWS V14.01,2013-11-15 15:04:00,
2013-11-15 10:05:00,55.4,37.6,30.41,SW,223,2.0,2.0,51,0.00,,---,0.00,VWS V14.01,2013-11-15 15:05:00,
2013-11-15 10:06:00,55.4,38.1,30.41,West,261,2.0,2.0,52,0.00,,---,0.00,VWS V14.01,2013-11-15 15:06:00,
2013-11-15 10:07:00,55.4,38.1,30.41,WSW,256,4.0,4.0,52,0.00,,---,0.00,VWS V14.01,2013-11-15 15:07:00,
2013-11-15 10:08:00,55.5,37.7,30.41,WSW,254,2.0,4.0,51,0.00,,---,0.00,VWS V14.01,2013-11-15 15:08:00,
2013-11-15 10:09:00,55.6,37.8,30.41,WSW,242,3.0,4.0,51,0.00,,---,0.00,VWS V14.01,2013-11-15 15:09:00,
2013-11-15 10:10:00,55.6,37.8,30.41,West,262,3.0,3.0,51,0.00,,---,0.00,VWS V14.01,2013-11-15 15:10:00,
2013-11-15 10:11:00,55.6,37.3,30.41,SW,229,6.0,6.0,50,0.00,,---,0.00,VWS V14.01,2013-11-15 15:11:00,
2013-11-15 10:12:00,55.6,37.3,30.41,WSW,238,4.0,6.0,50,0.00,,---,0.00,VWS V14.01,2013-11-15 15:12:00,
2013-11-15 10:13:00,55.6,37.3,30.41,SW,215,5.0,7.0,50,0.00,,---,0.00,VWS V14.01,2013-11-15 15:13:00,
2013-11-15 10:14:00,55.6,37.3,30.41,West,269,1.0,3.0,50,0.00,,---,0.00,VWS V14.01,2013-11-15 15:14:00,
2013-11-15 10:15:00,55.6,37.3,30.41,WNW,286,2.0,3.0,50,0.00,,---,0.00,VWS V14.01,2013-11-15 15:15:00,
2013-11-15 10:16:00,55.7,37.4,30.41,West,267,3.0,4.0,50,0.00,,---,0.00,VWS V14.01,2013-11-15 15:16:00,
2013-11-15 10:17:00,55.7,36.8,30.41,West,260,3.0,3.0,49,0.00,,---,0.00,VWS V14.01,2013-11-15 15:17:00,
2013-11-15 10:18:00,55.7,37.4,30.41,WSW,248,2.0,3.0,50,0.00,,---,0.00,VWS V14.01,2013-11-15 15:18:00,
2013-11-15 10:19:00,55.9,37.5,30.41,SW,222,1.0,1.0,50,0.00,,---,0.00,VWS V14.01,2013-11-15 15:19:00,
2013-11-15 10:20:00,55.9,37.5,30.41,West,260,0.0,1.0,50,0.00,,---,0.00,VWS V14.01,2013-11-15 15:20:00,
2013-11-15 10:21:00,56.1,38.2,30.41,WNW,284,3.0,3.0,51,0.00,,---,0.00,VWS V14.01,2013-11-15 15:21:00,
2013-11-15 10:22:00,56.1,37.2,30.41,WSW,248,4.0,4.0,49,0.00,,---,0.00,VWS V14.01,2013-11-15 15:22:00,
2013-11-15 10:23:00,56.2,37.3,30.41,WSW,256,3.0,4.0,49,0.00,,---,0.00,VWS V14.01,2013-11-15 15:23:00,
2013-11-15 10:24:00,56.3,37.9,30.41,SSW,195,3.0,3.0,50,0.00,,---,0.00,VWS V14.01,2013-11-15 15:24:00,
2013-11-15 10:25:00,56.4,37.5,30.41,WSW,240,2.0,3.0,49,0.00,,---,0.00,VWS V14.01,2013-11-15 15:25:00,
2013-11-15 10:26:00,56.5,37.6,30.41,WSW,245,1.0,3.0,49,0.00,,---,0.00,VWS V14.01,2013-11-15 15:26:00,
2013-11-15 10:27:00,56.5,37.6,30.40,WSW,246,4.0,4.0,49,0.00,,---,0.00,VWS V14.01,2013-11-15 15:27:00,
2013-11-15 10:28:00,56.6,37.7,30.41,WSW,257,2.0,4.0,49,0.00,,---,0.00,VWS V14.01,2013-11-15 15:28:00,
2013-11-15 10:29:00,56.7,37.2,30.41,SW,225,5.0,5.0,48,0.00,,---,0.00,VWS V14.01,2013-11-15 15:29:00,
2013-11-15 10:30:00,56.7,36.7,30.41,WNW,297,2.0,5.0,47,0.00,,---,0.00,VWS V14.01,2013-11-15 15:30:00,
2013-11-15 10:31:00,56.7,36.7,30.40,WSW,240,3.0,3.0,47,0.00,,---,0.00,VWS V14.01,2013-11-15 15:31:00,
2013-11-15 10:32:00,56.7,36.7,30.41,SW,232,4.0,5.0,47,0.00,,---,0.00,VWS V14.01,2013-11-15 15:32:00,
2013-11-15 10:33:00,56.6,36.6,30.41,WSW,248,3.0,5.0,47,0.00,,---,0.00,VWS V14.01,2013-11-15 15:33:00,
2013-11-15 10:34:00,56.7,36.7,30.41,SW,217,2.0,4.0,47,0.00,,---,0.00,VWS V14.01,2013-11-15 15:34:00,
2013-11-15 10:35:00,56.7,36.7,30.41,WSW,250,4.0,4.0,47,0.00,,---,0.00,VWS V14.01,2013-11-15 15:35:00,
2013-11-15 10:36:00,56.8,36.8,30.41,West,267,2.0,4.0,47,0.00,,---,0.00,VWS V14.01,2013-11-15 15:36:00,
2013-11-15 10:37:00,56.9,36.3,30.41,SW,221,0.0,2.0,46,0.00,,---,0.00,VWS V14.01,2013-11-15 15:37:00,
2013-11-15 10:38:00,57.0,36.4,30.40,SW,230,4.0,5.0,46,0.00,,---,0.00,VWS V14.01,2013-11-15 15:38:00,
2013-11-15 10:39:00,57.1,35.4,30.40,WSW,252,3.0,5.0,44,0.00,,---,0.00,VWS V14.01,2013-11-15 15:39:00,
2013-11-15 10:40:00,57.1,35.4,30.40,SW,219,3.0,5.0,44,0.00,,---,0.00,VWS V14.01,2013-11-15 15:40:00,
2013-11-15 10:41:00,57.1,36.0,30.40,West,264,3.0,3.0,45,0.00,,---,0.00,VWS V14.01,2013-11-15 15:41:00,
2013-11-15 10:42:00,57.2,36.1,30.40,SSW,203,3.0,3.0,45,0.00,,---,0.00,VWS V14.01,2013-11-15 15:42:00,
2013-11-15 10:43:00,57.3,36.2,30.40,South,191,5.0,5.0,45,0.00,,---,0.00,VWS V14.01,2013-11-15 15:43:00,
2013-11-15 10:44:00,57.5,35.8,30.40,West,280,1.0,1.0,44,0.00,,---,0.00,VWS V14.01,2013-11-15 15:44:00,
2013-11-15 10:45:00,57.5,35.8,30.40,WNW,291,1.0,2.0,44,0.00,,---,0.00,VWS V14.01,2013-11-15 15:45:00,
2013-11-15 10:46:00,57.6,35.9,30.40,SW,221,1.0,2.0,44,0.00,,---,0.00,VWS V14.01,2013-11-15 15:46:00,
2013-11-15 10:47:00,57.8,36.0,30.40,WSW,240,2.0,3.0,44,0.00,,---,0.00,VWS V14.01,2013-11-15 15:47:00,
2013-11-15 10:48:00,58.0,36.2,30.40,SW,229,2.0,3.0,44,0.00,,---,0.00,VWS V14.01,2013-11-15 15:48:00,
2013-11-15 10:49:00,58.2,36.4,30.40,SSW,194,2.0,3.0,44,0.00,,---,0.00,VWS V14.01,2013-11-15 15:49:00,
2013-11-15 10:50:00,58.3,36.5,30.40,SW,219,1.0,3.0,44,0.00,,---,0.00,VWS V14.01,2013-11-15 15:50:00,
2013-11-15 10:51:00,58.4,36.6,30.40,WNW,287,1.0,3.0,44,0.00,,---,0.00,VWS V14.01,2013-11-15 15:51:00,
2013-11-15 10:52:00,58.5,36.7,30.40,WSW,256,2.0,3.0,44,0.00,,---,0.00,VWS V14.01,2013-11-15 15:52:00,
2013-11-15 10:53:00,58.6,36.2,30.40,SW,214,4.0,4.0,43,0.00,,---,0.00,VWS V14.01,2013-11-15 15:53:00,
2013-11-15 10:54:00,58.6,36.2,30.39,SW,236,2.0,3.0,43,0.00,,---,0.00,VWS V14.01,2013-11-15 15:54:00,
2013-11-15 10:55:00,58.6,36.2,30.39,WSW,254,2.0,3.0,43,0.00,,---,0.00,VWS V14.01,2013-11-15 15:55:00,
2013-11-15 10:56:00,58.6,36.8,30.39,West,259,1.0,2.0,44,0.00,,---,0.00,VWS V14.01,2013-11-15 15:56:00,
2013-11-15 10:57:00,58.6,36.8,30.39,SSW,209,3.0,3.0,44,0.00,,---,0.00,VWS V14.01,2013-11-15 15:57:00,
2013-11-15 10:58:00,58.8,36.4,30.39,SSW,195,3.0,3.0,43,0.00,,---,0.00,VWS V14.01,2013-11-15 15:58:00,
2013-11-15 10:59:00,59.0,36.6,30.39,West,259,1.0,1.0,43,0.00,,---,0.00,VWS V14.01,2013-11-15 15:59:00,
2013-11-15 11:01:00,59.1,37.2,30.39,WSW,237,5.0,5.0,44,0.00,,---,0.00,VWS V14.01,2013-11-15 16:01:00,
2013-11-15 11:02:00,59.3,36.8,30.39,South,182,2.0,4.0,43,0.00,,---,0.00,VWS V14.01,2013-11-15 16:02:00,
2013-11-15 11:03:00,59.5,37.0,30.39,South,187,1.0,3.0,43,0.00,,---,0.00,VWS V14.01,2013-11-15 16:03:00,
2013-11-15 11:04:00,59.7,37.2,30.39,SW,223,1.0,3.0,43,0.00,,---,0.00,VWS V14.01,2013-11-15 16:04:00,
2013-11-15 11:05:00,59.8,37.3,30.39,SSW,193,3.0,4.0,43,0.00,,---,0.00,VWS V14.01,2013-11-15 16:05:00,
2013-11-15 11:06:00,60.0,36.9,30.39,SSW,199,4.0,4.0,42,0.00,,---,0.00,VWS V14.01,2013-11-15 16:06:00,
2013-11-15 11:07:00,60.1,37.0,30.39,SSE,168,1.0,4.0,42,0.00,,---,0.00,VWS V14.01,2013-11-15 16:07:00,
2013-11-15 11:08:00,60.2,37.0,30.39,SSW,207,2.0,4.0,42,0.00,,---,0.00,VWS V14.01,2013-11-15 16:08:00,
2013-11-15 11:09:00,60.4,37.2,30.39,South,180,2.0,2.0,42,0.00,,---,0.00,VWS V14.01,2013-11-15 16:09:00,
2013-11-15 11:10:00,60.4,37.2,30.39,ESE,112,1.0,2.0,42,0.00,,---,0.00,VWS V14.01,2013-11-15 16:10:00,
2013-11-15 11:11:00,60.6,37.4,30.39,WSW,238,3.0,3.0,42,0.00,,---,0.00,VWS V14.01,2013-11-15 16:11:00,
2013-11-15 11:12:00,60.7,37.5,30.39,West,281,4.0,4.0,42,0.00,,---,0.00,VWS V14.01,2013-11-15 16:12:00,
2013-11-15 11:13:00,60.7,37.5,30.39,SW,233,2.0,4.0,42,0.00,,---,0.00,VWS V14.01,2013-11-15 16:13:00,
2013-11-15 11:14:00,60.7,37.5,30.39,SE,137,3.0,3.0,42,0.00,,---,0.00,VWS V14.01,2013-11-15 16:14:00,
2013-11-15 11:15:00,60.8,37.6,30.39,SSE,161,3.0,3.0,42,0.00,,---,0.00,VWS V14.01,2013-11-15 16:15:00,
2013-11-15 11:16:00,61.0,37.8,30.39,South,178,2.0,3.0,42,0.00,,---,0.00,VWS V14.01,2013-11-15 16:16:00,
2013-11-15 11:17:00,61.2,38.0,30.39,South,169,2.0,2.0,42,0.00,,---,0.00,VWS V14.01,2013-11-15 16:17:00,
2013-11-15 11:18:00,61.3,38.0,30.39,West,281,1.0,2.0,42,0.00,,---,0.00,VWS V14.01,2013-11-15 16:18:00,
2013-11-15 11:19:00,61.5,38.2,30.39,SSW,209,3.0,3.0,42,0.00,,---,0.00,VWS V14.01,2013-11-15 16:19:00,
2013-11-15 11:20:00,61.6,37.7,30.39,SSW,207,3.0,4.0,41,0.00,,---,0.00,VWS V14.01,2013-11-15 16:20:00,
2013-11-15 11:21:00,61.6,37.7,30.39,SSW,194,1.0,3.0,41,0.00,,---,0.00,VWS V14.01,2013-11-15 16:21:00,
2013-11-15 11:22:00,61.7,37.8,30.39,SW,223,2.0,3.0,41,0.00,,---,0.00,VWS V14.01,2013-11-15 16:22:00,
2013-11-15 11:23:00,61.7,37.8,30.39,West,267,0.0,2.0,41,0.00,,---,0.00,VWS V14.01,2013-11-15 16:23:00,
2013-11-15 11:24:00,61.8,37.9,30.39,WSW,249,4.0,4.0,41,0.00,,---,0.00,VWS V14.01,2013-11-15 16:24:00,
2013-11-15 11:25:00,61.7,37.8,30.39,WSW,253,5.0,5.0,41,0.00,,---,0.00,VWS V14.01,2013-11-15 16:25:00,
2013-11-15 11:26:00,61.6,37.7,30.39,SW,233,2.0,5.0,41,0.00,,---,0.00,VWS V14.01,2013-11-15 16:26:00,
2013-11-15 11:27:00,61.5,37.6,30.39,West,263,1.0,2.0,41,0.00,,---,0.00,VWS V14.01,2013-11-15 16:27:00,
2013-11-15 11:28:00,61.5,38.2,30.39,West,264,2.0,2.0,42,0.00,,---,0.00,VWS V14.01,2013-11-15 16:28:00,
2013-11-15 11:29:00,61.5,38.2,30.38,West,267,3.0,3.0,42,0.00,,---,0.00,VWS V14.01,2013-11-15 16:29:00,
2013-11-15 11:30:00,61.5,38.2,30.38,WSW,257,1.0,3.0,42,0.00,,---,0.00,VWS V14.01,2013-11-15 16:30:00,
2013-11-15 11:31:00,61.6,38.3,30.38,WSW,257,1.0,1.0,42,0.00,,---,0.00,VWS V14.01,2013-11-15 16:31:00,
2013-11-15 11:32:00,61.6,38.3,30.38,West,275,4.0,4.0,42,0.00,,---,0.00,VWS V14.01,2013-11-15 16:32:00,
2013-11-15 11:33:00,61.6,38.3,30.38,West,272,2.0,4.0,42,0.00,,---,0.00,VWS V14.01,2013-11-15 16:33:00,
2013-11-15 11:34:00,61.7,39.0,30.38,WSW,250,4.0,4.0,43,0.00,,---,0.00,VWS V14.01,2013-11-15 16:34:00,
2013-11-15 11:35:00,61.7,39.0,30.38,SSW,196,3.0,4.0,43,0.00,,---,0.00,VWS V14.01,2013-11-15 16:35:00,
2013-11-15 11:36:00,61.7,39.0,30.38,WNW,286,1.0,3.0,43,0.00,,---,0.00,VWS V14.01,2013-11-15 16:36:00,
2013-11-15 11:37:00,61.8,39.1,30.38,SW,230,3.0,5.0,43,0.00,,---,0.00,VWS V14.01,2013-11-15 16:37:00,
2013-11-15 11:38:00,61.9,39.2,30.38,WSW,247,3.0,3.0,43,0.00,,---,0.00,VWS V14.01,2013-11-15 16:38:00,
2013-11-15 11:39:00,61.9,39.2,30.37,SSW,206,1.0,1.0,43,0.00,,---,0.00,VWS V14.01,2013-11-15 16:39:00,
2013-11-15 11:40:00,61.9,39.2,30.37,SW,225,1.0,1.0,43,0.00,,---,0.00,VWS V14.01,2013-11-15 16:40:00,
2013-11-15 11:41:00,62.0,39.3,30.37,West,273,1.0,2.0,43,0.00,,---,0.00,VWS V14.01,2013-11-15 16:41:00,
2013-11-15 11:42:00,62.0,39.9,30.37,West,261,5.0,7.0,44,0.00,,---,0.00,VWS V14.01,2013-11-15 16:42:00,
2013-11-15 11:43:00,62.0,39.9,30.37,WSW,240,3.0,5.0,44,0.00,,---,0.00,VWS V14.01,2013-11-15 16:43:00,
2013-11-15 11:44:00,62.0,39.9,30.37,South,182,1.0,4.0,44,0.00,,---,0.00,VWS V14.01,2013-11-15 16:44:00,
2013-11-15 11:45:00,62.0,39.9,30.37,SSW,209,0.0,4.0,44,0.00,,---,0.00,VWS V14.01,2013-11-15 16:45:00,
2013-11-15 11:46:00,62.1,40.5,30.37,SSE,157,4.0,4.0,45,0.00,,---,0.00,VWS V14.01,2013-11-15 16:46:00,
2013-11-15 11:47:00,62.2,40.6,30.37,SSW,207,1.0,4.0,45,0.00,,---,0.00,VWS V14.01,2013-11-15 16:47:00,
2013-11-15 11:48:00,62.2,40.6,30.37,WNW,290,5.0,5.0,45,0.00,,---,0.00,VWS V14.01,2013-11-15 16:48:00,
2013-11-15 11:49:00,62.2,40.0,30.37,West,271,3.0,4.0,44,0.00,,---,0.00,VWS V14.01,2013-11-15 16:49:00,
2013-11-15 11:50:00,62.1,40.0,30.37,WSW,253,3.0,4.0,44,0.00,,---,0.00,VWS V14.01,2013-11-15 16:50:00,
2013-11-15 11:51:00,62.1,40.0,30.37,SW,225,3.0,4.0,44,0.00,,---,0.00,VWS V14.01,2013-11-15 16:51:00,
2013-11-15 11:52:00,62.0,40.4,30.37,WNW,297,0.0,3.0,45,0.00,,---,0.00,VWS V14.01,2013-11-15 16:52:00,
2013-11-15 11:53:00,62.0,39.9,30.37,West,271,1.0,3.0,44,0.00,,---,0.00,VWS V14.01,2013-11-15 16:53:00,
2013-11-15 11:54:00,62.1,40.5,30.37,SW,217,1.0,1.0,45,0.00,,---,0.00,VWS V14.01,2013-11-15 16:54:00,
2013-11-15 11:55:00,62.1,40.5,30.37,SW,217,0.0,1.0,45,0.00,,---,0.00,VWS V14.01,2013-11-15 16:55:00,
2013-11-15 11:56:00,62.3,40.7,30.36,SE,143,2.0,2.0,45,0.00,,---,0.00,VWS V14.01,2013-11-15 16:56:00,
2013-11-15 11:57:00,62.4,40.8,30.36,SW,236,2.0,3.0,45,0.00,,---,0.00,VWS V14.01,2013-11-15 16:57:00,
2013-11-15 11:58:00,62.5,40.9,30.36,SSE,159,2.0,2.0,45,0.00,,---,0.00,VWS V14.01,2013-11-15 16:58:00,
2013-11-15 11:59:00,62.8,41.2,30.36,SW,221,4.0,4.0,45,0.00,,---,0.00,VWS V14.01,2013-11-15 16:59:00,
2013-11-15 12:01:00,62.8,41.2,30.36,SSW,196,2.0,4.0,45,0.00,,---,0.00,VWS V14.01,2013-11-15 17:01:00,
2013-11-15 12:02:00,63.0,41.3,30.36,SE,136,2.0,2.0,45,0.00,,---,0.00,VWS V14.01,2013-11-15 17:02:00,
2013-11-15 12:03:00,63.0,41.3,30.36,South,180,4.0,4.0,45,0.00,,---,0.00,VWS V14.01,2013-11-15 17:03:00,
2013-11-15 12:04:00,63.1,41.4,30.36,SW,230,3.0,4.0,45,0.00,,---,0.00,VWS V14.01,2013-11-15 17:04:00,
2013-11-15 12:05:00,63.1,41.4,30.36,SSW,203,2.0,4.0,45,0.00,,---,0.00,VWS V14.01,2013-11-15 17:05:00,
2013-11-15 12:06:00,63.1,40.9,30.36,SSE,163,2.0,5.0,44,0.00,,---,0.00,VWS V14.01,2013-11-15 17:06:00,
2013-11-15 12:07:00,63.1,41.4,30.36,SSE,155,3.0,3.0,45,0.00,,---,0.00,VWS V14.01,2013-11-15 17:07:00,
2013-11-15 12:08:00,63.1,40.9,30.36,WSW,244,2.0,3.0,44,0.00,,---,0.00,VWS V14.01,2013-11-15 17:08:00,
2013-11-15 12:09:00,63.1,41.4,30.35,SSE,162,3.0,3.0,45,0.00,,---,0.00,VWS V14.01,2013-11-15 17:09:00,
2013-11-15 12:10:00,63.1,41.4,30.35,South,188,3.0,3.0,45,0.00,,---,0.00,VWS V14.01,2013-11-15 17:10:00,
2013-11-15 12:11:00,63.1,41.4,30.35,SSW,198,2.0,3.0,45,0.00,,---,0.00,VWS V14.01,2013-11-15 17:11:00,
2013-11-15 12:12:00,63.1,41.4,30.35,South,183,1.0,2.0,45,0.00,,---,0.00,VWS V14.01,2013-11-15 17:12:00,
2013-11-15 12:13:00,63.1,41.4,30.35,SE,142,1.0,2.0,45,0.00,,---,0.00,VWS V14.01,2013-11-15 17:13:00,
2013-11-15 12:14:00,63.2,41.5,30.35,SSE,150,1.0,1.0,45,0.00,,---,0.00,VWS V14.01,2013-11-15 17:14:00,
2013-11-15 12:15:00,63.2,41.5,30.35,South,179,2.0,2.0,45,0.00,,---,0.00,VWS V14.01,2013-11-15 17:15:00,
2013-11-15 12:16:00,63.3,41.6,30.35,SSE,149,2.0,4.0,45,0.00,,---,0.00,VWS V14.01,2013-11-15 17:16:00,
2013-11-15 12:17:00,63.3,42.2,30.35,South,186,1.0,2.0,46,0.00,,---,0.00,VWS V14.01,2013-11-15 17:17:00,
2013-11-15 12:18:00,63.4,42.3,30.35,WNW,286,1.0,1.0,46,0.00,,---,0.00,VWS V14.01,2013-11-15 17:18:00,
2013-11-15 12:19:00,63.4,41.7,30.35,West,260,1.0,2.0,45,0.00,,---,0.00,VWS V14.01,2013-11-15 17:19:00,
2013-11-15 12:20:00,63.4,41.7,30.35,West,272,1.0,2.0,45,0.00,,---,0.00,VWS V14.01,2013-11-15 17:20:00,
2013-11-15 12:21:00,63.3,41.6,30.35,West,272,0.0,1.0,45,0.00,,---,0.00,VWS V14.01,2013-11-15 17:21:00,
2013-11-15 12:22:00,63.3,41.6,30.35,WSW,238,2.0,2.0,45,0.00,,---,0.00,VWS V14.01,2013-11-15 17:22:00,
2013-11-15 12:23:00,63.3,41.6,30.35,WSW,245,4.0,4.0,45,0.00,,---,0.00,VWS V14.01,2013-11-15 17:23:00,
2013-11-15 12:24:00,63.2,41.5,30.35,WSW,252,2.0,4.0,45,0.00,,---,0.00,VWS V14.01,2013-11-15 17:24:00,
2013-11-15 12:25:00,63.1,41.4,30.35,WSW,256,1.0,4.0,45,0.00,,---,0.00,VWS V14.01,2013-11-15 17:25:00,
2013-11-15 12:26:00,63.0,41.9,30.35,WNW,286,1.0,1.0,46,0.00,,---,0.00,VWS V14.01,2013-11-15 17:26:00,
2013-11-15 12:27:00,63.0,41.9,30.35,WSW,244,1.0,1.0,46,0.00,,---,0.00,VWS V14.01,2013-11-15 17:27:00,
2013-11-15 12:28:00,63.0,41.9,30.34,WNW,284,1.0,2.0,46,0.00,,---,0.00,VWS V14.01,2013-11-15 17:28:00,
2013-11-15 12:29:00,63.0,41.9,30.34,WNW,290,2.0,2.0,46,0.00,,---,0.00,VWS V14.01,2013-11-15 17:29:00,
2013-11-15 12:30:00,63.0,41.9,30.34,WNW,284,3.0,3.0,46,0.00,,---,0.00,VWS V14.01,2013-11-15 17:30:00,
2013-11-15 12:31:00,63.0,42.5,30.34,WNW,289,4.0,4.0,47,0.00,,---,0.00,VWS V14.01,2013-11-15 17:31:00,
2013-11-15 12:32:00,63.0,42.5,30.34,West,264,3.0,4.0,47,0.00,,---,0.00,VWS V14.01,2013-11-15 17:32:00,
2013-11-15 12:33:00,62.9,42.4,30.34,SW,233,1.0,3.0,47,0.00,,---,0.00,VWS V14.01,2013-11-15 17:33:00,
2013-11-15 12:34:00,63.0,42.5,30.34,West,272,1.0,1.0,47,0.00,,---,0.00,VWS V14.01,2013-11-15 17:34:00,
2013-11-15 12:35:00,63.0,43.0,30.34,WSW,250,2.0,2.0,48,0.00,,---,0.00,VWS V14.01,2013-11-15 17:35:00,
2013-11-15 12:36:00,63.0,43.0,30.34,West,269,0.0,2.0,48,0.00,,---,0.00,VWS V14.01,2013-11-15 17:36:00,
2013-11-15 12:37:00,63.1,43.1,30.34,WSW,245,3.0,3.0,48,0.00,,---,0.00,VWS V14.01,2013-11-15 17:37:00,
2013-11-15 12:38:00,63.2,43.2,30.34,SW,230,2.0,3.0,48,0.00,,---,0.00,VWS V14.01,2013-11-15 17:38:00,
2013-11-15 12:39:00,63.2,43.7,30.33,West,272,2.0,2.0,49,0.00,,---,0.00,VWS V14.01,2013-11-15 17:39:00,
2013-11-15 12:40:00,63.2,43.7,30.33,West,264,1.0,2.0,49,0.00,,---,0.00,VWS V14.01,2013-11-15 17:40:00,
2013-11-15 12:41:00,63.3,43.8,30.33,West,279,2.0,2.0,49,0.00,,---,0.00,VWS V14.01,2013-11-15 17:41:00,
2013-11-15 12:42:00,63.4,43.9,30.33,WSW,248,1.0,2.0,49,0.00,,---,0.00,VWS V14.01,2013-11-15 17:42:00,
2013-11-15 12:43:00,63.4,44.5,30.33,WSW,248,3.0,3.0,50,0.00,,---,0.00,VWS V14.01,2013-11-15 17:43:00,
2013-11-15 12:44:00,63.4,44.5,30.33,WSW,240,2.0,3.0,50,0.00,,---,0.00,VWS V14.01,2013-11-15 17:44:00,
2013-11-15 12:45:00,63.4,44.5,30.33,SW,225,3.0,5.0,50,0.00,,---,0.00,VWS V14.01,2013-11-15 17:45:00,
2013-11-15 12:46:00,63.3,44.4,30.33,SW,217,2.0,3.0,50,0.00,,---,0.00,VWS V14.01,2013-11-15 17:46:00,
2013-11-15 12:47:00,63.3,44.4,30.33,SSW,203,1.0,2.0,50,0.00,,---,0.00,VWS V14.01,2013-11-15 17:47:00,
2013-11-15 12:48:00,63.3,44.4,30.33,SW,233,4.0,4.0,50,0.00,,---,0.00,VWS V14.01,2013-11-15 17:48:00,
2013-11-15 12:49:00,63.3,44.9,30.33,West,264,2.0,3.0,51,0.00,,---,0.00,VWS V14.01,2013-11-15 17:49:00,
2013-11-15 12:50:00,63.3,44.9,30.33,SW,232,2.0,3.0,51,0.00,,---,0.00,VWS V14.01,2013-11-15 17:50:00,
2013-11-15 12:51:00,63.3,44.9,30.33,SW,215,2.0,2.0,51,0.00,,---,0.00,VWS V14.01,2013-11-15 17:51:00,
2013-11-15 12:52:00,63.3,44.9,30.33,West,277,1.0,2.0,51,0.00,,---,0.00,VWS V14.01,2013-11-15 17:52:00,
2013-11-15 12:53:00,63.4,45.0,30.33,WSW,257,3.0,3.0,51,0.00,,---,0.00,VWS V14.01,2013-11-15 17:53:00,
2013-11-15 12:54:00,63.4,45.0,30.33,SW,221,1.0,3.0,51,0.00,,---,0.00,VWS V14.01,2013-11-15 17:54:00,
2013-11-15 12:55:00,63.4,45.0,30.33,SW,221,1.0,3.0,51,0.00,,---,0.00,VWS V14.01,2013-11-15 17:55:00,
2013-11-15 12:56:00,63.4,45.0,30.33,SW,221,0.0,1.0,51,0.00,,---,0.00,VWS V14.01,2013-11-15 17:56:00,
2013-11-15 12:57:00,63.5,45.1,30.33,West,277,3.0,3.0,51,0.00,,---,0.00,VWS V14.01,2013-11-15 17:57:00,
2013-11-15 12:58:00,63.5,45.1,30.33,West,276,5.0,5.0,51,0.00,,---,0.00,VWS V14.01,2013-11-15 17:58:00,
2013-11-15 12:59:00,63.4,45.5,30.33,WNW,286,3.0,3.0,52,0.00,,---,0.00,VWS V14.01,2013-11-15 17:59:00,
2013-11-15 13:01:00,63.4,45.5,30.33,West,265,4.0,4.0,52,0.00,,---,0.00,VWS V14.01,2013-11-15 18:01:00,
2013-11-15 13:02:00,63.4,45.5,30.33,West,268,2.0,2.0,52,0.00,,---,0.00,VWS V14.01,2013-11-15 18:02:00,
2013-11-15 13:03:00,63.4,46.0,30.33,WSW,256,4.0,4.0,53,0.00,,---,0.00,VWS V14.01,2013-11-15 18:03:00,
2013-11-15 13:04:00,63.4,45.5,30.33,SW,225,1.0,4.0,52,0.00,,---,0.00,VWS V14.01,2013-11-15 18:04:00,
2013-11-15 13:05:00,63.4,45.5,30.33,SSW,199,3.0,4.0,52,0.00,,---,0.00,VWS V14.01,2013-11-15 18:05:00,
2013-11-15 13:06:00,63.4,45.5,30.33,SW,227,6.0,6.0,52,0.00,,---,0.00,VWS V14.01,2013-11-15 18:06:00,
2013-11-15 13:07:00,63.4,45.5,30.33,South,178,1.0,6.0,52,0.00,,---,0.00,VWS V14.01,2013-11-15 18:07:00,
2013-11-15 13:08:00,63.4,45.5,30.33,SE,141,0.0,2.0,52,0.00,,---,0.00,VWS V14.01,2013-11-15 18:08:00,
2013-11-15 13:09:00,63.5,46.1,30.33,WSW,252,3.0,3.0,53,0.00,,---,0.00,VWS V14.01,2013-11-15 18:09:00,
2013-11-15 13:10:00,63.5,46.1,30.33,West,261,1.0,3.0,53,0.00,,---,0.00,VWS V14.01,2013-11-15 18:10:00,
2013-11-15 13:11:00,63.5,46.1,30.33,WSW,240,2.0,3.0,53,0.00,,---,0.00,VWS V14.01,2013-11-15 18:11:00,
2013-11-15 13:12:00,63.6,46.2,30.32,West,276,3.0,3.0,53,0.00,,---,0.00,VWS V14.01,2013-11-15 18:12:00,
2013-11-15 13:13:00,63.6,46.2,30.32,WNW,300,3.0,3.0,53,0.00,,---,0.00,VWS V14.01,2013-11-15 18:13:00,
2013-11-15 13:14:00,63.5,46.1,30.32,WNW,294,4.0,4.0,53,0.00,,---,0.00,VWS V14.01,2013-11-15 18:14:00,
2013-11-15 13:15:00,63.5,46.1,30.32,WNW,284,3.0,4.0,53,0.00,,---,0.00,VWS V14.01,2013-11-15 18:15:00,
2013-11-15 13:16:00,63.5,46.1,30.32,West,267,3.0,3.0,53,0.00,,---,0.00,VWS V14.01,2013-11-15 18:16:00,
2013-11-15 13:17:00,63.5,46.1,30.32,SW,227,2.0,3.0,53,0.00,,---,0.00,VWS V14.01,2013-11-15 18:17:00,
2013-11-15 13:18:00,63.5,46.1,30.32,SW,225,2.0,2.0,53,0.00,,---,0.00,VWS V14.01,2013-11-15 18:18:00,
2013-11-15 13:19:00,63.5,46.6,30.32,WNW,283,1.0,2.0,54,0.00,,---,0.00,VWS V14.01,2013-11-15 18:19:00,
2013-11-15 13:20:00,63.5,46.6,30.32,WSW,245,2.0,2.0,54,0.00,,---,0.00,VWS V14.01,2013-11-15 18:20:00,
2013-11-15 13:21:00,63.6,46.7,30.32,West,263,1.0,3.0,54,0.00,,---,0.00,VWS V14.01,2013-11-15 18:21:00,
2013-11-15 13:22:00,63.6,46.7,30.32,West,275,1.0,2.0,54,0.00,,---,0.00,VWS V14.01,2013-11-15 18:22:00,
2013-11-15 13:23:00,63.7,47.2,30.32,West,269,4.0,4.0,55,0.00,,---,0.00,VWS V14.01,2013-11-15 18:23:00,
2013-11-15 13:24:00,63.7,47.7,30.32,WSW,250,2.0,3.0,56,0.00,,---,0.00,VWS V14.01,2013-11-15 18:24:00,
2013-11-15 13:25:00,63.7,47.7,30.32,WSW,237,0.0,3.0,56,0.00,,---,0.00,VWS V14.01,2013-11-15 18:25:00,
2013-11-15 13:26:00,63.8,47.8,30.32,SE,140,1.0,3.0,56,0.00,,---,0.00,VWS V14.01,2013-11-15 18:26:00,
2013-11-15 13:27:00,64.0,48.0,30.32,SSE,153,2.0,2.0,56,0.00,,---,0.00,VWS V14.01,2013-11-15 18:27:00,
2013-11-15 13:28:00,64.1,48.1,30.32,SE,141,4.0,4.0,56,0.00,,---,0.00,VWS V14.01,2013-11-15 18:28:00,
2013-11-15 13:29:00,64.2,48.2,30.32,WSW,249,0.0,1.0,56,0.00,,---,0.00,VWS V14.01,2013-11-15 18:29:00,
2013-11-15 13:30:00,64.2,48.2,30.32,WSW,252,2.0,2.0,56,0.00,,---,0.00,VWS V14.01,2013-11-15 18:30:00,
2013-11-15 13:31:00,64.2,47.7,30.32,SSE,165,3.0,3.0,55,0.00,,---,0.00,VWS V14.01,2013-11-15 18:31:00,
2013-11-15 13:32:00,64.2,47.7,30.32,SW,223,2.0,3.0,55,0.00,,---,0.00,VWS V14.01,2013-11-15 18:32:00,
2013-11-15 13:33:00,64.2,47.7,30.32,South,187,3.0,3.0,55,0.00,,---,0.00,VWS V14.01,2013-11-15 18:33:00,
2013-11-15 13:34:00,64.2,47.7,30.32,SSE,167,2.0,3.0,55,0.00,,---,0.00,VWS V14.01,2013-11-15 18:34:00,
2013-11-15 13:35:00,64.2,47.7,30.32,South,184,3.0,3.0,55,0.00,,---,0.00,VWS V14.01,2013-11-15 18:35:00,
2013-11-15 13:36:00,64.3,48.3,30.32,SSE,164,2.0,3.0,56,0.00,,---,0.00,VWS V14.01,2013-11-15 18:36:00,
2013-11-15 13:37:00,64.3,47.8,30.32,South,183,3.0,3.0,55,0.00,,---,0.00,VWS V14.01,2013-11-15 18:37:00,
2013-11-15 13:38:00,64.3,47.8,30.32,ESE,118,1.0,3.0,55,0.00,,---,0.00,VWS V14.01,2013-11-15 18:38:00,
2013-11-15 13:39:00,64.3,47.8,30.32,West,277,2.0,2.0,55,0.00,,---,0.00,VWS V14.01,2013-11-15 18:39:00,
2013-11-15 13:40:00,64.3,47.8,30.32,West,275,1.0,2.0,55,0.00,,---,0.00,VWS V14.01,2013-11-15 18:40:00,
2013-11-15 13:41:00,64.2,47.7,30.32,SW,217,5.0,6.0,55,0.00,,---,0.00,VWS V14.01,2013-11-15 18:41:00,
2013-11-15 13:42:00,64.1,48.1,30.32,SW,218,5.0,5.0,56,0.00,,---,0.00,VWS V14.01,2013-11-15 18:42:00,
2013-11-15 13:43:00,63.9,47.4,30.32,WSW,256,5.0,5.0,55,0.00,,---,0.00,VWS V14.01,2013-11-15 18:43:00,
2013-11-15 13:44:00,63.7,47.7,30.32,WSW,242,4.0,4.0,56,0.00,,---,0.00,VWS V14.01,2013-11-15 18:44:00,
2013-11-15 13:45:00,63.7,47.7,30.32,WSW,242,4.0,4.0,56,0.00,,---,0.00,VWS V14.01,2013-11-15 18:45:00,
2013-11-15 13:46:00,63.5,47.5,30.32,WSW,237,3.0,5.0,56,0.00,,---,0.00,VWS V14.01,2013-11-15 18:46:00,
2013-11-15 13:47:00,63.4,47.5,30.32,SSW,202,2.0,3.0,56,0.00,,---,0.00,VWS V14.01,2013-11-15 18:47:00,
2013-11-15 13:48:00,63.3,47.3,30.32,West,260,0.0,2.0,56,0.00,,---,0.00,VWS V14.01,2013-11-15 18:48:00,
2013-11-15 13:49:00,63.3,47.8,30.32,West,259,3.0,4.0,57,0.00,,---,0.00,VWS V14.01,2013-11-15 18:49:00,
2013-11-15 13:50:00,63.3,47.8,30.32,West,260,4.0,4.0,57,0.00,,---,0.00,VWS V14.01,2013-11-15 18:50:00,
2013-11-15 13:51:00,63.2,47.7,30.32,WSW,248,2.0,5.0,57,0.00,,---,0.00,VWS V14.01,2013-11-15 18:51:00,
2013-11-15 13:52:00,63.2,47.7,30.32,SW,217,3.0,3.0,57,0.00,,---,0.00,VWS V14.01,2013-11-15 18:52:00,
2013-11-15 13:53:00,63.1,47.6,30.32,SW,217,3.0,3.0,57,0.00,,---,0.00,VWS V14.01,2013-11-15 18:53:00,
2013-11-15 13:54:00,63.1,47.6,30.32,SSW,202,3.0,5.0,57,0.00,,---,0.00,VWS V14.01,2013-11-15 18:54:00,
2013-11-15 13:55:00,63.0,47.5,30.32,SW,233,5.0,5.0,57,0.00,,---,0.00,VWS V14.01,2013-11-15 18:55:00,
2013-11-15 13:56:00,63.0,47.5,30.32,WSW,246,2.0,6.0,57,0.00,,---,0.00,VWS V14.01,2013-11-15 18:56:00,
2013-11-15 13:57:00,63.0,47.5,30.32,WSW,249,1.0,3.0,57,0.00,,---,0.00,VWS V14.01,2013-11-15 18:57:00,
2013-11-15 13:58:00,63.0,48.0,30.32,SW,215,1.0,1.0,58,0.00,,---,0.00,VWS V14.01,2013-11-15 18:58:00,
2013-11-15 13:59:00,63.0,48.0,30.32,South,175,6.0,9.0,58,0.00,,---,0.00,VWS V14.01,2013-11-15 18:59:00,
2013-11-15 14:00:00,63.0,48.5,30.32,South,186,4.0,9.0,59,0.00,,---,0.00,VWS V14.01,2013-11-15 19:00:00,
2013-11-15 14:01:00,63.0,48.5,30.32,SSE,159,5.0,5.0,59,0.00,,---,0.00,VWS V14.01,2013-11-15 19:01:00,
2013-11-15 14:02:00,62.9,48.4,30.32,SW,221,5.0,7.0,59,0.00,,---,0.00,VWS V14.01,2013-11-15 19:02:00,
2013-11-15 14:03:00,62.8,48.3,30.32,SSE,152,2.0,5.0,59,0.00,,---,0.00,VWS V14.01,2013-11-15 19:03:00,
2013-11-15 14:04:00,62.7,48.2,30.31,South,187,1.0,3.0,59,0.00,,---,0.00,VWS V14.01,2013-11-15 19:04:00,
2013-11-15 14:05:00,62.7,48.2,30.31,SSW,211,2.0,3.0,59,0.00,,---,0.00,VWS V14.01,2013-11-15 19:05:00,
2013-11-15 14:06:00,62.7,48.2,30.32,WSW,247,1.0,2.0,59,0.00,,---,0.00,VWS V14.01,2013-11-15 19:06:00,
2013-11-15 14:07:00,62.7,48.2,30.31,SW,233,2.0,3.0,59,0.00,,---,0.00,VWS V14.01,2013-11-15 19:07:00,
2013-11-15 14:08:00,62.7,48.6,30.31,South,176,3.0,3.0,60,0.00,,---,0.00,VWS V14.01,2013-11-15 19:08:00,
2013-11-15 14:09:00,62.6,49.0,30.31,West,259,3.0,7.0,61,0.00,,---,0.00,VWS V14.01,2013-11-15 19:09:00,
2013-11-15 14:10:00,62.6,49.0,30.31,WSW,245,2.0,7.0,61,0.00,,---,0.00,VWS V14.01,2013-11-15 19:10:00,
2013-11-15 14:11:00,62.5,49.3,30.31,WSW,240,3.0,5.0,62,0.00,,---,0.00,VWS V14.01,2013-11-15 19:11:00,
2013-11-15 14:12:00,62.4,50.1,30.31,WSW,250,0.0,4.0,64,0.00,,---,0.00,VWS V14.01,2013-11-15 19:12:00,
2013-11-15 14:13:00,62.2,49.9,30.31,SSW,200,1.0,1.0,64,0.00,,---,0.00,VWS V14.01,2013-11-15 19:13:00,
2013-11-15 14:14:00,62.1,50.2,30.31,WSW,244,1.0,1.0,65,0.00,,---,0.00,VWS V14.01,2013-11-15 19:14:00,
2013-11-15 14:15:00,62.1,50.2,30.31,WSW,248,1.0,1.0,65,0.00,,---,0.00,VWS V14.01,2013-11-15 19:15:00,
2013-11-15 14:16:00,62.1,50.2,30.31,WNW,288,3.0,3.0,65,0.00,,---,0.00,VWS V14.01,2013-11-15 19:16:00,
2013-11-15 14:17:00,62.0,49.7,30.30,West,277,5.0,7.0,64,0.00,,---,0.00,VWS V14.01,2013-11-15 19:17:00,
2013-11-15 14:18:00,61.8,49.5,30.31,WSW,254,3.0,5.0,64,0.00,,---,0.00,VWS V14.01,2013-11-15 19:18:00,
2013-11-15 14:19:00,61.7,49.4,30.30,West,260,2.0,2.0,64,0.00,,---,0.00,VWS V14.01,2013-11-15 19:19:00,
2013-11-15 14:20:00,61.7,49.4,30.30,West,261,1.0,2.0,64,0.00,,---,0.00,VWS V14.01,2013-11-15 19:20:00,
2013-11-15 14:21:00,61.6,49.3,30.30,West,269,7.0,7.0,64,0.00,,---,0.00,VWS V14.01,2013-11-15 19:21:00,
2013-11-15 14:22:00,61.6,49.3,30.30,WSW,250,4.0,7.0,64,0.00,,---,0.00,VWS V14.01,2013-11-15 19:22:00,
2013-11-15 14:23:00,61.5,49.6,30.31,West,260,3.0,5.0,65,0.00,,---,0.00,VWS V14.01,2013-11-15 19:23:00,
2013-11-15 14:24:00,61.4,50.0,30.31,WSW,254,5.0,6.0,66,0.00,,---,0.00,VWS V14.01,2013-11-15 19:24:00,
2013-11-15 14:25:00,61.3,49.9,30.31,West,272,3.0,6.0,66,0.00,,---,0.00,VWS V14.01,2013-11-15 19:25:00,
2013-11-15 14:26:00,61.2,49.8,30.30,West,278,4.0,4.0,66,0.00,,---,0.00,VWS V14.01,2013-11-15 19:26:00,
2013-11-15 14:27:00,61.1,50.1,30.30,WNW,291,5.0,5.0,67,0.00,,---,0.00,VWS V14.01,2013-11-15 19:27:00,
2013-11-15 14:28:00,61.1,50.1,30.30,West,268,3.0,7.0,67,0.00,,---,0.00,VWS V14.01,2013-11-15 19:28:00,
2013-11-15 14:29:00,60.9,49.9,30.30,West,269,3.0,6.0,67,0.00,,---,0.00,VWS V14.01,2013-11-15 19:29:00,
2013-11-15 14:30:00,60.9,50.3,30.30,West,268,3.0,6.0,68,0.00,,---,0.00,VWS V14.01,2013-11-15 19:30:00,
2013-11-15 14:31:00,60.8,50.2,30.30,WNW,286,3.0,4.0,68,0.00,,---,0.00,VWS V14.01,2013-11-15 19:31:00,
2013-11-15 14:32:00,60.7,50.1,30.30,West,271,2.0,4.0,68,0.00,,---,0.00,VWS V14.01,2013-11-15 19:32:00,
2013-11-15 14:33:00,60.7,50.1,30.30,West,268,5.0,6.0,68,0.00,,---,0.00,VWS V14.01,2013-11-15 19:33:00,
2013-11-15 14:34:00,60.6,50.0,30.30,West,262,4.0,4.0,68,0.00,,---,0.00,VWS V14.01,2013-11-15 19:34:00,
2013-11-15 14:35:00,60.5,50.3,30.30,West,267,5.0,5.0,69,0.00,,---,0.00,VWS V14.01,2013-11-15 19:35:00,
2013-11-15 14:36:00,60.5,50.3,30.30,WNW,288,2.0,6.0,69,0.00,,---,0.00,VWS V14.01,2013-11-15 19:36:00,
2013-11-15 14:37:00,60.5,50.3,30.30,SW,221,4.0,4.0,69,0.00,,---,0.00,VWS V14.01,2013-11-15 19:37:00,
2013-11-15 14:38:00,60.5,50.7,30.30,West,259,3.0,4.0,70,0.00,,---,0.00,VWS V14.01,2013-11-15 19:38:00,
2013-11-15 14:39:00,60.5,50.7,30.30,SSW,209,1.0,5.0,70,0.00,,---,0.00,VWS V14.01,2013-11-15 19:39:00,
2013-11-15 14:40:00,60.5,50.7,30.30,WSW,237,3.0,5.0,70,0.00,,---,0.00,VWS V14.01,2013-11-15 19:40:00,
2013-11-15 14:41:00,60.5,50.7,30.30,WSW,246,2.0,3.0,70,0.00,,---,0.00,VWS V14.01,2013-11-15 19:41:00,
2013-11-15 14:42:00,60.4,50.6,30.30,SW,215,1.0,2.0,70,0.00,,---,0.00,VWS V14.01,2013-11-15 19:42:00,
2013-11-15 14:43:00,60.4,50.6,30.30,WSW,237,3.0,3.0,70,0.00,,---,0.00,VWS V14.01,2013-11-15 19:43:00,
2013-11-15 14:44:00,60.4,50.6,30.29,WSW,249,3.0,3.0,70,0.00,,---,0.00,VWS V14.01,2013-11-15 19:44:00,
2013-11-15 14:45:00,60.4,50.6,30.29,SW,226,2.0,3.0,70,0.00,,---,0.00,VWS V14.01,2013-11-15 19:45:00,
2013-11-15 14:46:00,60.4,50.6,30.29,SW,236,1.0,2.0,70,0.00,,---,0.00,VWS V14.01,2013-11-15 19:46:00,
2013-11-15 14:47:00,60.5,50.7,30.30,SW,236,0.0,1.0,70,0.00,,---,0.00,VWS V14.01,2013-11-15 19:47:00,
2013-11-15 14:48:00,60.5,50.7,30.29,SW,236,0.0,0.0,70,0.00,,---,0.00,VWS V14.01,2013-11-15 19:48:00,
2013-11-15 14:49:00,60.6,50.8,30.29,WSW,239,1.0,1.0,70,0.00,,---,0.00,VWS V14.01,2013-11-15 19:49:00,
2013-11-15 14:50:00,60.6,50.8,30.29,WSW,239,1.0,1.0,70,0.00,,---,0.00,VWS V14.01,2013-11-15 19:50:00,
2013-11-15 14:52:00,60.7,50.5,30.29,SSW,209,1.0,2.0,69,0.00,,---,0.00,VWS V14.01,2013-11-15 19:52:00,
2013-11-15 14:53:00,60.7,50.5,30.29,WSW,237,2.0,2.0,69,0.00,,---,0.00,VWS V14.01,2013-11-15 19:53:00,
2013-11-15 14:54:00,60.7,49.7,30.29,WNW,283,3.0,3.0,67,0.00,,---,0.00,VWS V14.01,2013-11-15 19:54:00,
2013-11-15 14:55:00,60.7,49.7,30.29,West,276,3.0,3.0,67,0.00,,---,0.00,VWS V14.01,2013-11-15 19:55:00,
2013-11-15 14:56:00,60.7,48.9,30.29,West,279,1.0,3.0,65,0.00,,---,0.00,VWS V14.01,2013-11-15 19:56:00,
2013-11-15 14:57:00,60.6,48.8,30.29,West,278,0.0,2.0,65,0.00,,---,0.00,VWS V14.01,2013-11-15 19:57:00,
2013-11-15 14:58:00,60.6,48.8,30.29,West,279,0.0,0.0,65,0.00,,---,0.00,VWS V14.01,2013-11-15 19:58:00,
2013-11-15 14:59:00,60.6,48.8,30.29,West,279,0.0,0.0,65,0.00,,---,0.00,VWS V14.01,2013-11-15 19:59:00,
2013-11-15 15:00:00,60.6,48.8,30.29,West,265,1.0,1.0,65,0.00,,---,0.00,VWS V14.01,2013-11-15 20:00:00,
2013-11-15 15:01:00,60.6,48.8,30.29,West,264,1.0,1.0,65,0.00,,---,0.00,VWS V14.01,2013-11-15 20:01:00,
2013-11-15 15:02:00,60.6,48.8,30.29,West,264,0.0,1.0,65,0.00,,---,0.00,VWS V14.01,2013-11-15 20:02:00,
2013-11-15 15:03:00,60.6,48.8,30.29,West,268,1.0,1.0,65,0.00,,---,0.00,VWS V14.01,2013-11-15 20:03:00,
2013-11-15 15:04:00,60.5,49.1,30.29,WSW,244,1.0,2.0,66,0.00,,---,0.00,VWS V14.01,2013-11-15 20:04:00,
2013-11-15 15:05:00,60.5,49.1,30.29,West,267,1.0,2.0,66,0.00,,---,0.00,VWS V14.01,2013-11-15 20:05:00,
2013-11-15 15:06:00,60.5,49.1,30.29,West,267,0.0,2.0,66,0.00,,---,0.00,VWS V14.01,2013-11-15 20:06:00,
2013-11-15 15:07:00,60.5,49.1,30.29,SW,223,0.0,2.0,66,0.00,,---,0.00,VWS V14.01,2013-11-15 20:07:00,
2013-11-15 15:08:00,60.6,49.2,30.29,SW,223,1.0,1.0,66,0.00,,---,0.00,VWS V14.01,2013-11-15 20:08:00,
2013-11-15 15:09:00,60.6,49.2,30.29,West,277,1.0,1.0,66,0.00,,---,0.00,VWS V14.01,2013-11-15 20:09:00,
2013-11-15 15:10:00,60.6,49.2,30.29,WSW,249,1.0,2.0,66,0.00,,---,0.00,VWS V14.01,2013-11-15 20:10:00,
2013-11-15 15:11:00,60.6,48.8,30.29,West,269,1.0,1.0,65,0.00,,---,0.00,VWS V14.01,2013-11-15 20:11:00,
2013-11-15 15:12:00,60.5,48.7,30.29,WSW,252,1.0,2.0,65,0.00,,---,0.00,VWS V14.01,2013-11-15 20:12:00,
2013-11-15 15:13:00,60.5,48.7,30.29,WSW,252,1.0,1.0,65,0.00,,---,0.00,VWS V14.01,2013-11-15 20:13:00,
2013-11-15 15:14:00,60.5,48.7,30.28,WSW,240,1.0,1.0,65,0.00,,---,0.00,VWS V14.01,2013-11-15 20:14:00,
2013-11-15 15:15:00,60.5,48.7,30.28,SSW,203,1.0,1.0,65,0.00,,---,0.00,VWS V14.01,2013-11-15 20:15:00,
2013-11-15 15:16:00,60.5,48.7,30.28,SSW,204,0.0,1.0,65,0.00,,---,0.00,VWS V14.01,2013-11-15 20:16:00,
2013-11-15 15:17:00,60.6,48.4,30.28,SSW,203,1.0,1.0,64,0.00,,---,0.00,VWS V14.01,2013-11-15 20:17:00,
2013-11-15 15:18:00,60.6,48.4,30.28,SSW,195,1.0,2.0,64,0.00,,---,0.00,VWS V14.01,2013-11-15 20:18:00,
2013-11-15 15:19:00,60.6,48.4,30.28,SSE,163,1.0,1.0,64,0.00,,---,0.00,VWS V14.01,2013-11-15 20:19:00,
2013-11-15 15:20:00,60.6,48.4,30.28,SSE,163,0.0,1.0,64,0.00,,---,0.00,VWS V14.01,2013-11-15 20:20:00,
2013-11-15 15:21:00,60.6,48.4,30.28,SSE,163,0.0,1.0,64,0.00,,---,0.00,VWS V14.01,2013-11-15 20:21:00,
2013-11-15 15:22:00,60.6,48.0,30.28,SSE,163,0.0,0.0,63,0.00,,---,0.00,VWS V14.01,2013-11-15 20:22:00,
2013-11-15 15:23:00,60.7,48.5,30.28,SSE,163,0.0,0.0,64,0.00,,---,0.00,VWS V14.01,2013-11-15 20:23:00,
2013-11-15 15:24:00,60.7,48.5,30.28,SSE,163,0.0,0.0,64,0.00,,---,0.00,VWS V14.01,2013-11-15 20:24:00,
2013-11-15 15:25:00,60.7,48.5,30.28,SSE,163,0.0,0.0,64,0.00,,---,0.00,VWS V14.01,2013-11-15 20:25:00,
2013-11-15 15:26:00,60.7,48.5,30.28,SSE,163,0.0,0.0,64,0.00,,---,0.00,VWS V14.01,2013-11-15 20:26:00,
2013-11-15 15:27:00,60.8,48.6,30.28,SSE,163,0.0,0.0,64,0.00,,---,0.00,VWS V14.01,2013-11-15 20:27:00,
2013-11-15 15:28:00,60.9,49.1,30.28,SE,130,1.0,1.0,65,0.00,,---,0.00,VWS V14.01,2013-11-15 20:28:00,
2013-11-15 15:29:00,60.9,49.1,30.28,SE,130,1.0,1.0,65,0.00,,---,0.00,VWS V14.01,2013-11-15 20:29:00,
2013-11-15 15:30:00,60.9,49.1,30.28,SE,130,1.0,1.0,65,0.00,,---,0.00,VWS V14.01,2013-11-15 20:30:00,
2013-11-15 15:31:00,60.9,49.5,30.28,South,175,1.0,1.0,66,0.00,,---,0.00,VWS V14.01,2013-11-15 20:31:00,
2013-11-15 15:32:00,60.8,49.0,30.28,South,174,1.0,2.0,65,0.00,,---,0.00,VWS V14.01,2013-11-15 20:32:00,
2013-11-15 15:33:00,60.8,49.0,30.28,South,174,1.0,1.0,65,0.00,,---,0.00,VWS V14.01,2013-11-15 20:33:00,
2013-11-15 15:34:00,60.8,49.4,30.27,South,174,0.0,0.0,66,0.00,,---,0.00,VWS V14.01,2013-11-15 20:34:00,
2013-11-15 15:35:00,60.8,49.4,30.27,South,174,1.0,1.0,66,0.00,,---,0.00,VWS V14.01,2013-11-15 20:35:00,
2013-11-15 15:36:00,60.8,49.4,30.28,South,174,1.0,1.0,66,0.00,,---,0.00,VWS V14.01,2013-11-15 20:36:00,
2013-11-15 15:37:00,60.8,49.4,30.28,SSW,200,0.0,2.0,66,0.00,,---,0.00,VWS V14.01,2013-11-15 20:37:00,
2013-11-15 15:38:00,60.8,49.8,30.28,SSW,200,0.0,0.0,67,0.00,,---,0.00,VWS V14.01,2013-11-15 20:38:00,
2013-11-15 15:39:00,60.8,49.8,30.28,South,177,2.0,2.0,67,0.00,,---,0.00,VWS V14.01,2013-11-15 20:39:00,
2013-11-15 15:40:00,60.8,49.8,30.28,SE,141,1.0,2.0,67,0.00,,---,0.00,VWS V14.01,2013-11-15 20:40:00,
2013-11-15 15:41:00,60.8,49.8,30.28,SE,126,1.0,2.0,67,0.00,,---,0.00,VWS V14.01,2013-11-15 20:41:00,
2013-11-15 15:42:00,60.8,49.8,30.28,ESE,111,2.0,2.0,67,0.00,,---,0.00,VWS V14.01,2013-11-15 20:42:00,
2013-11-15 15:43:00,60.7,50.1,30.28,ESE,107,1.0,2.0,68,0.00,,---,0.00,VWS V14.01,2013-11-15 20:43:00,
2013-11-15 15:44:00,60.7,50.1,30.27,SSE,153,2.0,2.0,68,0.00,,---,0.00,VWS V14.01,2013-11-15 20:44:00,
2013-11-15 15:45:00,60.7,50.1,30.27,ESE,112,1.0,2.0,68,0.00,,---,0.00,VWS V14.01,2013-11-15 20:45:00,
2013-11-15 15:46:00,60.6,50.4,30.27,ESE,111,1.0,1.0,69,0.00,,---,0.00,VWS V14.01,2013-11-15 20:46:00,
2013-11-15 15:47:00,60.6,50.4,30.27,ESE,112,1.0,1.0,69,0.00,,---,0.00,VWS V14.01,2013-11-15 20:47:00,
2013-11-15 15:48:00,60.6,50.4,30.27,ESE,111,0.0,1.0,69,0.00,,---,0.00,VWS V14.01,2013-11-15 20:48:00,
2013-11-15 15:49:00,60.5,50.7,30.27,East,96,1.0,2.0,70,0.00,,---,0.00,VWS V14.01,2013-11-15 20:49:00,
2013-11-15 15:50:00,60.5,50.7,30.27,East,95,0.0,2.0,70,0.00,,---,0.00,VWS V14.01,2013-11-15 20:50:00,
2013-11-15 15:51:00,60.5,50.7,30.28,East,96,0.0,1.0,70,0.00,,---,0.00,VWS V14.01,2013-11-15 20:51:00,
2013-11-15 15:52:00,60.5,50.7,30.28,East,96,0.0,0.0,70,0.00,,---,0.00,VWS V14.01,2013-11-15 20:52:00,
2013-11-15 15:53:00,60.5,50.7,30.28,SE,142,2.0,2.0,70,0.00,,---,0.00,VWS V14.01,2013-11-15 20:53:00,
2013-11-15 15:54:00,60.5,50.7,30.28,SSE,155,2.0,2.0,70,0.00,,---,0.00,VWS V14.01,2013-11-15 20:54:00,
2013-11-15 15:55:00,60.5,50.7,30.28,SE,146,0.0,2.0,70,0.00,,---,0.00,VWS V14.01,2013-11-15 20:55:00,
2013-11-15 15:56:00,60.4,50.6,30.28,SE,140,0.0,1.0,70,0.00,,---,0.00,VWS V14.01,2013-11-15 20:56:00,
2013-11-15 15:58:00,60.4,50.6,30.28,South,173,0.0,3.0,70,0.00,,---,0.00,VWS V14.01,2013-11-15 20:58:00,
2013-11-15 15:59:00,60.4,50.6,30.28,South,173,0.0,1.0,70,0.00,,---,0.00,VWS V14.01,2013-11-15 20:59:00,
2013-11-15 16:00:00,60.3,50.5,30.28,South,174,0.0,1.0,70,0.00,,---,0.00,VWS V14.01,2013-11-15 21:00:00,
2013-11-15 16:01:00,60.3,50.5,30.28,SSE,164,1.0,2.0,70,0.00,,---,0.00,VWS V14.01,2013-11-15 21:01:00,
2013-11-15 16:02:00,60.3,50.5,30.28,SE,134,1.0,1.0,70,0.00,,---,0.00,VWS V14.01,2013-11-15 21:02:00,
2013-11-15 16:03:00,60.3,50.9,30.28,SE,131,2.0,2.0,71,0.00,,---,0.00,VWS V14.01,2013-11-15 21:03:00,
2013-11-15 16:04:00,60.3,50.9,30.28,SE,139,0.0,0.0,71,0.00,,---,0.00,VWS V14.01,2013-11-15 21:04:00,
2013-11-15 16:05:00,60.2,50.8,30.28,SE,139,1.0,1.0,71,0.00,,---,0.00,VWS V14.01,2013-11-15 21:05:00,
2013-11-15 16:06:00,60.2,50.8,30.28,SSW,198,2.0,2.0,71,0.00,,---,0.00,VWS V14.01,2013-11-15 21:06:00,
2013-11-15 16:07:00,60.2,50.8,30.28,SE,146,0.0,2.0,71,0.00,,---,0.00,VWS V14.01,2013-11-15 21:07:00,
2013-11-15 16:08:00,60.2,50.8,30.28,SSE,147,0.0,1.0,71,0.00,,---,0.00,VWS V14.01,2013-11-15 21:08:00,
2013-11-15 16:09:00,60.2,50.8,30.28,SE,133,0.0,1.0,71,0.00,,---,0.00,VWS V14.01,2013-11-15 21:09:00,
2013-11-15 16:10:00,60.2,50.8,30.28,SE,133,0.0,1.0,71,0.00,,---,0.00,VWS V14.01,2013-11-15 21:10:00,
2013-11-15 16:11:00,60.2,50.8,30.28,SE,132,0.0,0.0,71,0.00,,---,0.00,VWS V14.01,2013-11-15 21:11:00,
2013-11-15 16:12:00,60.1,50.7,30.28,SE,136,3.0,3.0,71,0.00,,---,0.00,VWS V14.01,2013-11-15 21:12:00,
2013-11-15 16:13:00,60.1,50.7,30.28,SE,135,0.0,3.0,71,0.00,,---,0.00,VWS V14.01,2013-11-15 21:13:00,
2013-11-15 16:14:00,60.1,50.7,30.28,SE,134,0.0,0.0,71,0.00,,---,0.00,VWS V14.01,2013-11-15 21:14:00,
2013-11-15 16:15:00,60.1,50.7,30.28,SE,134,0.0,0.0,71,0.00,,---,0.00,VWS V14.01,2013-11-15 21:15:00,
2013-11-15 16:16:00,60.1,50.7,30.28,SE,135,0.0,0.0,71,0.00,,---,0.00,VWS V14.01,2013-11-15 21:16:00,
2013-11-15 16:17:00,60.1,50.7,30.28,SE,135,0.0,0.0,71,0.00,,---,0.00,VWS V14.01,2013-11-15 21:17:00,
2013-11-15 16:18:00,60.1,50.7,30.28,SE,135,0.0,0.0,71,0.00,,---,0.00,VWS V14.01,2013-11-15 21:18:00,
2013-11-15 16:19:00,60.1,50.7,30.28,SE,135,0.0,1.0,71,0.00,,---,0.00,VWS V14.01,2013-11-15 21:19:00,
2013-11-15 16:20:00,60.1,50.7,30.28,SE,135,1.0,1.0,71,0.00,,---,0.00,VWS V14.01,2013-11-15 21:20:00,
2013-11-15 16:21:00,60.1,50.3,30.27,ESE,120,1.0,1.0,70,0.00,,---,0.00,VWS V14.01,2013-11-15 21:21:00,
2013-11-15 16:22:00,60.1,50.7,30.27,ESE,120,1.0,1.0,71,0.00,,---,0.00,VWS V14.01,2013-11-15 21:22:00,
2013-11-15 16:23:00,60.0,50.6,30.27,ESE,120,1.0,1.0,71,0.00,,---,0.00,VWS V14.01,2013-11-15 21:23:00,
2013-11-15 16:24:00,60.0,50.6,30.27,ESE,119,0.0,0.0,71,0.00,,---,0.00,VWS V14.01,2013-11-15 21:24:00,
2013-11-15 16:25:00,60.0,50.6,30.27,ESE,120,0.0,0.0,71,0.00,,---,0.00,VWS V14.01,2013-11-15 21:25:00,
2013-11-15 16:26:00,60.0,50.6,30.27,ESE,120,0.0,0.0,71,0.00,,---,0.00,VWS V14.01,2013-11-15 21:26:00,
2013-11-15 16:27:00,59.9,50.5,30.27,ESE,120,0.0,0.0,71,0.00,,---,0.00,VWS V14.01,2013-11-15 21:27:00,
2013-11-15 16:28:00,59.9,50.5,30.27,ESE,119,1.0,1.0,71,0.00,,---,0.00,VWS V14.01,2013-11-15 21:28:00,
2013-11-15 16:29:00,59.9,50.5,30.27,ESE,120,1.0,1.0,71,0.00,,---,0.00,VWS V14.01,2013-11-15 21:29:00,
2013-11-15 16:30:00,59.9,50.5,30.27,ESE,115,1.0,1.0,71,0.00,,---,0.00,VWS V14.01,2013-11-15 21:30:00,
2013-11-15 16:31:00,59.9,50.5,30.27,ESE,105,2.0,2.0,71,0.00,,---,0.00,VWS V14.01,2013-11-15 21:31:00,
2013-11-15 16:32:00,59.8,50.4,30.27,ESE,106,1.0,2.0,71,0.00,,---,0.00,VWS V14.01,2013-11-15 21:32:00,
2013-11-15 16:33:00,59.8,50.4,30.27,ESE,106,0.0,1.0,71,0.00,,---,0.00,VWS V14.01,2013-11-15 21:33:00,
2013-11-15 16:34:00,59.7,50.3,30.27,ESE,106,0.0,0.0,71,0.00,,---,0.00,VWS V14.01,2013-11-15 21:34:00,
2013-11-15 16:35:00,59.7,50.3,30.27,ESE,107,0.0,0.0,71,0.00,,---,0.00,VWS V14.01,2013-11-15 21:35:00,
2013-11-15 16:36:00,59.7,50.3,30.27,ESE,106,0.0,0.0,71,0.00,,---,0.00,VWS V14.01,2013-11-15 21:36:00,
2013-11-15 16:37:00,59.7,50.3,30.27,ESE,106,1.0,1.0,71,0.00,,---,0.00,VWS V14.01,2013-11-15 21:37:00,
2013-11-15 16:38:00,59.6,50.2,30.27,ESE,106,0.0,1.0,71,0.00,,---,0.00,VWS V14.01,2013-11-15 21:38:00,
2013-11-15 16:39:00,59.6,50.2,30.27,ESE,106,0.0,1.0,71,0.00,,---,0.00,VWS V14.01,2013-11-15 21:39:00,
2013-11-15 16:40:00,59.6,50.2,30.27,ESE,106,0.0,1.0,71,0.00,,---,0.00,VWS V14.01,2013-11-15 21:40:00,
2013-11-15 16:41:00,59.5,50.1,30.27,ESE,106,0.0,0.0,71,0.00,,---,0.00,VWS V14.01,2013-11-15 21:41:00,
2013-11-15 16:42:00,59.5,50.1,30.27,ESE,106,0.0,0.0,71,0.00,,---,0.00,VWS V14.01,2013-11-15 21:42:00,
2013-11-15 16:43:00,59.4,50.0,30.27,ESE,106,1.0,1.0,71,0.00,,---,0.00,VWS V14.01,2013-11-15 21:43:00,
2013-11-15 16:44:00,59.4,50.0,30.27,ESE,106,0.0,1.0,71,0.00,,---,0.00,VWS V14.01,2013-11-15 21:44:00,
2013-11-15 16:45:00,59.3,49.9,30.27,ESE,106,0.0,1.0,71,0.00,,---,0.00,VWS V14.01,2013-11-15 21:45:00,
2013-11-15 16:46:00,59.3,49.9,30.27,ESE,106,0.0,1.0,71,0.00,,---,0.00,VWS V14.01,2013-11-15 21:46:00,
2013-11-15 16:47:00,59.3,49.9,30.27,ESE,106,0.0,0.0,71,0.00,,---,0.00,VWS V14.01,2013-11-15 21:47:00,
2013-11-15 16:48:00,59.3,49.9,30.27,ESE,106,0.0,0.0,71,0.00,,---,0.00,VWS V14.01,2013-11-15 21:48:00,
2013-11-15 16:49:00,59.2,49.8,30.27,ESE,106,0.0,0.0,71,0.00,,---,0.00,VWS V14.01,2013-11-15 21:49:00,
2013-11-15 16:50:00,59.2,49.8,30.27,ESE,106,0.0,0.0,71,0.00,,---,0.00,VWS V14.01,2013-11-15 21:50:00,
2013-11-15 16:51:00,59.2,49.8,30.28,ESE,106,0.0,0.0,71,0.00,,---,0.00,VWS V14.01,2013-11-15 21:51:00,
2013-11-15 16:52:00,59.2,49.8,30.27,ESE,106,0.0,0.0,71,0.00,,---,0.00,VWS V14.01,2013-11-15 21:52:00,
2013-11-15 16:53:00,59.2,49.8,30.27,ESE,106,0.0,0.0,71,0.00,,---,0.00,VWS V14.01,2013-11-15 21:53:00,
2013-11-15 16:54:00,59.1,49.7,30.27,ESE,107,1.0,1.0,71,0.00,,---,0.00,VWS V14.01,2013-11-15 21:54:00,
2013-11-15 16:55:00,59.1,49.7,30.27,ESE,106,0.0,1.0,71,0.00,,---,0.00,VWS V14.01,2013-11-15 21:55:00,
2013-11-15 16:56:00,59.1,49.7,30.27,ESE,106,1.0,1.0,71,0.00,,---,0.00,VWS V14.01,2013-11-15 21:56:00,
2013-11-15 16:57:00,59.1,49.7,30.27,ESE,107,1.0,1.0,71,0.00,,---,0.00,VWS V14.01,2013-11-15 21:57:00,
2013-11-15 16:58:00,59.1,49.7,30.27,ESE,106,1.0,1.0,71,0.00,,---,0.00,VWS V14.01,2013-11-15 21:58:00,
2013-11-15 16:59:00,59.0,49.6,30.27,ESE,106,1.0,1.0,71,0.00,,---,0.00,VWS V14.01,2013-11-15 21:59:00,
2013-11-15 17:00:00,59.0,49.6,30.27,ESE,106,1.0,1.0,71,0.00,,---,0.00,VWS V14.01,2013-11-15 22:00:00,
2013-11-15 17:01:00,59.0,49.6,30.27,ESE,108,1.0,2.0,71,0.00,,---,0.00,VWS V14.01,2013-11-15 22:01:00,
2013-11-15 17:02:00,58.9,49.5,30.27,ESE,107,1.0,1.0,71,0.00,,---,0.00,VWS V14.01,2013-11-15 22:02:00,
2013-11-15 17:03:00,58.9,49.5,30.27,ESE,113,1.0,1.0,71,0.00,,---,0.00,VWS V14.01,2013-11-15 22:03:00,
2013-11-15 17:04:00,58.8,49.4,30.27,ESE,113,2.0,2.0,71,0.00,,---,0.00,VWS V14.01,2013-11-15 22:04:00,
2013-11-15 17:05:00,58.8,49.4,30.27,ESE,113,1.0,2.0,71,0.00,,---,0.00,VWS V14.01,2013-11-15 22:05:00,
2013-11-15 17:06:00,58.8,49.4,30.27,ESE,113,2.0,2.0,71,0.00,,---,0.00,VWS V14.01,2013-11-15 22:06:00,
2013-11-15 17:07:00,58.7,49.7,30.27,ESE,113,1.0,2.0,72,0.00,,---,0.00,VWS V14.01,2013-11-15 22:07:00,
2013-11-15 17:08:00,58.7,49.7,30.27,ESE,113,1.0,2.0,72,0.00,,---,0.00,VWS V14.01,2013-11-15 22:08:00,
2013-11-15 17:09:00,58.6,49.6,30.27,ESE,105,1.0,2.0,72,0.00,,---,0.00,VWS V14.01,2013-11-15 22:09:00,
2013-11-15 17:10:00,58.6,49.6,30.27,East,91,2.0,2.0,72,0.00,,---,0.00,VWS V14.01,2013-11-15 22:10:00,
2013-11-15 17:11:00,58.5,49.5,30.26,East,81,3.0,5.0,72,0.00,,---,0.00,VWS V14.01,2013-11-15 22:11:00,
2013-11-15 17:12:00,58.4,49.4,30.26,East,89,3.0,4.0,72,0.00,,---,0.00,VWS V14.01,2013-11-15 22:12:00,
2013-11-15 17:13:00,58.3,49.3,30.26,East,83,5.0,6.0,72,0.00,,---,0.00,VWS V14.01,2013-11-15 22:13:00,
2013-11-15 17:14:00,58.2,49.2,30.26,East,85,3.0,3.0,72,0.00,,---,0.00,VWS V14.01,2013-11-15 22:14:00,
2013-11-15 17:15:00,58.1,49.5,30.26,East,84,5.0,5.0,73,0.00,,---,0.00,VWS V14.01,2013-11-15 22:15:00,
2013-11-15 17:16:00,58.1,49.5,30.26,East,86,3.0,5.0,73,0.00,,---,0.00,VWS V14.01,2013-11-15 22:16:00,
2013-11-15 17:17:00,58.0,49.4,30.26,East,91,2.0,3.0,73,0.00,,---,0.00,VWS V14.01,2013-11-15 22:17:00,
2013-11-15 17:18:00,58.0,49.4,30.26,East,100,2.0,2.0,73,0.00,,---,0.00,VWS V14.01,2013-11-15 22:18:00,
2013-11-15 17:19:00,57.9,49.3,30.26,East,99,0.0,0.0,73,0.00,,---,0.00,VWS V14.01,2013-11-15 22:19:00,
2013-11-15 17:20:00,57.9,49.3,30.26,East,100,0.0,0.0,73,0.00,,---,0.00,VWS V14.01,2013-11-15 22:20:00,
2013-11-15 17:21:00,57.8,49.2,30.26,East,100,0.0,0.0,73,0.00,,---,0.00,VWS V14.01,2013-11-15 22:21:00,
2013-11-15 17:22:00,57.8,49.2,30.26,ESE,115,1.0,1.0,73,0.00,,---,0.00,VWS V14.01,2013-11-15 22:22:00,
2013-11-15 17:23:00,57.8,49.2,30.26,ESE,115,1.0,2.0,73,0.00,,---,0.00,VWS V14.01,2013-11-15 22:23:00,
2013-11-15 17:24:00,57.7,49.1,30.26,ESE,115,1.0,1.0,73,0.00,,---,0.00,VWS V14.01,2013-11-15 22:24:00,
2013-11-15 17:25:00,57.7,49.1,30.26,ESE,118,2.0,2.0,73,0.00,,---,0.00,VWS V14.01,2013-11-15 22:25:00,
2013-11-15 17:26:00,57.7,49.1,30.26,ESE,118,1.0,2.0,73,0.00,,---,0.00,VWS V14.01,2013-11-15 22:26:00,
2013-11-15 17:27:00,57.6,49.0,30.27,SE,124,1.0,1.0,73,0.00,,---,0.00,VWS V14.01,2013-11-15 22:27:00,
2013-11-15 17:28:00,57.5,48.9,30.27,SE,124,1.0,1.0,73,0.00,,---,0.00,VWS V14.01,2013-11-15 22:28:00,
2013-11-15 17:29:00,57.5,48.9,30.27,ESE,123,1.0,1.0,73,0.00,,---,0.00,VWS V14.01,2013-11-15 22:29:00,
2013-11-15 17:30:00,57.5,48.9,30.27,SE,124,1.0,1.0,73,0.00,,---,0.00,VWS V14.01,2013-11-15 22:30:00,
2013-11-15 17:31:00,57.4,48.8,30.26,ESE,123,0.0,1.0,73,0.00,,---,0.00,VWS V14.01,2013-11-15 22:31:00,
2013-11-15 17:32:00,57.4,48.8,30.26,SE,124,0.0,1.0,73,0.00,,---,0.00,VWS V14.01,2013-11-15 22:32:00,
2013-11-15 17:33:00,57.3,48.7,30.27,SE,124,0.0,0.0,73,0.00,,---,0.00,VWS V14.01,2013-11-15 22:33:00,
2013-11-15 17:34:00,57.2,49.0,30.27,ESE,123,0.0,0.0,74,0.00,,---,0.00,VWS V14.01,2013-11-15 22:34:00,
2013-11-15 17:35:00,57.2,49.0,30.27,ESE,123,0.0,0.0,74,0.00,,---,0.00,VWS V14.01,2013-11-15 22:35:00,
2013-11-15 17:36:00,57.2,49.0,30.27,ESE,123,0.0,1.0,74,0.00,,---,0.00,VWS V14.01,2013-11-15 22:36:00,
2013-11-15 17:37:00,57.1,48.9,30.27,SE,124,0.0,0.0,74,0.00,,---,0.00,VWS V14.01,2013-11-15 22:37:00,
2013-11-15 17:38:00,57.1,48.9,30.27,ESE,123,1.0,1.0,74,0.00,,---,0.00,VWS V14.01,2013-11-15 22:38:00,
2013-11-15 17:39:00,57.0,48.8,30.26,East,93,1.0,2.0,74,0.00,,---,0.00,VWS V14.01,2013-11-15 22:39:00,
2013-11-15 17:40:00,57.0,48.8,30.26,East,93,2.0,2.0,74,0.00,,---,0.00,VWS V14.01,2013-11-15 22:40:00,
2013-11-15 17:41:00,57.0,48.8,30.26,East,92,1.0,2.0,74,0.00,,---,0.00,VWS V14.01,2013-11-15 22:41:00,
2013-11-15 17:42:00,57.0,48.8,30.26,ESE,106,1.0,1.0,74,0.00,,---,0.00,VWS V14.01,2013-11-15 22:42:00,
2013-11-15 17:43:00,57.0,48.8,30.26,ESE,107,1.0,1.0,74,0.00,,---,0.00,VWS V14.01,2013-11-15 22:43:00,
2013-11-15 17:44:00,56.9,48.7,30.26,ESE,106,1.0,1.0,74,0.00,,---,0.00,VWS V14.01,2013-11-15 22:44:00,
2013-11-15 17:45:00,56.8,48.6,30.26,ESE,106,0.0,1.0,74,0.00,,---,0.00,VWS V14.01,2013-11-15 22:45:00,
2013-11-15 17:46:00,56.8,48.6,30.26,ESE,106,0.0,1.0,74,0.00,,---,0.00,VWS V14.01,2013-11-15 22:46:00,
2013-11-15 17:47:00,56.8,48.6,30.26,ESE,106,0.0,1.0,74,0.00,,---,0.00,VWS V14.01,2013-11-15 22:47:00,
2013-11-15 17:48:00,56.8,48.6,30.27,ESE,106,0.0,0.0,74,0.00,,---,0.00,VWS V14.01,2013-11-15 22:48:00,
2013-11-15 17:49:00,56.7,48.5,30.27,ESE,106,0.0,0.0,74,0.00,,---,0.00,VWS V14.01,2013-11-15 22:49:00,
2013-11-15 17:50:00,56.7,48.5,30.27,ESE,106,0.0,0.0,74,0.00,,---,0.00,VWS V14.01,2013-11-15 22:50:00,
2013-11-15 17:51:00,56.7,48.5,30.27,ESE,106,0.0,0.0,74,0.00,,---,0.00,VWS V14.01,2013-11-15 22:51:00,
2013-11-15 17:52:00,56.7,48.5,30.27,ESE,106,0.0,1.0,74,0.00,,---,0.00,VWS V14.01,2013-11-15 22:52:00,
2013-11-15 17:53:00,56.7,48.5,30.27,ESE,106,1.0,1.0,74,0.00,,---,0.00,VWS V14.01,2013-11-15 22:53:00,
2013-11-15 17:54:00,56.7,48.5,30.27,ESE,106,1.0,1.0,74,0.00,,---,0.00,VWS V14.01,2013-11-15 22:54:00,
2013-11-15 17:55:00,56.7,48.5,30.27,ESE,106,0.0,1.0,74,0.00,,---,0.00,VWS V14.01,2013-11-15 22:55:00,
2013-11-15 17:56:00,56.7,48.5,30.27,ESE,106,0.0,0.0,74,0.00,,---,0.00,VWS V14.01,2013-11-15 22:56:00,
2013-11-15 17:57:00,56.6,48.4,30.27,ESE,106,0.0,0.0,74,0.00,,---,0.00,VWS V14.01,2013-11-15 22:57:00,
2013-11-15 17:58:00,56.7,48.5,30.27,ESE,106,0.0,0.0,74,0.00,,---,0.00,VWS V14.01,2013-11-15 22:58:00,
2013-11-15 17:59:00,56.6,48.4,30.27,ESE,107,0.0,0.0,74,0.00,,---,0.00,VWS V14.01,2013-11-15 22:59:00,
2013-11-15 18:00:00,56.6,48.4,30.27,ESE,106,0.0,1.0,74,0.00,,---,0.00,VWS V14.01,2013-11-15 23:00:00,
2013-11-15 18:01:00,56.7,48.5,30.27,ESE,106,0.0,0.0,74,0.00,,---,0.00,VWS V14.01,2013-11-15 23:01:00,
2013-11-15 18:02:00,56.7,48.5,30.27,ESE,107,0.0,1.0,74,0.00,,---,0.00,VWS V14.01,2013-11-15 23:02:00,
2013-11-15 18:03:00,56.7,48.5,30.27,ESE,106,1.0,1.0,74,0.00,,---,0.00,VWS V14.01,2013-11-15 23:03:00,
2013-11-15 18:04:00,56.7,48.5,30.27,ESE,107,2.0,2.0,74,0.00,,---,0.00,VWS V14.01,2013-11-15 23:04:00,
2013-11-15 18:05:00,56.7,48.5,30.27,East,94,2.0,2.0,74,0.00,,---,0.00,VWS V14.01,2013-11-15 23:05:00,
2013-11-15 18:06:00,56.7,48.5,30.27,East,94,1.0,2.0,74,0.00,,---,0.00,VWS V14.01,2013-11-15 23:06:00,
2013-11-15 18:07:00,56.7,48.5,30.27,East,94,1.0,2.0,74,0.00,,---,0.00,VWS V14.01,2013-11-15 23:07:00,
2013-11-15 18:08:00,56.7,48.5,30.26,East,87,2.0,2.0,74,0.00,,---,0.00,VWS V14.01,2013-11-15 23:08:00,
2013-11-15 18:09:00,56.7,48.5,30.26,East,88,3.0,3.0,74,0.00,,---,0.00,VWS V14.01,2013-11-15 23:09:00,
2013-11-15 18:10:00,56.6,48.4,30.26,East,87,2.0,3.0,74,0.00,,---,0.00,VWS V14.01,2013-11-15 23:10:00,
2013-11-15 18:11:00,56.6,48.4,30.26,East,87,2.0,2.0,74,0.00,,---,0.00,VWS V14.01,2013-11-15 23:11:00,
2013-11-15 18:12:00,56.6,48.4,30.26,East,87,1.0,2.0,74,0.00,,---,0.00,VWS V14.01,2013-11-15 23:12:00,
2013-11-15 18:13:00,56.6,48.4,30.27,East,87,1.0,1.0,74,0.00,,---,0.00,VWS V14.01,2013-11-15 23:13:00,
2013-11-15 18:14:00,56.5,48.3,30.26,East,87,1.0,1.0,74,0.00,,---,0.00,VWS V14.01,2013-11-15 23:14:00,
2013-11-15 18:15:00,56.5,48.3,30.26,East,87,2.0,2.0,74,0.00,,---,0.00,VWS V14.01,2013-11-15 23:15:00,
2013-11-15 18:16:00,56.5,48.3,30.26,East,87,2.0,2.0,74,0.00,,---,0.00,VWS V14.01,2013-11-15 23:16:00,
2013-11-15 18:17:00,56.4,48.6,30.26,East,87,2.0,3.0,75,0.00,,---,0.00,VWS V14.01,2013-11-15 23:17:00,
2013-11-15 18:18:00,56.4,48.6,30.26,East,87,3.0,3.0,75,0.00,,---,0.00,VWS V14.01,2013-11-15 23:18:00,
2013-11-15 18:19:00,56.3,48.5,30.26,East,88,3.0,3.0,75,0.00,,---,0.00,VWS V14.01,2013-11-15 23:19:00,
2013-11-15 18:20:00,56.3,48.5,30.26,East,94,2.0,3.0,75,0.00,,---,0.00,VWS V14.01,2013-11-15 23:20:00,
2013-11-15 18:21:00,56.2,48.4,30.26,East,90,2.0,3.0,75,0.00,,---,0.00,VWS V14.01,2013-11-15 23:21:00,
2013-11-15 18:22:00,56.2,48.4,30.26,East,96,2.0,3.0,75,0.00,,---,0.00,VWS V14.01,2013-11-15 23:22:00,
2013-11-15 18:23:00,56.2,48.4,30.26,East,91,3.0,3.0,75,0.00,,---,0.00,VWS V14.01,2013-11-15 23:23:00,
2013-11-15 18:24:00,56.1,48.3,30.26,East,99,2.0,2.0,75,0.00,,---,0.00,VWS V14.01,2013-11-15 23:24:00,
2013-11-15 18:25:00,56.1,48.3,30.26,East,100,2.0,2.0,75,0.00,,---,0.00,VWS V14.01,2013-11-15 23:25:00,
2013-11-15 18:26:00,56.1,48.3,30.27,East,100,1.0,2.0,75,0.00,,---,0.00,VWS V14.01,2013-11-15 23:26:00,
2013-11-15 18:27:00,56.1,48.3,30.27,East,100,2.0,2.0,75,0.00,,---,0.00,VWS V14.01,2013-11-15 23:27:00,
2013-11-15 18:28:00,56.1,48.3,30.26,East,100,1.0,2.0,75,0.00,,---,0.00,VWS V14.01,2013-11-15 23:28:00,
2013-11-15 18:29:00,56.2,48.0,30.26,East,100,1.0,1.0,74,0.00,,---,0.00,VWS V14.01,2013-11-15 23:29:00,
2013-11-15 18:30:00,56.2,48.0,30.26,ESE,115,2.0,2.0,74,0.00,,---,0.00,VWS V14.01,2013-11-15 23:30:00,
2013-11-15 18:31:00,56.2,48.0,30.27,ESE,115,2.0,2.0,74,0.00,,---,0.00,VWS V14.01,2013-11-15 23:31:00,
2013-11-15 18:32:00,56.2,48.0,30.27,ESE,106,2.0,2.0,74,0.00,,---,0.00,VWS V14.01,2013-11-15 23:32:00,
2013-11-15 18:33:00,56.2,48.4,30.26,ESE,102,2.0,2.0,75,0.00,,---,0.00,VWS V14.01,2013-11-15 23:33:00,
2013-11-15 18:34:00,56.1,48.3,30.26,East,94,2.0,3.0,75,0.00,,---,0.00,VWS V14.01,2013-11-15 23:34:00,
2013-11-15 18:35:00,56.0,48.2,30.26,East,94,2.0,2.0,75,0.00,,---,0.00,VWS V14.01,2013-11-15 23:35:00,
2013-11-15 18:36:00,55.9,48.1,30.26,East,94,1.0,2.0,75,0.00,,---,0.00,VWS V14.01,2013-11-15 23:36:00,
2013-11-15 18:37:00,55.9,48.1,30.26,East,88,1.0,3.0,75,0.00,,---,0.00,VWS V14.01,2013-11-15 23:37:00,
2013-11-15 18:38:00,55.9,48.1,30.27,East,89,1.0,2.0,75,0.00,,---,0.00,VWS V14.01,2013-11-15 23:38:00,
2013-11-15 18:39:00,55.8,47.7,30.26,East,88,2.0,2.0,74,0.00,,---,0.00,VWS V14.01,2013-11-15 23:39:00,
2013-11-15 18:40:00,55.9,47.7,30.26,East,91,1.0,3.0,74,0.00,,---,0.00,VWS V14.01,2013-11-15 23:40:00,
2013-11-15 18:41:00,55.9,47.7,30.26,East,91,2.0,2.0,74,0.00,,---,0.00,VWS V14.01,2013-11-15 23:41:00,
2013-11-15 18:42:00,56.0,47.5,30.26,East,101,2.0,2.0,73,0.00,,---,0.00,VWS V14.01,2013-11-15 23:42:00,
2013-11-15 18:43:00,56.1,47.6,30.27,East,101,1.0,2.0,73,0.00,,---,0.00,VWS V14.01,2013-11-15 23:43:00,
2013-11-15 18:44:00,56.1,47.6,30.27,East,92,1.0,1.0,73,0.00,,---,0.00,VWS V14.01,2013-11-15 23:44:00,
2013-11-15 18:45:00,56.2,47.7,30.27,East,93,0.0,1.0,73,0.00,,---,0.00,VWS V14.01,2013-11-15 23:45:00,
2013-11-15 18:46:00,56.2,47.7,30.27,East,93,0.0,0.0,73,0.00,,---,0.00,VWS V14.01,2013-11-15 23:46:00,
2013-11-15 18:47:00,56.2,47.7,30.26,East,93,0.0,0.0,73,0.00,,---,0.00,VWS V14.01,2013-11-15 23:47:00,
2013-11-15 18:48:00,56.1,47.9,30.26,East,92,0.0,1.0,74,0.00,,---,0.00,VWS V14.01,2013-11-15 23:48:00,
2013-11-15 18:49:00,56.0,47.8,30.26,East,93,0.0,0.0,74,0.00,,---,0.00,VWS V14.01,2013-11-15 23:49:00,
2013-11-15 18:50:00,55.9,47.7,30.27,East,92,0.0,1.0,74,0.00,,---,0.00,VWS V14.01,2013-11-15 23:50:00,
2013-11-15 18:51:00,55.8,48.0,30.26,East,92,0.0,0.0,75,0.00,,---,0.00,VWS V14.01,2013-11-15 23:51:00,
2013-11-15 18:52:00,55.8,48.0,30.26,East,92,0.0,0.0,75,0.00,,---,0.00,VWS V14.01,2013-11-15 23:52:00,
2013-11-15 18:53:00,55.7,47.9,30.26,East,92,0.0,0.0,75,0.00,,---,0.00,VWS V14.01,2013-11-15 23:53:00,
2013-11-15 18:54:00,55.6,47.8,30.26,East,92,0.0,0.0,75,0.00,,---,0.00,VWS V14.01,2013-11-15 23:54:00,
2013-11-15 18:55:00,55.5,47.7,30.26,East,92,0.0,0.0,75,0.00,,---,0.00,VWS V14.01,2013-11-15 23:55:00,
2013-11-15 18:56:00,55.5,47.7,30.26,East,92,0.0,0.0,75,0.00,,---,0.00,VWS V14.01,2013-11-15 23:56:00,
2013-11-15 18:57:00,55.4,47.6,30.26,East,92,0.0,0.0,75,0.00,,---,0.00,VWS V14.01,2013-11-15 23:57:00,
2013-11-15 18:58:00,55.4,47.6,30.26,East,92,0.0,0.0,75,0.00,,---,0.00,VWS V14.01,2013-11-15 23:58:00,
2013-11-15 18:59:00,55.3,47.5,30.26,East,93,0.0,0.0,75,0.00,,---,0.00,VWS V14.01,2013-11-15 23:59:00,
2013-11-15 19:00:00,55.3,47.5,30.26,East,92,0.0,0.0,75,0.00,,---,0.00,VWS V14.01,2013-11-16 00:00:00,
2013-11-15 19:01:00,55.2,47.4,30.26,East,92,0.0,0.0,75,0.00,,---,0.00,VWS V14.01,2013-11-16 00:01:00,
2013-11-15 19:02:00,55.1,47.3,30.26,East,92,0.0,0.0,75,0.00,,---,0.00,VWS V14.01,2013-11-16 00:02:00,
2013-11-15 19:03:00,55.0,47.2,30.26,East,92,0.0,0.0,75,0.00,,---,0.00,VWS V14.01,2013-11-16 00:03:00,
2013-11-15 19:04:00,55.0,47.2,30.26,East,92,0.0,0.0,75,0.00,,---,0.00,VWS V14.01,2013-11-16 00:04:00,
2013-11-15 19:05:00,54.9,47.1,30.26,East,93,0.0,0.0,75,0.00,,---,0.00,VWS V14.01,2013-11-16 00:05:00,
2013-11-15 19:06:00,54.8,47.0,30.27,East,92,0.0,0.0,75,0.00,,---,0.00,VWS V14.01,2013-11-16 00:06:00,
2013-11-15 19:07:00,54.8,47.4,30.27,East,93,0.0,0.0,76,0.00,,---,0.00,VWS V14.01,2013-11-16 00:07:00,
2013-11-15 19:08:00,54.7,47.3,30.27,East,93,0.0,0.0,76,0.00,,---,0.00,VWS V14.01,2013-11-16 00:08:00,
2013-11-15 19:09:00,54.7,47.3,30.27,East,93,0.0,0.0,76,0.00,,---,0.00,VWS V14.01,2013-11-16 00:09:00,
2013-11-15 19:10:00,54.6,47.2,30.27,East,93,0.0,0.0,76,0.00,,---,0.00,VWS V14.01,2013-11-16 00:10:00,
2013-11-15 19:11:00,54.5,47.1,30.27,East,92,0.0,0.0,76,0.00,,---,0.00,VWS V14.01,2013-11-16 00:11:00,
2013-11-15 19:12:00,54.5,47.1,30.27,East,92,0.0,0.0,76,0.00,,---,0.00,VWS V14.01,2013-11-16 00:12:00,
2013-11-15 19:13:00,54.4,47.0,30.27,East,92,0.0,0.0,76,0.00,,---,0.00,VWS V14.01,2013-11-16 00:13:00,
2013-11-15 19:14:00,54.3,46.9,30.27,East,92,0.0,0.0,76,0.00,,---,0.00,VWS V14.01,2013-11-16 00:14:00,
2013-11-15 19:15:00,54.3,47.2,30.27,East,93,0.0,0.0,77,0.00,,---,0.00,VWS V14.01,2013-11-16 00:15:00,
2013-11-15 19:16:00,54.2,47.2,30.27,East,92,0.0,0.0,77,0.00,,---,0.00,VWS V14.01,2013-11-16 00:16:00,
2013-11-15 19:17:00,54.2,47.2,30.27,East,92,0.0,0.0,77,0.00,,---,0.00,VWS V14.01,2013-11-16 00:17:00,
2013-11-15 19:18:00,54.1,47.1,30.27,East,92,0.0,0.0,77,0.00,,---,0.00,VWS V14.01,2013-11-16 00:18:00,
2013-11-15 19:19:00,54.1,47.1,30.27,East,92,0.0,0.0,77,0.00,,---,0.00,VWS V14.01,2013-11-16 00:19:00,
2013-11-15 19:20:00,54.0,47.0,30.27,East,93,0.0,0.0,77,0.00,,---,0.00,VWS V14.01,2013-11-16 00:20:00,
2013-11-15 19:21:00,53.9,46.9,30.27,East,92,0.0,0.0,77,0.00,,---,0.00,VWS V14.01,2013-11-16 00:21:00,
2013-11-15 19:22:00,53.8,47.1,30.27,East,93,0.0,0.0,78,0.00,,---,0.00,VWS V14.01,2013-11-16 00:22:00,
2013-11-15 19:23:00,53.7,47.0,30.27,East,92,0.0,0.0,78,0.00,,---,0.00,VWS V14.01,2013-11-16 00:23:00,
2013-11-15 19:24:00,53.7,47.0,30.27,East,93,0.0,0.0,78,0.00,,---,0.00,VWS V14.01,2013-11-16 00:24:00,
2013-11-15 19:25:00,53.6,46.9,30.27,East,93,0.0,0.0,78,0.00,,---,0.00,VWS V14.01,2013-11-16 00:25:00,
2013-11-15 19:26:00,53.5,46.8,30.26,East,92,0.0,0.0,78,0.00,,---,0.00,VWS V14.01,2013-11-16 00:26:00,
2013-11-15 19:27:00,53.5,46.8,30.26,East,92,0.0,0.0,78,0.00,,---,0.00,VWS V14.01,2013-11-16 00:27:00,
2013-11-15 19:28:00,53.3,47.0,30.26,SE,128,0.0,1.0,79,0.00,,---,0.00,VWS V14.01,2013-11-16 00:28:00,
2013-11-15 19:29:00,53.3,47.0,30.26,SE,128,0.0,1.0,79,0.00,,---,0.00,VWS V14.01,2013-11-16 00:29:00,
2013-11-15 19:30:00,53.3,47.0,30.26,SE,128,1.0,1.0,79,0.00,,---,0.00,VWS V14.01,2013-11-16 00:30:00,
2013-11-15 19:31:00,53.3,47.0,30.26,ESE,115,0.0,1.0,79,0.00,,---,0.00,VWS V14.01,2013-11-16 00:31:00,
2013-11-15 19:32:00,53.4,47.1,30.26,ESE,116,0.0,0.0,79,0.00,,---,0.00,VWS V14.01,2013-11-16 00:32:00,
2013-11-15 19:33:00,53.5,47.2,30.26,ESE,115,0.0,0.0,79,0.00,,---,0.00,VWS V14.01,2013-11-16 00:33:00,
2013-11-15 19:34:00,53.5,47.2,30.26,ESE,115,0.0,0.0,79,0.00,,---,0.00,VWS V14.01,2013-11-16 00:34:00,
2013-11-15 19:35:00,53.5,46.8,30.26,ESE,115,0.0,0.0,78,0.00,,---,0.00,VWS V14.01,2013-11-16 00:35:00,
2013-11-15 19:36:00,53.6,46.9,30.26,ESE,115,0.0,0.0,78,0.00,,---,0.00,VWS V14.01,2013-11-16 00:36:00,
2013-11-15 19:37:00,53.7,47.0,30.27,ESE,115,0.0,0.0,78,0.00,,---,0.00,VWS V14.01,2013-11-16 00:37:00,
2013-11-15 19:38:00,53.7,46.7,30.27,ESE,115,0.0,0.0,77,0.00,,---,0.00,VWS V14.01,2013-11-16 00:38:00,
2013-11-15 19:39:00,53.7,46.7,30.27,ESE,115,0.0,0.0,77,0.00,,---,0.00,VWS V14.01,2013-11-16 00:39:00,
2013-11-15 19:40:00,53.8,46.8,30.27,ESE,116,0.0,0.0,77,0.00,,---,0.00,VWS V14.01,2013-11-16 00:40:00,
2013-11-15 19:41:00,53.9,46.9,30.27,ESE,116,0.0,0.0,77,0.00,,---,0.00,VWS V14.01,2013-11-16 00:41:00,
2013-11-15 19:42:00,53.9,46.9,30.27,ESE,115,0.0,0.0,77,0.00,,---,0.00,VWS V14.01,2013-11-16 00:42:00,
2013-11-15 19:43:00,54.1,46.7,30.27,ESE,115,0.0,0.0,76,0.00,,---,0.00,VWS V14.01,2013-11-16 00:43:00,
2013-11-15 19:44:00,54.1,46.7,30.27,ESE,115,0.0,0.0,76,0.00,,---,0.00,VWS V14.01,2013-11-16 00:44:00,
2013-11-15 19:45:00,54.1,46.7,30.27,ESE,116,0.0,0.0,76,0.00,,---,0.00,VWS V14.01,2013-11-16 00:45:00,
2013-11-15 19:46:00,54.2,46.8,30.27,ESE,115,0.0,1.0,76,0.00,,---,0.00,VWS V14.01,2013-11-16 00:46:00,
2013-11-15 19:47:00,54.3,46.9,30.26,ESE,115,1.0,1.0,76,0.00,,---,0.00,VWS V14.01,2013-11-16 00:47:00,
2013-11-15 19:48:00,54.2,46.8,30.26,ESE,112,1.0,2.0,76,0.00,,---,0.00,VWS V14.01,2013-11-16 00:48:00,
2013-11-15 19:49:00,54.2,46.8,30.26,East,94,1.0,2.0,76,0.00,,---,0.00,VWS V14.01,2013-11-16 00:49:00,
2013-11-15 19:50:00,54.2,46.8,30.26,East,90,2.0,2.0,76,0.00,,---,0.00,VWS V14.01,2013-11-16 00:50:00,
2013-11-15 19:51:00,54.1,46.7,30.26,East,88,2.0,2.0,76,0.00,,---,0.00,VWS V14.01,2013-11-16 00:51:00,
2013-11-15 19:52:00,54.1,46.7,30.26,ENE,76,2.0,3.0,76,0.00,,---,0.00,VWS V14.01,2013-11-16 00:52:00,
2013-11-15 19:53:00,54.1,46.7,30.26,East,90,3.0,3.0,76,0.00,,---,0.00,VWS V14.01,2013-11-16 00:53:00,
2013-11-15 19:54:00,54.1,46.7,30.26,East,90,3.0,3.0,76,0.00,,---,0.00,VWS V14.01,2013-11-16 00:54:00,
2013-11-15 19:55:00,54.2,46.8,30.26,East,90,3.0,3.0,76,0.00,,---,0.00,VWS V14.01,2013-11-16 00:55:00,
2013-11-15 19:56:00,54.1,46.7,30.26,East,90,3.0,3.0,76,0.00,,---,0.00,VWS V14.01,2013-11-16 00:56:00,
2013-11-15 19:57:00,54.1,46.7,30.26,East,88,3.0,3.0,76,0.00,,---,0.00,VWS V14.01,2013-11-16 00:57:00,
2013-11-15 19:58:00,54.2,46.8,30.26,East,84,2.0,3.0,76,0.00,,---,0.00,VWS V14.01,2013-11-16 00:58:00,
2013-11-15 19:59:00,54.2,46.8,30.26,East,83,2.0,3.0,76,0.00,,---,0.00,VWS V14.01,2013-11-16 00:59:00,
2013-11-15 20:00:00,54.1,46.7,30.26,East,83,3.0,3.0,76,0.00,,---,0.00,VWS V14.01,2013-11-16 01:00:00,
2013-11-15 20:01:00,54.2,46.8,30.26,East,81,2.0,3.0,76,0.00,,---,0.00,VWS V14.01,2013-11-16 01:01:00,
2013-11-15 20:02:00,54.2,46.8,30.26,East,81,3.0,3.0,76,0.00,,---,0.00,VWS V14.01,2013-11-16 01:02:00,
2013-11-15 20:03:00,54.3,46.6,30.26,East,81,2.0,3.0,75,0.00,,---,0.00,VWS V14.01,2013-11-16 01:03:00,
2013-11-15 20:04:00,54.4,46.7,30.26,East,81,3.0,3.0,75,0.00,,---,0.00,VWS V14.01,2013-11-16 01:04:00,
2013-11-15 20:05:00,54.5,46.8,30.26,East,83,2.0,3.0,75,0.00,,---,0.00,VWS V14.01,2013-11-16 01:05:00,
2013-11-15 20:06:00,54.6,46.8,30.26,East,86,2.0,2.0,75,0.00,,---,0.00,VWS V14.01,2013-11-16 01:06:00,
2013-11-15 20:07:00,54.6,46.8,30.26,East,86,2.0,3.0,75,0.00,,---,0.00,VWS V14.01,2013-11-16 01:07:00,
2013-11-15 20:08:00,54.7,46.9,30.26,East,86,2.0,3.0,75,0.00,,---,0.00,VWS V14.01,2013-11-16 01:08:00,
2013-11-15 20:09:00,54.7,46.6,30.26,East,86,2.0,3.0,74,0.00,,---,0.00,VWS V14.01,2013-11-16 01:09:00,
2013-11-15 20:10:00,54.8,46.7,30.26,East,86,2.0,3.0,74,0.00,,---,0.00,VWS V14.01,2013-11-16 01:10:00,
2013-11-15 20:11:00,54.8,46.7,30.26,East,86,2.0,2.0,74,0.00,,---,0.00,VWS V14.01,2013-11-16 01:11:00,
2013-11-15 20:12:00,54.8,46.7,30.26,East,83,2.0,2.0,74,0.00,,---,0.00,VWS V14.01,2013-11-16 01:12:00,
2013-11-15 20:13:00,54.8,46.7,30.26,East,83,1.0,2.0,74,0.00,,---,0.00,VWS V14.01,2013-11-16 01:13:00,
2013-11-15 20:14:00,54.8,46.7,30.26,East,83,1.0,2.0,74,0.00,,---,0.00,VWS V14.01,2013-11-16 01:14:00,
2013-11-15 20:15:00,54.8,46.7,30.26,East,83,1.0,1.0,74,0.00,,---,0.00,VWS V14.01,2013-11-16 01:15:00,
2013-11-15 20:16:00,54.7,46.6,30.26,East,84,0.0,1.0,74,0.00,,---,0.00,VWS V14.01,2013-11-16 01:16:00,
2013-11-15 20:17:00,54.7,46.6,30.26,East,83,0.0,1.0,74,0.00,,---,0.00,VWS V14.01,2013-11-16 01:17:00,
2013-11-15 20:18:00,54.6,46.8,30.26,East,83,1.0,1.0,75,0.00,,---,0.00,VWS V14.01,2013-11-16 01:18:00,
2013-11-15 20:19:00,54.6,46.8,30.26,East,83,1.0,1.0,75,0.00,,---,0.00,VWS V14.01,2013-11-16 01:19:00,
2013-11-15 20:20:00,54.6,46.8,30.26,East,83,1.0,1.0,75,0.00,,---,0.00,VWS V14.01,2013-11-16 01:20:00,
2013-11-15 20:21:00,54.5,46.8,30.26,East,83,0.0,1.0,75,0.00,,---,0.00,VWS V14.01,2013-11-16 01:21:00,
2013-11-15 20:22:00,54.5,46.8,30.26,East,84,0.0,0.0,75,0.00,,---,0.00,VWS V14.01,2013-11-16 01:22:00,
2013-11-15 20:23:00,54.3,46.6,30.27,East,83,0.0,0.0,75,0.00,,---,0.00,VWS V14.01,2013-11-16 01:23:00,
2013-11-15 20:24:00,54.3,46.6,30.27,East,84,0.0,0.0,75,0.00,,---,0.00,VWS V14.01,2013-11-16 01:24:00,
2013-11-15 20:25:00,54.2,46.5,30.27,East,83,0.0,0.0,75,0.00,,---,0.00,VWS V14.01,2013-11-16 01:25:00,
2013-11-15 20:26:00,54.1,46.4,30.27,East,83,0.0,0.0,75,0.00,,---,0.00,VWS V14.01,2013-11-16 01:26:00,
2013-11-15 20:27:00,53.9,46.2,30.26,East,83,0.0,0.0,75,0.00,,---,0.00,VWS V14.01,2013-11-16 01:27:00,
2013-11-15 20:28:00,53.7,46.3,30.26,East,83,0.0,0.0,76,0.00,,---,0.00,VWS V14.01,2013-11-16 01:28:00,
2013-11-15 20:29:00,53.6,46.2,30.26,East,83,0.0,0.0,76,0.00,,---,0.00,VWS V14.01,2013-11-16 01:29:00,
2013-11-15 20:30:00,53.6,46.2,30.26,East,83,0.0,0.0,76,0.00,,---,0.00,VWS V14.01,2013-11-16 01:30:00,
2013-11-15 20:31:00,53.5,46.1,30.27,East,84,0.0,0.0,76,0.00,,---,0.00,VWS V14.01,2013-11-16 01:31:00,
2013-11-15 20:32:00,53.4,46.0,30.27,East,83,0.0,0.0,76,0.00,,---,0.00,VWS V14.01,2013-11-16 01:32:00,
2013-11-15 20:33:00,53.2,46.2,30.26,East,83,0.0,0.0,77,0.00,,---,0.00,VWS V14.01,2013-11-16 01:33:00,
2013-11-15 20:34:00,53.2,46.2,30.26,East,84,0.0,0.0,77,0.00,,---,0.00,VWS V14.01,2013-11-16 01:34:00,
2013-11-15 20:35:00,53.1,46.4,30.27,East,83,0.0,0.0,78,0.00,,---,0.00,VWS V14.01,2013-11-16 01:35:00,
2013-11-15 20:36:00,53.1,46.4,30.26,East,83,0.0,0.0,78,0.00,,---,0.00,VWS V14.01,2013-11-16 01:36:00,
2013-11-15 20:37:00,53.2,46.5,30.26,East,84,1.0,1.0,78,0.00,,---,0.00,VWS V14.01,2013-11-16 01:37:00,
2013-11-15 20:38:00,53.4,46.7,30.27,East,83,1.0,1.0,78,0.00,,---,0.00,VWS V14.01,2013-11-16 01:38:00,
2013-11-15 20:39:00,53.4,46.7,30.27,East,84,1.0,1.0,78,0.00,,---,0.00,VWS V14.01,2013-11-16 01:39:00,
2013-11-15 20:40:00,53.6,46.6,30.27,East,83,1.0,1.0,77,0.00,,---,0.00,VWS V14.01,2013-11-16 01:40:00,
2013-11-15 20:41:00,53.7,46.7,30.27,East,84,1.0,1.0,77,0.00,,---,0.00,VWS V14.01,2013-11-16 01:41:00,
2013-11-15 20:42:00,53.8,46.8,30.27,East,83,1.0,1.0,77,0.00,,---,0.00,VWS V14.01,2013-11-16 01:42:00,
2013-11-15 20:43:00,53.9,46.9,30.27,East,83,1.0,1.0,77,0.00,,---,0.00,VWS V14.01,2013-11-16 01:43:00,
2013-11-15 20:44:00,54.0,47.0,30.27,East,83,1.0,1.0,77,0.00,,---,0.00,VWS V14.01,2013-11-16 01:44:00,
2013-11-15 20:45:00,54.1,46.7,30.26,East,84,1.0,1.0,76,0.00,,---,0.00,VWS V14.01,2013-11-16 01:45:00,
2013-11-15 20:46:00,54.1,46.7,30.26,East,83,2.0,2.0,76,0.00,,---,0.00,VWS V14.01,2013-11-16 01:46:00,
2013-11-15 20:47:00,54.2,46.8,30.26,East,83,2.0,2.0,76,0.00,,---,0.00,VWS V14.01,2013-11-16 01:47:00,
2013-11-15 20:48:00,54.3,46.9,30.26,East,96,2.0,2.0,76,0.00,,---,0.00,VWS V14.01,2013-11-16 01:48:00,
2013-11-15 20:49:00,54.3,46.9,30.26,East,96,2.0,2.0,76,0.00,,---,0.00,VWS V14.01,2013-11-16 01:49:00,
2013-11-15 20:50:00,54.4,47.0,30.26,East,94,2.0,3.0,76,0.00,,---,0.00,VWS V14.01,2013-11-16 01:50:00,
2013-11-15 20:51:00,54.5,46.8,30.26,East,92,3.0,3.0,75,0.00,,---,0.00,VWS V14.01,2013-11-16 01:51:00,
2013-11-15 20:52:00,54.6,46.8,30.26,East,94,3.0,3.0,75,0.00,,---,0.00,VWS V14.01,2013-11-16 01:52:00,
2013-11-15 20:53:00,54.7,46.9,30.26,East,97,3.0,3.0,75,0.00,,---,0.00,VWS V14.01,2013-11-16 01:53:00,
2013-11-15 20:54:00,54.7,46.9,30.26,East,98,2.0,3.0,75,0.00,,---,0.00,VWS V14.01,2013-11-16 01:54:00,
2013-11-15 20:55:00,54.8,47.0,30.26,East,92,3.0,3.0,75,0.00,,---,0.00,VWS V14.01,2013-11-16 01:55:00,
2013-11-15 20:56:00,54.8,47.0,30.26,East,94,3.0,3.0,75,0.00,,---,0.00,VWS V14.01,2013-11-16 01:56:00,
2013-11-15 20:57:00,54.8,47.0,30.26,East,90,2.0,3.0,75,0.00,,---,0.00,VWS V14.01,2013-11-16 01:57:00,
2013-11-15 20:58:00,54.8,47.0,30.26,East,91,2.0,2.0,75,0.00,,---,0.00,VWS V14.01,2013-11-16 01:58:00,
2013-11-15 20:59:00,54.8,47.0,30.26,East,91,2.0,2.0,75,0.00,,---,0.00,VWS V14.01,2013-11-16 01:59:00,
2013-11-15 21:00:00,54.8,47.0,30.26,East,100,3.0,3.0,75,0.00,,---,0.00,VWS V14.01,2013-11-16 02:00:00,
2013-11-15 21:01:00,54.8,47.0,30.26,East,97,1.0,3.0,75,0.00,,---,0.00,VWS V14.01,2013-11-16 02:01:00,
2013-11-15 21:02:00,54.8,47.0,30.26,East,96,1.0,1.0,75,0.00,,---,0.00,VWS V14.01,2013-11-16 02:02:00,
2013-11-15 21:03:00,54.8,47.0,30.26,ESE,102,1.0,1.0,75,0.00,,---,0.00,VWS V14.01,2013-11-16 02:03:00,
2013-11-15 21:04:00,54.8,47.0,30.26,ESE,102,0.0,1.0,75,0.00,,---,0.00,VWS V14.01,2013-11-16 02:04:00,
2013-11-15 21:05:00,54.8,47.0,30.26,ESE,102,1.0,1.0,75,0.00,,---,0.00,VWS V14.01,2013-11-16 02:05:00,
2013-11-15 21:06:00,54.8,47.0,30.26,ESE,102,0.0,1.0,75,0.00,,---,0.00,VWS V14.01,2013-11-16 02:06:00,
2013-11-15 21:07:00,54.8,47.0,30.27,ESE,102,0.0,1.0,75,0.00,,---,0.00,VWS V14.01,2013-11-16 02:07:00,
2013-11-15 21:08:00,54.7,46.9,30.27,ESE,102,0.0,0.0,75,0.00,,---,0.00,VWS V14.01,2013-11-16 02:08:00,
2013-11-15 21:09:00,54.7,46.9,30.27,ESE,102,0.0,0.0,75,0.00,,---,0.00,VWS V14.01,2013-11-16 02:09:00,
2013-11-15 21:10:00,54.7,46.9,30.27,ESE,102,0.0,0.0,75,0.00,,---,0.00,VWS V14.01,2013-11-16 02:10:00,
2013-11-15 21:11:00,54.6,46.8,30.27,ESE,103,0.0,0.0,75,0.00,,---,0.00,VWS V14.01,2013-11-16 02:11:00,
2013-11-15 21:12:00,54.5,46.8,30.27,ESE,103,0.0,0.0,75,0.00,,---,0.00,VWS V14.01,2013-11-16 02:12:00,
2013-11-15 21:13:00,54.4,47.0,30.27,ESE,102,0.0,0.0,76,0.00,,---,0.00,VWS V14.01,2013-11-16 02:13:00,
2013-11-15 21:14:00,54.3,46.9,30.27,ESE,102,0.0,0.0,76,0.00,,---,0.00,VWS V14.01,2013-11-16 02:14:00,
2013-11-15 21:15:00,54.3,46.9,30.27,ESE,104,0.0,0.0,76,0.00,,---,0.00,VWS V14.01,2013-11-16 02:15:00,
2013-11-15 21:16:00,54.2,46.8,30.27,SE,141,1.0,1.0,76,0.00,,---,0.00,VWS V14.01,2013-11-16 02:16:00,
2013-11-15 21:17:00,54.2,47.2,30.27,SE,142,0.0,1.0,77,0.00,,---,0.00,VWS V14.01,2013-11-16 02:17:00,
2013-11-15 21:18:00,54.1,47.1,30.27,SE,141,0.0,0.0,77,0.00,,---,0.00,VWS V14.01,2013-11-16 02:18:00,
2013-11-15 21:19:00,54.1,47.1,30.27,SE,141,0.0,0.0,77,0.00,,---,0.00,VWS V14.01,2013-11-16 02:19:00,
2013-11-15 21:20:00,54.1,47.1,30.27,SE,141,0.0,0.0,77,0.00,,---,0.00,VWS V14.01,2013-11-16 02:20:00,
2013-11-15 21:21:00,54.1,47.1,30.27,SE,141,0.0,0.0,77,0.00,,---,0.00,VWS V14.01,2013-11-16 02:21:00,
2013-11-15 21:22:00,54.1,47.1,30.27,SE,141,0.0,0.0,77,0.00,,---,0.00,VWS V14.01,2013-11-16 02:22:00,
2013-11-15 21:23:00,54.1,47.4,30.27,SE,141,0.0,1.0,78,0.00,,---,0.00,VWS V14.01,2013-11-16 02:23:00,
2013-11-15 21:24:00,54.1,47.4,30.27,SE,141,0.0,1.0,78,0.00,,---,0.00,VWS V14.01,2013-11-16 02:24:00,
2013-11-15 21:25:00,54.1,47.4,30.27,SE,141,0.0,0.0,78,0.00,,---,0.00,VWS V14.01,2013-11-16 02:25:00,
2013-11-15 21:26:00,54.2,47.5,30.27,SE,142,0.0,0.0,78,0.00,,---,0.00,VWS V14.01,2013-11-16 02:26:00,
2013-11-15 21:27:00,54.2,47.5,30.27,SE,141,0.0,0.0,78,0.00,,---,0.00,VWS V14.01,2013-11-16 02:27:00,
2013-11-15 21:28:00,54.2,47.5,30.27,SE,142,0.0,0.0,78,0.00,,---,0.00,VWS V14.01,2013-11-16 02:28:00,
2013-11-15 21:29:00,54.2,47.5,30.27,SE,141,0.0,0.0,78,0.00,,---,0.00,VWS V14.01,2013-11-16 02:29:00,
2013-11-15 21:30:00,54.3,47.6,30.27,SE,142,0.0,0.0,78,0.00,,---,0.00,VWS V14.01,2013-11-16 02:30:00,
2013-11-15 21:31:00,54.3,47.9,30.27,SE,141,0.0,1.0,79,0.00,,---,0.00,VWS V14.01,2013-11-16 02:31:00,
2013-11-15 21:32:00,54.3,47.9,30.27,SE,130,1.0,2.0,79,0.00,,---,0.00,VWS V14.01,2013-11-16 02:32:00,
2013-11-15 21:33:00,54.4,48.0,30.27,SE,129,1.0,1.0,79,0.00,,---,0.00,VWS V14.01,2013-11-16 02:33:00,
2013-11-15 21:34:00,54.4,48.0,30.27,SE,129,1.0,1.0,79,0.00,,---,0.00,VWS V14.01,2013-11-16 02:34:00,
2013-11-15 21:35:00,54.5,48.1,30.27,SE,129,1.0,1.0,79,0.00,,---,0.00,VWS V14.01,2013-11-16 02:35:00,
2013-11-15 21:36:00,54.6,48.2,30.27,SE,129,1.0,1.0,79,0.00,,---,0.00,VWS V14.01,2013-11-16 02:36:00,
2013-11-15 21:37:00,54.6,48.2,30.27,SE,129,1.0,1.0,79,0.00,,---,0.00,VWS V14.01,2013-11-16 02:37:00,
2013-11-15 21:38:00,54.8,48.4,30.26,SE,128,0.0,2.0,79,0.00,,---,0.00,VWS V14.01,2013-11-16 02:38:00,
2013-11-15 21:39:00,54.8,48.4,30.26,SE,128,1.0,2.0,79,0.00,,---,0.00,VWS V14.01,2013-11-16 02:39:00,
2013-11-15 21:40:00,54.8,48.4,30.26,SE,146,1.0,2.0,79,0.00,,---,0.00,VWS V14.01,2013-11-16 02:40:00,
2013-11-15 21:41:00,54.9,48.5,30.26,ESE,116,0.0,2.0,79,0.00,,---,0.00,VWS V14.01,2013-11-16 02:41:00,
2013-11-15 21:42:00,54.9,48.5,30.26,ESE,115,0.0,0.0,79,0.00,,---,0.00,VWS V14.01,2013-11-16 02:42:00,
2013-11-15 21:43:00,55.0,48.3,30.27,ESE,115,0.0,0.0,78,0.00,,---,0.00,VWS V14.01,2013-11-16 02:43:00,
2013-11-15 21:44:00,55.0,48.3,30.27,ESE,115,0.0,0.0,78,0.00,,---,0.00,VWS V14.01,2013-11-16 02:44:00,
2013-11-15 21:45:00,55.0,48.3,30.27,ESE,115,0.0,0.0,78,0.00,,---,0.00,VWS V14.01,2013-11-16 02:45:00,
2013-11-15 21:46:00,55.0,48.3,30.26,ESE,115,0.0,0.0,78,0.00,,---,0.00,VWS V14.01,2013-11-16 02:46:00,
2013-11-15 21:47:00,55.0,48.3,30.27,ESE,115,0.0,0.0,78,0.00,,---,0.00,VWS V14.01,2013-11-16 02:47:00,
2013-11-15 21:48:00,55.0,48.3,30.27,ESE,115,0.0,0.0,78,0.00,,---,0.00,VWS V14.01,2013-11-16 02:48:00,
2013-11-15 21:49:00,55.0,48.3,30.27,ESE,115,0.0,0.0,78,0.00,,---,0.00,VWS V14.01,2013-11-16 02:49:00,
2013-11-15 21:50:00,55.0,48.6,30.27,ESE,115,0.0,0.0,79,0.00,,---,0.00,VWS V14.01,2013-11-16 02:50:00,
2013-11-15 21:51:00,55.0,48.6,30.27,ESE,115,0.0,0.0,79,0.00,,---,0.00,VWS V14.01,2013-11-16 02:51:00,
2013-11-15 21:52:00,55.0,48.6,30.27,ESE,115,0.0,0.0,79,0.00,,---,0.00,VWS V14.01,2013-11-16 02:52:00,
2013-11-15 21:53:00,55.0,48.6,30.27,ESE,115,0.0,0.0,79,0.00,,---,0.00,VWS V14.01,2013-11-16 02:53:00,
2013-11-15 21:54:00,55.0,48.6,30.27,ESE,115,0.0,0.0,79,0.00,,---,0.00,VWS V14.01,2013-11-16 02:54:00,
2013-11-15 21:55:00,55.0,48.6,30.26,ESE,115,0.0,0.0,79,0.00,,---,0.00,VWS V14.01,2013-11-16 02:55:00,
2013-11-15 21:56:00,55.0,48.6,30.26,ESE,115,0.0,0.0,79,0.00,,---,0.00,VWS V14.01,2013-11-16 02:56:00,
2013-11-15 21:57:00,55.1,48.7,30.27,ESE,115,0.0,0.0,79,0.00,,---,0.00,VWS V14.01,2013-11-16 02:57:00,
2013-11-15 21:58:00,55.1,48.7,30.27,ESE,115,0.0,0.0,79,0.00,,---,0.00,VWS V14.01,2013-11-16 02:58:00,
2013-11-15 21:59:00,55.1,48.7,30.27,ESE,116,0.0,0.0,79,0.00,,---,0.00,VWS V14.01,2013-11-16 02:59:00,
2013-11-15 22:00:00,55.0,48.6,30.27,ESE,115,0.0,0.0,79,0.00,,---,0.00,VWS V14.01,2013-11-16 03:00:00,
2013-11-15 22:01:00,55.0,48.3,30.27,ESE,115,0.0,0.0,78,0.00,,---,0.00,VWS V14.01,2013-11-16 03:01:00,
2013-11-15 22:02:00,55.0,48.3,30.27,ESE,115,0.0,0.0,78,0.00,,---,0.00,VWS V14.01,2013-11-16 03:02:00,
2013-11-15 22:03:00,55.0,48.3,30.27,ESE,115,0.0,0.0,78,0.00,,---,0.00,VWS V14.01,2013-11-16 03:03:00,
2013-11-15 22:04:00,54.9,48.2,30.27,ESE,115,0.0,0.0,78,0.00,,---,0.00,VWS V14.01,2013-11-16 03:04:00,
2013-11-15 22:05:00,54.9,48.2,30.27,ESE,116,0.0,0.0,78,0.00,,---,0.00,VWS V14.01,2013-11-16 03:05:00,
2013-11-15 22:06:00,54.9,48.2,30.27,ESE,115,0.0,0.0,78,0.00,,---,0.00,VWS V14.01,2013-11-16 03:06:00,
2013-11-15 22:07:00,54.8,48.1,30.27,ESE,116,0.0,0.0,78,0.00,,---,0.00,VWS V14.01,2013-11-16 03:07:00,
2013-11-15 22:08:00,54.8,48.4,30.27,ESE,116,0.0,0.0,79,0.00,,---,0.00,VWS V14.01,2013-11-16 03:08:00,
2013-11-15 22:09:00,54.8,48.4,30.27,ESE,116,0.0,0.0,79,0.00,,---,0.00,VWS V14.01,2013-11-16 03:09:00,
2013-11-15 22:10:00,54.7,48.3,30.27,ESE,115,0.0,0.0,79,0.00,,---,0.00,VWS V14.01,2013-11-16 03:10:00,
2013-11-15 22:11:00,54.7,48.3,30.27,ESE,115,0.0,0.0,79,0.00,,---,0.00,VWS V14.01,2013-11-16 03:11:00,
2013-11-15 22:12:00,54.7,48.0,30.27,ESE,116,0.0,0.0,78,0.00,,---,0.00,VWS V14.01,2013-11-16 03:12:00,
2013-11-15 22:13:00,54.6,47.9,30.27,ESE,115,0.0,0.0,78,0.00,,---,0.00,VWS V14.01,2013-11-16 03:13:00,
2013-11-15 22:14:00,54.6,47.9,30.27,ESE,115,0.0,0.0,78,0.00,,---,0.00,VWS V14.01,2013-11-16 03:14:00,
2013-11-15 22:15:00,54.6,48.2,30.27,ESE,115,0.0,0.0,79,0.00,,---,0.00,VWS V14.01,2013-11-16 03:15:00,
2013-11-15 22:16:00,54.5,48.1,30.27,ESE,115,0.0,0.0,79,0.00,,---,0.00,VWS V14.01,2013-11-16 03:16:00,
2013-11-15 22:17:00,54.5,48.1,30.27,ESE,115,0.0,0.0,79,0.00,,---,0.00,VWS V14.01,2013-11-16 03:17:00,
2013-11-15 22:18:00,54.5,48.1,30.27,ESE,115,0.0,0.0,79,0.00,,---,0.00,VWS V14.01,2013-11-16 03:18:00,
2013-11-15 22:19:00,54.5,48.1,30.27,ESE,115,0.0,0.0,79,0.00,,---,0.00,VWS V14.01,2013-11-16 03:19:00,
2013-11-15 22:20:00,54.4,48.0,30.27,ESE,115,0.0,0.0,79,0.00,,---,0.00,VWS V14.01,2013-11-16 03:20:00,
2013-11-15 22:21:00,54.4,48.0,30.28,ESE,115,0.0,0.0,79,0.00,,---,0.00,VWS V14.01,2013-11-16 03:21:00,
2013-11-15 22:22:00,54.3,47.9,30.28,ESE,115,0.0,0.0,79,0.00,,---,0.00,VWS V14.01,2013-11-16 03:22:00,
2013-11-15 22:23:00,54.2,47.8,30.28,ESE,115,0.0,0.0,79,0.00,,---,0.00,VWS V14.01,2013-11-16 03:23:00,
2013-11-15 22:24:00,54.2,47.8,30.28,ESE,115,0.0,0.0,79,0.00,,---,0.00,VWS V14.01,2013-11-16 03:24:00,
2013-11-15 22:26:00,54.2,47.8,30.28,ESE,115,0.0,0.0,79,0.00,,---,0.00,VWS V14.01,2013-11-16 03:26:00,
2013-11-15 22:27:00,54.1,47.7,30.28,ESE,116,0.0,0.0,79,0.00,,---,0.00,VWS V14.01,2013-11-16 03:27:00,
2013-11-15 22:28:00,54.0,47.6,30.28,ESE,115,0.0,0.0,79,0.00,,---,0.00,VWS V14.01,2013-11-16 03:28:00,
2013-11-15 22:30:00,53.9,47.9,30.28,ESE,115,0.0,0.0,80,0.00,,---,0.00,VWS V14.01,2013-11-16 03:30:00,
2013-11-15 22:31:00,53.9,47.9,30.28,ESE,115,0.0,0.0,80,0.00,,---,0.00,VWS V14.01,2013-11-16 03:31:00,
2013-11-15 22:32:00,53.9,48.2,30.28,ESE,115,0.0,0.0,81,0.00,,---,0.00,VWS V14.01,2013-11-16 03:32:00,
2013-11-15 22:33:00,53.8,48.1,30.28,ESE,115,0.0,0.0,81,0.00,,---,0.00,VWS V14.01,2013-11-16 03:33:00,
2013-11-15 22:34:00,53.8,48.1,30.28,ESE,115,0.0,0.0,81,0.00,,---,0.00,VWS V14.01,2013-11-16 03:34:00,
2013-11-15 22:35:00,53.8,48.1,30.27,ESE,115,0.0,0.0,81,0.00,,---,0.00,VWS V14.01,2013-11-16 03:35:00,
2013-11-15 22:36:00,53.9,48.9,30.27,ESE,115,0.0,0.0,83,0.00,,---,0.00,VWS V14.01,2013-11-16 03:36:00,
2013-11-15 22:37:00,54.0,49.0,30.27,ESE,115,0.0,0.0,83,0.00,,---,0.00,VWS V14.01,2013-11-16 03:37:00,
2013-11-15 22:38:00,54.1,48.7,30.28,ESE,115,0.0,0.0,82,0.00,,---,0.00,VWS V14.01,2013-11-16 03:38:00,
2013-11-15 22:40:00,54.1,48.7,30.28,ESE,116,0.0,0.0,82,0.00,,---,0.00,VWS V14.01,2013-11-16 03:40:00,
2013-11-15 22:41:00,54.2,48.8,30.28,ESE,116,0.0,0.0,82,0.00,,---,0.00,VWS V14.01,2013-11-16 03:41:00,
2013-11-15 22:42:00,54.2,48.8,30.28,ESE,115,0.0,0.0,82,0.00,,---,0.00,VWS V14.01,2013-11-16 03:42:00,
2013-11-15 22:43:00,54.2,48.5,30.27,ESE,109,2.0,2.0,81,0.00,,---,0.00,VWS V14.01,2013-11-16 03:43:00,
2013-11-15 22:44:00,54.2,48.5,30.27,ESE,105,2.0,2.0,81,0.00,,---,0.00,VWS V14.01,2013-11-16 03:44:00,
2013-11-15 22:45:00,54.2,48.5,30.27,East,100,2.0,3.0,81,0.00,,---,0.00,VWS V14.01,2013-11-16 03:45:00,
2013-11-15 22:46:00,54.2,48.8,30.27,East,100,1.0,2.0,82,0.00,,---,0.00,VWS V14.01,2013-11-16 03:46:00,
2013-11-15 22:47:00,54.2,48.8,30.27,ESE,102,1.0,1.0,82,0.00,,---,0.00,VWS V14.01,2013-11-16 03:47:00,
2013-11-15 22:48:00,54.3,48.9,30.28,ESE,102,0.0,0.0,82,0.00,,---,0.00,VWS V14.01,2013-11-16 03:48:00,
2013-11-15 22:49:00,54.3,49.3,30.28,ESE,102,0.0,0.0,83,0.00,,---,0.00,VWS V14.01,2013-11-16 03:49:00,
2013-11-15 22:50:00,54.4,49.0,30.28,ESE,102,0.0,0.0,82,0.00,,---,0.00,VWS V14.01,2013-11-16 03:50:00,
2013-11-15 22:51:00,54.4,49.3,30.28,ESE,102,0.0,0.0,83,0.00,,---,0.00,VWS V14.01,2013-11-16 03:51:00,
2013-11-15 22:52:00,54.4,49.0,30.28,ESE,103,0.0,0.0,82,0.00,,---,0.00,VWS V14.01,2013-11-16 03:52:00,
2013-11-15 22:53:00,54.4,49.0,30.28,ESE,102,0.0,0.0,82,0.00,,---,0.00,VWS V14.01,2013-11-16 03:53:00,
2013-11-15 22:54:00,54.3,48.9,30.28,ESE,102,0.0,0.0,82,0.00,,---,0.00,VWS V14.01,2013-11-16 03:54:00,
2013-11-15 22:55:00,54.3,48.6,30.28,ESE,102,0.0,0.0,81,0.00,,---,0.00,VWS V14.01,2013-11-16 03:55:00,
2013-11-15 22:56:00,54.2,48.5,30.28,ESE,103,0.0,0.0,81,0.00,,---,0.00,VWS V14.01,2013-11-16 03:56:00,
2013-11-15 22:57:00,54.2,48.5,30.28,ESE,102,0.0,0.0,81,0.00,,---,0.00,VWS V14.01,2013-11-16 03:57:00,
2013-11-15 22:58:00,54.1,48.4,30.29,ESE,102,0.0,0.0,81,0.00,,---,0.00,VWS V14.01,2013-11-16 03:58:00,
2013-11-15 22:59:00,54.1,48.4,30.29,ESE,102,0.0,0.0,81,0.00,,---,0.00,VWS V14.01,2013-11-16 03:59:00,
2013-11-15 23:00:00,54.1,48.7,30.29,ESE,103,0.0,1.0,82,0.00,,---,0.00,VWS V14.01,2013-11-16 04:00:00,
2013-11-15 23:01:00,54.0,48.6,30.29,ESE,102,0.0,0.0,82,0.00,,---,0.00,VWS V14.01,2013-11-16 04:01:00,
2013-11-15 23:02:00,54.0,48.6,30.29,ESE,102,0.0,0.0,82,0.00,,---,0.00,VWS V14.01,2013-11-16 04:02:00,
2013-11-15 23:03:00,53.9,48.5,30.29,ESE,102,0.0,0.0,82,0.00,,---,0.00,VWS V14.01,2013-11-16 04:03:00,
2013-11-15 23:04:00,53.9,48.5,30.29,ESE,102,0.0,0.0,82,0.00,,---,0.00,VWS V14.01,2013-11-16 04:04:00,
2013-11-15 23:05:00,53.9,48.5,30.29,ESE,102,0.0,0.0,82,0.00,,---,0.00,VWS V14.01,2013-11-16 04:05:00,
2013-11-15 23:06:00,53.8,48.4,30.29,ESE,102,0.0,0.0,82,0.00,,---,0.00,VWS V14.01,2013-11-16 04:06:00,
2013-11-15 23:07:00,53.8,48.4,30.29,ESE,102,0.0,0.0,82,0.00,,---,0.00,VWS V14.01,2013-11-16 04:07:00,
2013-11-15 23:08:00,53.8,48.4,30.28,ESE,102,0.0,0.0,82,0.00,,---,0.00,VWS V14.01,2013-11-16 04:08:00,
2013-11-15 23:09:00,53.8,48.4,30.28,ESE,102,0.0,0.0,82,0.00,,---,0.00,VWS V14.01,2013-11-16 04:09:00,
2013-11-15 23:10:00,53.7,48.3,30.29,ESE,102,0.0,0.0,82,0.00,,---,0.00,VWS V14.01,2013-11-16 04:10:00,
2013-11-15 23:11:00,53.7,48.7,30.28,ESE,102,0.0,0.0,83,0.00,,---,0.00,VWS V14.01,2013-11-16 04:11:00,
2013-11-15 23:12:00,53.7,48.7,30.29,ESE,103,0.0,0.0,83,0.00,,---,0.00,VWS V14.01,2013-11-16 04:12:00,
2013-11-15 23:13:00,53.7,48.7,30.29,ESE,102,1.0,1.0,83,0.00,,---,0.00,VWS V14.01,2013-11-16 04:13:00,
2013-11-15 23:14:00,53.8,48.8,30.29,ESE,102,1.0,1.0,83,0.00,,---,0.00,VWS V14.01,2013-11-16 04:14:00,
2013-11-15 23:15:00,53.8,48.8,30.29,ESE,102,1.0,1.0,83,0.00,,---,0.00,VWS V14.01,2013-11-16 04:15:00,
2013-11-15 23:16:00,53.9,48.9,30.29,ESE,102,1.0,1.0,83,0.00,,---,0.00,VWS V14.01,2013-11-16 04:16:00,
2013-11-15 23:17:00,53.9,48.9,30.28,ESE,102,0.0,1.0,83,0.00,,---,0.00,VWS V14.01,2013-11-16 04:17:00,
2013-11-15 23:18:00,54.0,49.0,30.28,ESE,102,1.0,1.0,83,0.00,,---,0.00,VWS V14.01,2013-11-16 04:18:00,
2013-11-15 23:19:00,54.0,48.6,30.28,ESE,102,0.0,1.0,82,0.00,,---,0.00,VWS V14.01,2013-11-16 04:19:00,
2013-11-15 23:20:00,54.1,48.7,30.28,ESE,103,1.0,1.0,82,0.00,,---,0.00,VWS V14.01,2013-11-16 04:20:00,
2013-11-15 23:21:00,54.1,48.7,30.28,ESE,102,1.0,1.0,82,0.00,,---,0.00,VWS V14.01,2013-11-16 04:21:00,
2013-11-15 23:22:00,54.1,48.7,30.28,ESE,102,1.0,1.0,82,0.00,,---,0.00,VWS V14.01,2013-11-16 04:22:00,
2013-11-15 23:23:00,54.0,48.6,30.28,East,96,1.0,2.0,82,0.00,,---,0.00,VWS V14.01,2013-11-16 04:23:00,
2013-11-15 23:24:00,54.0,48.6,30.28,East,92,1.0,2.0,82,0.00,,---,0.00,VWS V14.01,2013-11-16 04:24:00,
2013-11-15 23:25:00,54.0,48.6,30.28,East,92,1.0,1.0,82,0.00,,---,0.00,VWS V14.01,2013-11-16 04:25:00,
2013-11-15 23:26:00,53.9,48.5,30.28,East,92,2.0,2.0,82,0.00,,---,0.00,VWS V14.01,2013-11-16 04:26:00,
2013-11-15 23:27:00,53.9,48.5,30.28,East,93,2.0,2.0,82,0.00,,---,0.00,VWS V14.01,2013-11-16 04:27:00,
2013-11-15 23:28:00,53.9,48.9,30.28,East,92,1.0,2.0,83,0.00,,---,0.00,VWS V14.01,2013-11-16 04:28:00,
2013-11-15 23:29:00,53.9,48.5,30.28,East,93,1.0,2.0,82,0.00,,---,0.00,VWS V14.01,2013-11-16 04:29:00,
2013-11-15 23:30:00,53.9,48.5,30.28,East,92,0.0,1.0,82,0.00,,---,0.00,VWS V14.01,2013-11-16 04:30:00,
2013-11-15 23:31:00,53.9,48.5,30.28,ESE,109,1.0,1.0,82,0.00,,---,0.00,VWS V14.01,2013-11-16 04:31:00,
2013-11-15 23:32:00,54.0,48.6,30.28,ESE,109,0.0,1.0,82,0.00,,---,0.00,VWS V14.01,2013-11-16 04:32:00,
2013-11-15 23:33:00,54.0,49.0,30.28,ESE,109,0.0,0.0,83,0.00,,---,0.00,VWS V14.01,2013-11-16 04:33:00,
2013-11-15 23:34:00,54.0,49.0,30.28,ESE,109,0.0,0.0,83,0.00,,---,0.00,VWS V14.01,2013-11-16 04:34:00,
2013-11-15 23:35:00,54.1,49.1,30.28,ESE,109,0.0,1.0,83,0.00,,---,0.00,VWS V14.01,2013-11-16 04:35:00,
2013-11-15 23:36:00,54.1,49.1,30.28,ESE,109,0.0,1.0,83,0.00,,---,0.00,VWS V14.01,2013-11-16 04:36:00,
2013-11-15 23:37:00,54.1,49.1,30.28,ESE,109,0.0,0.0,83,0.00,,---,0.00,VWS V14.01,2013-11-16 04:37:00,
2013-11-15 23:38:00,54.2,49.2,30.27,ESE,109,0.0,0.0,83,0.00,,---,0.00,VWS V14.01,2013-11-16 04:38:00,
2013-11-15 23:39:00,54.2,49.2,30.27,ESE,109,0.0,0.0,83,0.00,,---,0.00,VWS V14.01,2013-11-16 04:39:00,
2013-11-15 23:40:00,54.2,49.2,30.27,ESE,109,0.0,0.0,83,0.00,,---,0.00,VWS V14.01,2013-11-16 04:40:00,
2013-11-15 23:41:00,54.2,48.8,30.27,ESE,109,0.0,0.0,82,0.00,,---,0.00,VWS V14.01,2013-11-16 04:41:00,
2013-11-15 23:42:00,54.2,49.2,30.27,ESE,109,0.0,0.0,83,0.00,,---,0.00,VWS V14.01,2013-11-16 04:42:00,
2013-11-15 23:43:00,54.2,48.8,30.27,ESE,109,0.0,0.0,82,0.00,,---,0.00,VWS V14.01,2013-11-16 04:43:00,
2013-11-15 23:44:00,54.2,48.8,30.27,ESE,109,0.0,0.0,82,0.00,,---,0.00,VWS V14.01,2013-11-16 04:44:00,
2013-11-15 23:45:00,54.3,48.9,30.27,ESE,109,0.0,0.0,82,0.00,,---,0.00,VWS V14.01,2013-11-16 04:45:00,
2013-11-15 23:46:00,54.3,48.9,30.27,ESE,109,0.0,0.0,82,0.00,,---,0.00,VWS V14.01,2013-11-16 04:46:00,
2013-11-15 23:47:00,54.3,49.3,30.27,ESE,109,0.0,0.0,83,0.00,,---,0.00,VWS V14.01,2013-11-16 04:47:00,
2013-11-15 23:48:00,54.3,48.9,30.27,ESE,109,0.0,1.0,82,0.00,,---,0.00,VWS V14.01,2013-11-16 04:48:00,
2013-11-15 23:49:00,54.3,48.9,30.27,ESE,109,0.0,1.0,82,0.00,,---,0.00,VWS V14.01,2013-11-16 04:49:00,
2013-11-15 23:50:00,54.3,48.9,30.27,ESE,109,0.0,1.0,82,0.00,,---,0.00,VWS V14.01,2013-11-16 04:50:00,
2013-11-15 23:51:00,54.3,48.9,30.27,ESE,109,0.0,0.0,82,0.00,,---,0.00,VWS V14.01,2013-11-16 04:51:00,
2013-11-15 23:52:00,54.3,48.9,30.27,ESE,109,0.0,0.0,82,0.00,,---,0.00,VWS V14.01,2013-11-16 04:52:00,
2013-11-15 23:53:00,54.3,48.9,30.27,ESE,109,0.0,0.0,82,0.00,,---,0.00,VWS V14.01,2013-11-16 04:53:00,
2013-11-15 23:54:00,54.4,49.0,30.27,ESE,109,0.0,1.0,82,0.00,,---,0.00,VWS V14.01,2013-11-16 04:54:00,
2013-11-15 23:55:00,54.3,48.9,30.27,ESE,109,1.0,1.0,82,0.00,,---,0.00,VWS V14.01,2013-11-16 04:55:00,
2013-11-15 23:56:00,54.3,48.9,30.27,ESE,107,2.0,2.0,82,0.00,,---,0.00,VWS V14.01,2013-11-16 04:56:00,
2013-11-15 23:57:00,54.3,48.9,30.27,East,101,1.0,2.0,82,0.00,,---,0.00,VWS V14.01,2013-11-16 04:57:00,
2013-11-15 23:58:00,54.2,48.8,30.27,East,101,2.0,2.0,82,0.00,,---,0.00,VWS V14.01,2013-11-16 04:58:00,
2013-11-15 23:59:00,54.2,48.8,30.27,East,101,2.0,2.0,82,0.00,,---,0.00,VWS V14.01,2013-11-16 04:59:00,